[[{"header":{"parameterUnit":"m.s-1","parameterCategory":1,"la1":30.6,"la2":29.2853,"lo1":-89.7004,"lo2":-87.6739,"dy":0.0162,"dx":0.0183,"nx":112,"ny":82,"refTime":"2024-05-30T12:00:00:Z","depth":0,"parameterNumber":2,"parameterNumberName":"U-component_of_WINDS"},"data":[0.0,0.0,0.0,0.0,0.0,0.0,0.0,0.0,0.0,0.0,0.0,0.0,0.0,0.0,0.0,0.0,0.0,0.0,0.0,0.0,0.0,0.0,0.0,0.0,0.0,0.0,0.0,0.0,0.0,0.0,0.0,0.0,0.0,0.0,0.0,0.0,0.0,0.0,0.0,0.0,0.0,0.0,0.0,0.0,0.0,0.0,0.0,0.0,0.0,0.0,0.0,0.0,0.0,0.0,0.0,0.0,0.0,0.0,0.0,0.0,0.0,0.0,0.0,0.0,0.0,0.0,0.0,0.0,0.0,0.0,0.0,0.0,0.0,0.0,0.0,0.0,0.0,0.0,0.0,0.0,0.0,0.0,0.0,0.0,0.0,0.0,0.0,0.0,0.0,0.0,-4.8896,-5.0163,-5.0965,-5.1394,-5.1394,-5.0586,-4.8925,-4.6258,0.0,0.0,0.0,0.0,0.0,0.0,0.0,0.0,0.0,0.0,0.0,0.0,0.0,0.0,0.0,0.0,0.0,0.0,0.0,0.0,0.0,0.0,0.0,0.0,0.0,0.0,0.0,0.0,0.0,0.0,0.0,0.0,0.0,0.0,0.0,0.0,0.0,0.0,0.0,0.0,0.0,0.0,0.0,0.0,0.0,0.0,0.0,0.0,0.0,0.0,0.0,0.0,0.0,0.0,0.0,0.0,0.0,0.0,0.0,0.0,0.0,0.0,0.0,0.0,0.0,0.0,0.0,0.0,0.0,0.0,0.0,0.0,0.0,0.0,0.0,0.0,0.0,0.0,0.0,0.0,0.0,0.0,0.0,0.0,0.0,0.0,0.0,0.0,0.0,0.0,0.0,0.0,0.0,0.0,0.0,0.0,0.0,0.0,0.0,0.0,0.0,0.0,0.0,0.0,-4.7842,-5.0887,-5.1316,-5.1394,-5.1394,-5.0494,-4.8818,-4.6173,0.0,0.0,0.0,0.0,0.0,0.0,0.0,0.0,0.0,0.0,0.0,0.0,0.0,0.0,0.0,0.0,0.0,0.0,0.0,0.0,0.0,0.0,0.0,0.0,0.0,0.0,0.0,0.0,0.0,0.0,0.0,0.0,0.0,0.0,0.0,0.0,0.0,0.0,0.0,0.0,0.0,0.0,0.0,0.0,0.0,0.0,0.0,0.0,0.0,0.0,0.0,0.0,0.0,0.0,0.0,0.0,0.0,0.0,0.0,0.0,0.0,0.0,0.0,0.0,0.0,0.0,0.0,0.0,0.0,0.0,0.0,0.0,0.0,0.0,0.0,0.0,0.0,0.0,0.0,0.0,0.0,0.0,0.0,0.0,0.0,0.0,0.0,0.0,0.0,0.0,0.0,0.0,0.0,0.0,0.0,0.0,0.0,0.0,0.0,0.0,0.0,0.0,0.0,-4.7412,-4.8623,-5.1121,-5.1394,-5.1364,-5.1294,-5.0036,-4.829,-4.6032,-4.4632,0.0,0.0,0.0,0.0,0.0,0.0,0.0,0.0,0.0,0.0,0.0,0.0,0.0,0.0,0.0,0.0,0.0,0.0,0.0,0.0,0.0,0.0,0.0,0.0,0.0,0.0,0.0,0.0,0.0,0.0,0.0,0.0,0.0,0.0,0.0,0.0,0.0,0.0,0.0,0.0,0.0,0.0,0.0,0.0,0.0,0.0,0.0,0.0,0.0,0.0,0.0,0.0,0.0,0.0,0.0,0.0,0.0,0.0,0.0,0.0,0.0,0.0,0.0,0.0,0.0,0.0,0.0,0.0,0.0,0.0,0.0,0.0,0.0,0.0,0.0,0.0,0.0,0.0,0.0,0.0,0.0,0.0,0.0,0.0,0.0,0.0,0.0,0.0,0.0,0.0,0.0,0.0,0.0,0.0,0.0,0.0,0.0,0.0,0.0,0.0,0.0,0.0,-4.8915,-4.9911,-5.1258,-5.1394,-5.1277,-5.0938,-4.9535,-4.7743,-4.5595,-4.4011,0.0,0.0,0.0,0.0,0.0,0.0,0.0,0.0,0.0,0.0,0.0,0.0,0.0,0.0,0.0,0.0,0.0,0.0,0.0,0.0,0.0,0.0,0.0,0.0,0.0,0.0,0.0,0.0,0.0,0.0,0.0,0.0,0.0,0.0,0.0,0.0,0.0,0.0,0.0,0.0,0.0,0.0,0.0,0.0,0.0,0.0,0.0,0.0,0.0,0.0,0.0,0.0,0.0,0.0,0.0,0.0,0.0,0.0,0.0,0.0,0.0,0.0,0.0,0.0,0.0,0.0,0.0,0.0,0.0,0.0,0.0,0.0,0.0,0.0,0.0,0.0,0.0,0.0,0.0,0.0,0.0,0.0,0.0,0.0,0.0,0.0,0.0,0.0,0.0,0.0,0.0,0.0,0.0,0.0,0.0,0.0,0.0,0.0,0.0,0.0,0.0,0.0,-4.9247,-5.1258,-5.1394,-5.1394,-5.1045,-5.0162,-4.9114,-4.7367,-4.4671,-4.3554,0.0,0.0,0.0,0.0,0.0,0.0,0.0,0.0,0.0,0.0,0.0,0.0,0.0,0.0,0.0,0.0,0.0,0.0,0.0,0.0,0.0,0.0,0.0,0.0,0.0,0.0,0.0,0.0,0.0,0.0,0.0,0.0,0.0,0.0,0.0,0.0,0.0,0.0,0.0,0.0,0.0,0.0,0.0,0.0,0.0,0.0,0.0,0.0,0.0,0.0,0.0,0.0,0.0,0.0,0.0,0.0,0.0,0.0,0.0,0.0,0.0,0.0,0.0,0.0,0.0,0.0,0.0,0.0,0.0,0.0,0.0,0.0,0.0,0.0,0.0,0.0,0.0,0.0,0.0,0.0,0.0,0.0,0.0,0.0,0.0,0.0,0.0,0.0,0.0,0.0,0.0,0.0,0.0,0.0,0.0,0.0,0.0,0.0,0.0,0.0,0.0,0.0,-4.79,-4.9421,-5.0475,-5.0592,-5.0171,-4.9148,-4.8224,-4.6499,-4.3705,0.0,0.0,0.0,0.0,0.0,0.0,0.0,0.0,0.0,0.0,0.0,0.0,0.0,0.0,0.0,0.0,0.0,0.0,0.0,0.0,0.0,0.0,0.0,0.0,0.0,0.0,0.0,0.0,0.0,0.0,0.0,0.0,0.0,0.0,0.0,0.0,0.0,0.0,0.0,0.0,0.0,0.0,0.0,0.0,0.0,0.0,0.0,0.0,0.0,0.0,0.0,0.0,0.0,0.0,0.0,0.0,0.0,0.0,0.0,0.0,0.0,0.0,0.0,0.0,0.0,0.0,0.0,0.0,0.0,0.0,0.0,0.0,0.0,0.0,0.0,0.0,0.0,0.0,0.0,0.0,0.0,0.0,0.0,0.0,0.0,0.0,0.0,0.0,0.0,0.0,0.0,0.0,0.0,0.0,0.0,0.0,0.0,0.0,0.0,0.0,0.0,0.0,-4.5168,-4.6944,-4.8426,-4.9577,-4.9694,-4.9271,-4.8239,-4.7077,-4.5336,-4.2815,0.0,0.0,0.0,0.0,0.0,0.0,0.0,0.0,0.0,0.0,0.0,0.0,0.0,0.0,0.0,0.0,0.0,0.0,0.0,0.0,0.0,0.0,0.0,0.0,0.0,0.0,0.0,0.0,0.0,0.0,0.0,0.0,0.0,0.0,0.0,0.0,0.0,0.0,0.0,0.0,0.0,0.0,0.0,0.0,0.0,0.0,0.0,0.0,0.0,0.0,0.0,0.0,0.0,0.0,0.0,0.0,0.0,0.0,0.0,0.0,0.0,0.0,0.0,0.0,0.0,0.0,0.0,0.0,0.0,0.0,0.0,0.0,0.0,0.0,0.0,0.0,0.0,0.0,0.0,0.0,0.0,0.0,0.0,0.0,0.0,0.0,0.0,0.0,0.0,0.0,0.0,0.0,0.0,0.0,0.0,0.0,0.0,0.0,0.0,0.0,0.0,0.0,-4.3705,-4.6671,-4.8779,-4.8798,-4.8779,-4.8391,-4.745,-4.5743,-4.3887,0.0,0.0,0.0,0.0,0.0,0.0,0.0,0.0,0.0,0.0,0.0,0.0,0.0,0.0,0.0,0.0,0.0,0.0,0.0,0.0,0.0,0.0,0.0,0.0,0.0,0.0,0.0,0.0,0.0,0.0,0.0,0.0,0.0,0.0,0.0,0.0,0.0,0.0,0.0,0.0,0.0,0.0,0.0,0.0,0.0,0.0,0.0,0.0,0.0,0.0,0.0,0.0,0.0,0.0,0.0,0.0,0.0,0.0,0.0,0.0,0.0,0.0,0.0,0.0,0.0,0.0,0.0,0.0,0.0,0.0,0.0,0.0,0.0,0.0,0.0,0.0,0.0,0.0,0.0,0.0,0.0,0.0,0.0,0.0,0.0,0.0,0.0,0.0,0.0,0.0,0.0,0.0,0.0,0.0,0.0,0.0,0.0,0.0,0.0,0.0,0.0,0.0,0.0,-4.3549,-4.5656,-4.7276,-4.79,-4.7393,-4.6889,-4.6514,-4.5389,-4.3649,-4.1132,0.0,0.0,0.0,0.0,0.0,0.0,0.0,0.0,0.0,0.0,0.0,0.0,0.0,0.0,0.0,0.0,0.0,0.0,0.0,0.0,0.0,0.0,0.0,0.0,0.0,0.0,0.0,0.0,0.0,0.0,0.0,0.0,0.0,0.0,0.0,0.0,0.0,0.0,0.0,0.0,0.0,0.0,0.0,0.0,0.0,0.0,0.0,0.0,0.0,0.0,0.0,0.0,0.0,0.0,0.0,0.0,0.0,0.0,0.0,0.0,0.0,0.0,0.0,0.0,0.0,0.0,0.0,0.0,0.0,0.0,0.0,0.0,0.0,0.0,0.0,0.0,0.0,0.0,0.0,0.0,0.0,0.0,0.0,0.0,0.0,0.0,0.0,0.0,0.0,0.0,0.0,0.0,0.0,0.0,0.0,0.0,0.0,0.0,0.0,0.0,0.0,0.0,-4.2476,-4.4484,-4.6124,-4.6983,-4.6612,-4.6134,-4.5694,-4.4791,-4.3106,-4.0413,0.0,0.0,0.0,0.0,0.0,0.0,0.0,0.0,0.0,0.0,0.0,0.0,0.0,0.0,0.0,0.0,0.0,0.0,0.0,0.0,0.0,0.0,0.0,0.0,0.0,0.0,0.0,0.0,0.0,0.0,0.0,0.0,0.0,0.0,0.0,0.0,0.0,0.0,0.0,0.0,0.0,0.0,0.0,0.0,0.0,0.0,0.0,0.0,0.0,0.0,0.0,0.0,0.0,0.0,0.0,0.0,0.0,0.0,0.0,0.0,0.0,0.0,0.0,0.0,0.0,0.0,0.0,0.0,0.0,0.0,0.0,0.0,0.0,0.0,0.0,0.0,0.0,0.0,0.0,0.0,0.0,0.0,0.0,0.0,0.0,0.0,0.0,0.0,0.0,0.0,0.0,0.0,0.0,0.0,0.0,0.0,0.0,0.0,0.0,0.0,0.0,0.0,-4.0875,-4.3196,-4.509,-4.5968,-4.5987,-4.5656,-4.4933,-4.4014,-4.2403,-3.9856,0.0,0.0,0.0,0.0,0.0,0.0,0.0,0.0,0.0,0.0,0.0,0.0,0.0,0.0,0.0,0.0,0.0,0.0,0.0,0.0,0.0,0.0,0.0,0.0,0.0,0.0,0.0,0.0,0.0,0.0,0.0,0.0,0.0,0.0,0.0,0.0,0.0,0.0,0.0,0.0,0.0,0.0,0.0,0.0,0.0,0.0,0.0,0.0,0.0,0.0,0.0,0.0,0.0,0.0,0.0,0.0,0.0,0.0,0.0,0.0,-4.2804,0.0,0.0,0.0,0.0,0.0,0.0,0.0,0.0,0.0,0.0,0.0,0.0,0.0,0.0,0.0,0.0,0.0,0.0,0.0,0.0,0.0,0.0,0.0,0.0,0.0,0.0,0.0,0.0,0.0,0.0,0.0,0.0,0.0,0.0,0.0,0.0,0.0,0.0,0.0,0.0,0.0,-4.0054,-4.1752,-4.3294,-4.4153,-4.3645,-4.343,-4.3938,-4.3117,-4.176,-3.9817,-3.8793,0.0,0.0,0.0,0.0,0.0,0.0,0.0,0.0,0.0,0.0,0.0,0.0,0.0,0.0,0.0,0.0,0.0,0.0,0.0,0.0,0.0,0.0,0.0,0.0,0.0,0.0,0.0,0.0,0.0,0.0,0.0,0.0,0.0,0.0,0.0,0.0,0.0,0.0,0.0,0.0,0.0,0.0,0.0,0.0,0.0,0.0,0.0,0.0,0.0,0.0,0.0,0.0,0.0,0.0,0.0,0.0,0.0,0.0,0.0,0.0,-4.3254,0.0,0.0,0.0,0.0,0.0,0.0,0.0,0.0,0.0,0.0,0.0,0.0,0.0,0.0,0.0,0.0,0.0,0.0,0.0,0.0,0.0,0.0,0.0,0.0,0.0,0.0,0.0,0.0,0.0,0.0,0.0,0.0,0.0,0.0,0.0,0.0,0.0,0.0,0.0,0.0,-3.9741,-4.1322,-4.2728,-4.3606,-4.3294,-4.304,-4.3079,-4.2241,-4.1154,-3.983,-3.8468,0.0,0.0,0.0,0.0,0.0,0.0,0.0,0.0,0.0,0.0,0.0,0.0,0.0,0.0,0.0,0.0,0.0,0.0,0.0,0.0,0.0,0.0,0.0,0.0,0.0,0.0,0.0,0.0,0.0,0.0,0.0,0.0,0.0,0.0,0.0,0.0,0.0,0.0,0.0,0.0,0.0,0.0,0.0,0.0,0.0,0.0,0.0,0.0,0.0,0.0,0.0,0.0,0.0,-4.6418,-4.6765,-4.606,-4.608,-4.6164,-4.6193,-4.4768,-4.448,-4.4887,-4.3451,0.0,0.0,0.0,0.0,0.0,0.0,0.0,0.0,0.0,0.0,0.0,0.0,0.0,0.0,0.0,0.0,0.0,0.0,0.0,0.0,0.0,0.0,0.0,0.0,-3.9609,-3.9921,-3.9216,0.0,0.0,0.0,0.0,0.0,0.0,0.0,0.0,0.0,0.0,0.0,-3.9507,-4.1108,-4.2454,-4.3178,-4.3256,-4.2884,-4.2025,-4.1283,-4.0444,-3.9429,-3.7956,-3.7069,0.0,0.0,0.0,0.0,0.0,0.0,0.0,0.0,0.0,0.0,0.0,0.0,0.0,0.0,0.0,0.0,0.0,0.0,0.0,0.0,0.0,0.0,0.0,0.0,0.0,0.0,0.0,0.0,0.0,0.0,0.0,0.0,-4.0728,-4.165,0.0,0.0,0.0,0.0,0.0,0.0,0.0,0.0,0.0,0.0,0.0,0.0,0.0,-4.5965,-4.6656,-4.7428,-4.7078,-4.5653,-4.6575,-4.6608,-4.5848,-4.6011,-4.6105,-4.6118,-4.6015,0.0,-4.4984,-4.4751,0.0,0.0,0.0,0.0,0.0,0.0,0.0,0.0,0.0,0.0,0.0,0.0,0.0,0.0,0.0,0.0,0.0,0.0,0.0,0.0,0.0,0.0,-4.1875,-4.1055,-4.0957,-4.0996,0.0,-3.9764,-3.8939,-3.9442,-3.9031,0.0,0.0,0.0,0.0,0.0,0.0,0.0,-3.8747,-4.0231,-4.1324,-4.1422,-4.1441,-4.1088,-4.0229,-4.0034,-3.9292,-3.7731,-3.7414,-3.691,-3.6086,-3.5939,0.0,0.0,0.0,0.0,0.0,0.0,0.0,0.0,0.0,0.0,0.0,0.0,0.0,0.0,0.0,0.0,0.0,0.0,0.0,0.0,0.0,0.0,0.0,0.0,0.0,0.0,0.0,0.0,0.0,-4.1115,-4.2357,-4.1842,-4.2529,-4.2761,0.0,0.0,0.0,0.0,0.0,0.0,0.0,0.0,0.0,-4.5556,-4.5594,-4.6245,-4.7604,-4.793,-4.7526,-4.6436,-4.7238,-4.7237,-4.6537,-4.6652,-4.6753,-4.6807,-4.6457,-4.6088,-4.5682,-4.5197,-4.4557,-4.3801,0.0,0.0,0.0,0.0,-4.2617,-4.2558,-4.2168,-4.2031,-4.1875,-4.0937,0.0,0.0,0.0,0.0,0.0,0.0,0.0,0.0,0.0,0.0,-4.1641,-4.1289,-4.1191,-4.1328,-4.1777,-4.0918,-4.0037,0.0,-3.995,-3.9438,-3.7615,0.0,0.0,0.0,0.0,-3.9273,-3.9273,-4.0348,-4.1109,-4.1109,-4.1109,-4.0758,-3.9878,-3.939,-3.8806,-3.8084,-3.7106,-3.6593,-3.6674,-3.6224,-3.5968,0.0,0.0,0.0,0.0,0.0,0.0,0.0,0.0,0.0,0.0,0.0,0.0,0.0,0.0,0.0,0.0,0.0,0.0,0.0,0.0,0.0,0.0,0.0,0.0,0.0,0.0,0.0,0.0,-4.2313,-4.3431,-4.2236,-4.3579,-4.4156,0.0,0.0,0.0,0.0,0.0,0.0,-4.3778,-4.4528,-4.5355,-4.6201,-4.646,-4.7163,-4.8413,-4.8644,-4.824,-4.7212,-4.7817,-4.7743,-4.7032,-4.6913,-4.6906,-4.6988,-4.6476,-4.6271,-4.6243,-4.5604,-4.5197,-4.4945,-4.429,-4.3902,-4.3708,-4.3691,-4.3691,-4.3672,-4.3437,-4.3379,-4.3164,-4.1914,-4.1367,-4.0918,-3.9394,0.0,0.0,0.0,0.0,-4.0371,-4.1035,-4.1191,-4.1191,-4.1191,-4.1191,-4.1367,-4.1953,-4.1601,-4.1054,0.0,-4.0832,-4.0436,-3.8298,0.0,0.0,-3.775,-3.8863,-3.98,-3.98,-4.0561,-4.1109,-4.1109,-4.1109,-4.066,-3.9585,-3.8942,-3.8415,-3.7966,-3.6716,-3.6285,-3.6931,-3.6344,-3.5992,-3.5992,0.0,0.0,0.0,0.0,0.0,0.0,0.0,0.0,0.0,0.0,0.0,0.0,0.0,0.0,0.0,0.0,0.0,0.0,0.0,0.0,0.0,0.0,0.0,0.0,0.0,0.0,0.0,0.0,0.0,-4.3403,-4.4436,0.0,0.0,0.0,0.0,-4.4892,-4.5246,-4.5445,-4.547,-4.6297,-4.7144,-4.7952,-4.8779,-4.924,-4.9336,-5.0173,-4.9721,-4.8048,-4.8086,-4.7682,-4.6892,-4.6186,-4.5912,-4.5973,-4.6072,-4.6181,-4.63,-4.6243,-4.5758,-4.5004,-4.4945,-4.4422,-4.3704,-4.3708,-4.3709,-4.3573,-4.2754,-4.2461,-4.2441,-4.2363,-4.1816,-4.1035,-4.0117,-3.9824,0.0,0.0,-4.0508,-4.1133,-4.1191,-4.1191,-4.1191,-4.1191,-4.1191,-4.1211,-4.125,-4.1171,-4.1345,0.0,-4.1634,-4.0792,-3.9842,0.0,-3.9468,-3.8669,-3.9253,-3.98,-3.98,-4.0561,-4.1109,-4.1109,-4.1109,-4.0446,-3.8806,-3.8611,-3.7888,-3.6246,-3.6051,-3.6012,-3.6051,-3.6012,-3.5992,-3.5992,-3.5992,0.0,0.0,0.0,0.0,0.0,0.0,0.0,0.0,0.0,0.0,0.0,0.0,0.0,0.0,0.0,0.0,0.0,0.0,0.0,0.0,0.0,0.0,0.0,0.0,0.0,0.0,0.0,0.0,-4.4213,-4.4629,0.0,-4.4048,-4.4387,-4.4745,-4.4988,-4.6356,-4.6944,-4.6406,-4.7722,-4.8644,-4.8933,-4.924,-4.9663,-5.0231,-5.0539,-5.0106,-4.8933,-4.8375,-4.7682,-4.6874,-4.6132,-4.5815,-4.5848,-4.5934,-4.6049,-4.6176,-4.6176,-4.6043,-4.5836,-4.5842,-4.5652,-4.5305,-4.4741,-4.4547,-4.4412,-4.3534,-4.3241,-4.3144,-4.2578,-4.1855,-4.1133,-4.082,-4.0742,-4.0742,-4.0742,-4.0957,-4.1191,-4.1191,-4.1191,-4.1191,-4.1191,-4.1191,-4.1191,-4.1191,-4.1172,-4.1249,-4.1501,-4.1301,-4.0848,-4.0003,-4.0292,-4.0346,-3.9507,-4.0093,-4.0639,-4.0639,-4.0914,-4.1109,-4.1109,-4.1109,-4.0426,-3.8747,-3.8591,-3.7869,-3.6109,-3.5992,-3.5992,-3.5992,-3.5992,-3.5992,-3.5992,-3.5992,-3.5719,0.0,0.0,0.0,0.0,0.0,0.0,0.0,0.0,0.0,0.0,0.0,0.0,0.0,0.0,0.0,0.0,0.0,0.0,0.0,0.0,0.0,0.0,0.0,0.0,0.0,-4.3626,-4.4305,-4.4305,-4.4782,-4.4869,-4.4286,-4.4782,-4.5279,-4.5615,-4.7048,-4.768,-4.7233,-4.8596,-4.9394,-4.9394,-4.9683,-5.0106,-5.0693,-5.0712,-5.0423,-4.9817,-4.8952,-4.8105,-4.7278,-4.6513,-4.6039,-4.5794,-4.5847,-4.5929,-4.6041,-4.6087,-4.6147,-4.6243,-4.6282,-4.6117,-4.5789,-4.5206,-4.4818,-4.4449,-4.3552,-4.3064,-4.2733,-4.2187,-4.1621,-4.1191,-4.1191,-4.1191,-4.1191,-4.1191,-4.1191,-4.1191,-4.1191,-4.1191,-4.1191,-4.1191,-4.1191,-4.1191,-4.1191,-4.1191,-4.1191,-4.1132,-4.1129,-4.0928,-4.0397,-4.0744,-4.0896,-4.0327,-4.0738,-4.1109,-4.1109,-4.1109,-4.1109,-4.1109,-4.1109,-4.0426,-3.8747,-3.8591,-3.7869,-3.6109,-3.5992,-3.5992,-3.5992,-3.5992,-3.5992,-3.5992,-3.5992,-3.5563,-3.4705,0.0,0.0,0.0,0.0,0.0,0.0,0.0,0.0,0.0,0.0,0.0,0.0,0.0,0.0,0.0,0.0,0.0,0.0,0.0,0.0,0.0,0.0,0.0,-4.1132,-4.3883,-4.5223,-4.3735,-4.4911,-4.5571,-4.4764,-4.5722,-4.6528,-4.6859,-4.7283,-4.7686,-4.8,-4.8923,-4.9433,-4.9433,-5.0269,-5.0712,-5.0712,-5.0712,-5.0712,-5.0693,-4.9779,-4.8913,-4.8067,-4.724,-4.6469,-4.58,-4.58,-4.5822,-4.5905,-4.6041,-4.6095,-4.6109,-4.6245,-4.5773,-4.4994,-4.4969,-4.4385,-4.3503,-4.2652,-4.1814,-4.1112,-4.1172,-4.1191,-4.1191,-4.1191,-4.1191,-4.1191,-4.1191,-4.1191,-4.1191,-4.1191,-4.1191,-4.1191,-4.1191,-4.1191,-4.1191,-4.1191,-4.1191,-4.1191,-4.1191,-4.1152,-4.109,-4.1101,-4.1099,-4.1097,-4.1091,-4.1109,0.0,-4.1109,-4.1109,-4.1109,-4.1109,-4.1109,-4.0426,-3.8786,-3.8611,-3.7869,-3.6148,-3.6012,-3.5992,-3.5992,-3.5992,-3.5992,-3.5992,-3.5992,-3.5582,-3.4744,0.0,0.0,0.0,0.0,0.0,0.0,0.0,0.0,0.0,0.0,0.0,0.0,0.0,0.0,0.0,0.0,0.0,0.0,0.0,0.0,0.0,-4.2047,-4.2983,-4.4397,-4.3846,-4.3571,-4.4287,-4.4764,-4.4947,-4.4709,-4.5722,-4.6436,-4.6528,-4.7682,-4.8421,-4.8502,-4.9627,-5.0297,-5.0337,-5.0577,-5.0712,-5.0712,-5.0712,-5.0712,-5.0673,-4.9183,-4.8336,-4.8048,-4.6605,-4.5851,-4.5651,-4.5651,-4.5727,-4.5829,-4.5866,-4.5959,-4.6109,-4.6245,-4.5776,-4.4922,-4.4297,-4.3108,-4.1784,-4.1537,-4.1305,-4.1092,-4.1112,-4.1152,-4.1191,-4.1191,-4.1191,-4.1191,-4.1191,-4.1191,-4.1191,-4.1191,-4.1191,-4.1191,-4.1191,-4.1191,-4.1191,-4.1191,-4.1191,-4.1191,-4.1191,-4.1191,-4.1152,-4.111,-4.1107,-4.1103,-4.1097,-4.1097,0.0,-4.1109,-4.1109,-4.1109,-4.1109,-4.1109,-4.066,-3.9566,-3.8942,-3.8123,-3.7009,-3.6344,-3.5992,-3.5992,-3.5992,-3.5992,-3.5992,-3.5992,-3.5875,0.0,0.0,0.0,0.0,0.0,0.0,0.0,0.0,0.0,0.0,0.0,0.0,0.0,0.0,0.0,0.0,0.0,0.0,0.0,0.0,0.0,0.0,-4.2662,-4.334,-4.515,-4.4195,-4.3534,-4.414,-4.4488,-4.4691,-4.4691,-4.5915,-4.6753,-4.6904,-4.8198,-4.9051,-4.9188,-5.0087,-5.0613,-5.0653,-5.0692,-5.0712,-5.0712,-5.0712,-5.0712,-5.0673,-4.9298,-4.8452,-4.8067,-4.674,-4.5951,-4.5594,-4.5594,-4.5635,-4.5712,-4.5778,-4.586,0.0,0.0,0.0,0.0,0.0,-4.1971,-4.1099,-4.1102,-4.1105,-4.1108,-4.1091,-4.1132,-4.1152,-4.1191,-4.1191,-4.1191,-4.1191,-4.1191,-4.1191,-4.1191,-4.1191,-4.1191,-4.1191,-4.1191,-4.1191,-4.1191,-4.1191,-4.1191,-4.1191,-4.1191,0.0,-4.1152,-4.1111,-4.1108,-4.1103,-4.1102,-4.11,-4.1094,-4.1094,-4.1093,-4.1109,-4.1109,-4.0758,-3.9878,-3.906,0.0,0.0,0.0,-3.5992,-3.5992,-3.5992,0.0,0.0,0.0,0.0,0.0,0.0,0.0,0.0,-3.6008,-3.6265,0.0,0.0,0.0,0.0,0.0,0.0,0.0,0.0,0.0,0.0,0.0,0.0,0.0,0.0,0.0,0.0,-4.2905,-4.2395,-4.4235,-4.4545,-4.4305,-4.3571,-4.4287,-4.4838,-4.4838,-4.6287,-4.7371,-4.767,-4.8699,-4.9479,-4.9825,-5.0256,0.0,0.0,0.0,-5.0702,-5.0702,-5.0702,-5.0654,-5.0539,-4.9663,-4.8798,-4.7952,-4.7124,-4.6336,-4.5594,-4.5594,-4.5594,-4.5603,-4.5719,-4.5735,-4.566,-4.5763,-4.4889,-4.3347,-4.1693,-4.1094,-4.1098,-4.1098,0.0,0.0,-4.1108,-4.1091,-4.1112,-4.1172,-4.1191,-4.1191,-4.1191,-4.1191,-4.1191,-4.1191,-4.1191,-4.1191,-4.1191,-4.1191,-4.1191,-4.1191,-4.1191,-4.1191,-4.1191,-4.1191,-4.1191,-4.1191,-4.1152,-4.1111,-4.1108,-4.1108,-4.1106,-4.11,-4.1099,-4.1098,-4.1091,0.0,0.0,-4.0015,-3.9118,-3.8279,-3.7497,-3.6542,-3.5998,-3.5999,-3.5999,-3.5999,-3.5999,-3.5999,-3.6007,-3.5995,-3.5995,-3.5996,-3.5989,-3.5996,-3.5996,0.0,0.0,0.0,0.0,0.0,0.0,0.0,0.0,0.0,0.0,0.0,0.0,0.0,0.0,0.0,-4.2389,-4.2599,-4.2793,-4.3194,-4.3541,-4.3663,-4.3533,-4.4782,-4.5663,-4.5663,-4.7131,-4.8086,-4.8162,-4.8636,-4.9097,-4.9479,-4.9838,-5.0186,-5.0511,-5.0593,-5.0613,-5.0613,-5.0663,-5.0346,-4.9644,0.0,0.0,-4.7096,-4.624,-4.5768,-4.5594,-4.5594,-4.5594,-4.5594,-4.5629,-4.5283,-4.4692,-4.4202,-4.3416,-4.2446,-4.1456,-4.1094,-4.1093,-4.1097,-4.1098,-4.1099,-4.1101,-4.1107,-4.1092,-4.1112,-4.1152,0.0,-4.1191,-4.1191,-4.1191,-4.1191,-4.1191,-4.1191,-4.1191,-4.1191,-4.1191,-4.1191,-4.1191,-4.1191,-4.1191,-4.1191,-4.1191,-4.1191,-4.1191,-4.1152,-4.1111,-4.1091,-4.109,-4.1106,-4.1106,-4.1103,-4.1098,-4.1097,-4.1037,-4.0855,-3.947,-3.8533,-3.8357,-3.6866,-3.5995,-3.5995,-3.5995,-3.5995,-3.5995,-3.5995,-3.5995,-3.5993,-3.5993,-3.5969,-3.5911,-3.5969,-3.5968,0.0,0.0,0.0,0.0,0.0,0.0,0.0,0.0,0.0,0.0,0.0,-4.059,-4.1576,0.0,-4.1648,-4.2388,-4.2622,-4.2867,-4.3328,-4.3268,-4.3268,-4.348,-4.4911,-4.5902,-4.5902,-4.737,-4.8306,-4.8306,-4.8604,-4.8883,-4.9097,-4.9613,-4.9987,-5.0197,-5.0459,-5.0603,-5.0603,-5.0682,-5.0269,-4.9394,-4.8529,-4.7682,-4.6865,-4.599,-4.5594,-4.5594,-4.5594,-4.5594,-4.5575,-4.5133,-4.4509,-4.3723,-4.2995,-4.254,-4.2191,-4.1367,-4.1076,-4.1109,-4.1093,-4.1094,-4.1094,-4.1098,-4.1102,-4.1107,-4.1109,-4.1111,-4.1152,-4.1152,-4.1172,-4.1191,-4.1191,-4.1191,-4.1191,-4.1191,-4.1191,-4.1191,-4.1191,-4.117,-4.1168,-4.1191,-4.1144,-4.1112,-4.1144,-4.1117,-4.1094,-4.1109,-4.1063,-4.1038,-4.1005,-4.1006,-4.1008,-4.0992,-4.0642,-4.0408,-4.0409,-3.8827,-3.7675,-3.7266,-3.6424,-3.5972,-3.5991,-3.5991,-3.5991,-3.5991,-3.5991,-3.5988,-3.596,-3.596,-3.5929,-3.5899,-3.5935,-3.6169,0.0,0.0,0.0,0.0,0.0,0.0,0.0,-3.8549,-3.9192,-3.9796,-4.0279,-4.1005,-4.2333,-4.195,-4.1763,-4.2786,-4.2817,-4.3034,-4.3901,-4.3492,-4.3322,-4.3903,-4.5112,-4.5957,-4.6122,-4.7462,-4.8306,-4.8306,-4.855,-4.8729,-4.8799,-4.9363,-4.9744,-4.9884,-5.0197,-5.0448,-5.0582,-5.0584,-5.0095,-4.9144,-4.8432,-4.7586,-4.6624,-4.5913,-4.5594,-4.5594,-4.5594,-4.5594,-4.5537,-4.4662,-4.3835,-4.3025,-4.221,-4.1923,-4.191,-4.122,-4.1009,-4.1048,-4.1076,-4.1078,-4.1081,-4.1094,-4.1098,-4.1099,-4.1104,-4.1109,-4.1092,-4.1092,-4.1152,-4.1191,-4.1191,-4.1191,-4.1191,-4.1191,-4.1191,-4.1171,-4.1171,-4.1139,-4.1106,-4.1146,-4.1072,-4.1028,-4.1072,-4.1017,-4.0997,-4.1072,-4.1025,-4.0977,-4.0933,-4.078,-4.0669,-4.0664,-3.9947,-3.9382,-3.9208,-3.7903,-3.6756,-3.5921,-3.5882,-3.5907,-3.5956,-3.5956,-3.5977,-3.5979,-3.5979,-3.5953,-3.5894,-3.5894,-3.5899,-3.5908,-3.5908,-3.6376,-3.3973,-3.3562,-3.3825,-3.525,-3.6614,-3.7804,0.0,-3.9768,-4.0849,-4.0707,-4.1423,-4.1945,-4.1478,-4.2422,-4.3174,-4.2783,-4.3155,-4.3693,-4.4353,-4.4126,-4.4321,-4.548,-4.5792,-4.6177,-4.6892,-4.7755,-4.8306,-4.8306,-4.8326,-4.8477,-4.8781,-4.8866,-4.9193,-4.9784,-4.9641,-4.9846,-5.0511,-5.0279,-4.9513,-4.824,-4.8144,-4.7278,-4.5748,-4.5633,-4.5594,-4.5594,-4.5594,-4.5594,-4.5537,-4.4662,-4.3835,-4.3008,-4.214,-4.1431,-4.087,-4.083,-4.0833,-4.0855,-4.0964,-4.1003,-4.1011,-4.108,-4.1094,-4.1099,-4.1099,-4.1106,-4.1092,-4.1092,-4.1152,-4.1191,-4.1191,-4.1191,-4.1191,-4.1191,-4.1147,-4.1114,-4.1114,-4.1064,-4.1006,-4.1011,-4.1003,-4.0994,-4.1003,-4.0961,-4.0937,-4.0994,-4.0997,-4.0994,-4.0994,-4.0318,-3.9839,-3.9836,-3.906,-3.8229,-3.7455,-3.7201,-3.672,-3.5864,-3.5803,-3.5804,-3.5815,-3.5811,-3.5849,-3.5905,-3.5905,-3.5917,-3.5897,-3.5897,-3.5894,-3.5908,-3.5908,-3.6376,-3.2975,-3.3389,-3.4184,-3.481,-3.5774,-3.6954,-3.8495,-3.9397,-4.0085,-4.0666,-4.1605,-4.2155,-4.1698,-4.2652,-4.3274,-4.2581,-4.3415,-4.4364,-4.4875,-4.4836,-4.5376,-4.7075,-4.6893,-4.6727,-4.7076,-4.7828,-4.8306,-4.8306,-4.8306,-4.8364,-4.8495,-4.8693,-4.8934,-4.9209,-4.9329,-4.9551,-4.9865,-4.9981,-4.9277,-4.7741,-4.7962,-4.7174,-4.5594,-4.5594,-4.5594,-4.5594,-4.5594,-4.5306,-4.4778,-4.3932,-4.3104,-4.2258,-4.1373,-4.0862,-4.0595,-4.0711,-4.0775,-4.0815,-4.0855,-4.0886,-4.089,-4.0928,-4.0922,-4.0929,-4.0929,-4.0925,-4.0922,-4.0922,-4.0979,-4.1031,-4.1031,-4.1055,-4.1078,-4.1078,-4.1066,-4.0896,-4.0391,-4.0633,-4.0649,-3.9685,-4.0245,-4.0728,-4.0279,-4.0558,-4.0851,-4.0878,-4.0883,-4.0709,-4.0189,-3.9801,-3.9184,-3.8188,-3.7746,-3.7186,-3.6359,-3.6281,-3.6122,-3.5764,-3.5745,-3.576,-3.5795,-3.5795,-3.5803,-3.5842,-3.5846,-3.5834,-3.5849,-3.5849,-3.5849,-3.5849,-3.5849,-3.6315,-3.2578,-3.3241,-3.3981,-3.4387,-3.5216,-3.6366,-3.8007,-3.887,-3.9476,-4.0172,-4.1214,-4.1995,-4.2054,-4.2815,-4.3328,-4.3124,-4.4027,-4.4948,-4.5645,-4.5534,-4.6128,-4.8083,-4.759,-4.7186,-4.7406,-4.7957,-4.8306,-4.8306,-4.8306,-4.8306,-4.8306,-4.8532,-4.8693,-4.8799,-4.8999,-4.919,-4.9405,-4.9608,-4.8959,-4.7502,-4.775,-4.7079,-4.5594,-4.5594,-4.5594,-4.5594,-4.5594,-4.5114,-4.4239,-4.3431,-4.2585,-4.1712,-4.0835,-4.0496,-4.0512,-4.0602,-4.0681,-4.0724,-4.0756,-4.0766,-4.0771,-4.0781,-4.081,-4.081,-4.081,-4.0809,-4.0792,-4.0792,-4.0836,-4.0882,-4.0909,-4.0938,-4.0987,-4.099,-4.0997,-4.073,-3.9861,-4.0123,-4.0078,-3.8634,-3.9287,-3.9892,-3.9301,-3.9694,-4.0152,-4.041,-4.0448,-4.0216,-3.9578,-3.9075,-3.8205,-3.6729,-3.6574,-3.6323,-3.5742,-3.5704,-3.5706,-3.5703,-3.5703,-3.5723,-3.5775,-3.578,-3.5765,-3.5778,-3.5778,-3.5782,-3.5795,-3.5795,-3.5795,-3.5795,-3.5795,-3.6144,-3.2983,-3.2882,-3.2716,-3.4134,-3.5644,-3.6778,-3.6846,-3.8531,-3.9859,-3.9182,-4.0231,-4.1493,-4.2328,-4.2986,-4.3776,-4.4925,-4.5035,-4.5425,-4.6671,-4.6177,-4.6331,-4.8099,-4.759,-4.7406,-4.8196,-4.8306,-4.8306,-4.8306,-4.8306,-4.8306,-4.8306,-4.8306,-4.8458,-4.8799,-4.8495,-4.8676,-4.9405,-4.9075,-4.8446,-4.7502,-4.7514,-4.684,-4.5594,-4.5594,-4.5594,-4.5594,-4.5594,-4.5114,-4.4239,-4.3431,-4.2585,-4.1712,-4.0835,-4.0496,-4.0496,-4.0504,-4.0504,-4.0534,-4.0655,-4.07,-4.0705,-4.0776,-4.081,-4.081,-4.081,-4.0809,-4.0792,-4.0792,-4.0805,-4.0824,-4.0886,-4.0893,-4.0915,-4.0987,-4.0957,-4.066,-3.979,-3.9571,-3.9274,-3.8379,-3.8257,-3.8276,-3.8257,-3.8257,-3.8566,-3.9404,-3.9539,-3.952,-3.9501,-3.8025,-3.6651,-3.582,-3.5742,-3.5723,-3.5704,-3.5704,-3.5709,-3.5709,-3.5709,-3.5709,-3.569,-3.569,-3.5697,-3.5708,-3.5708,-3.5732,-3.5795,-3.5795,-3.5795,-3.5795,-3.5795,-3.5814,-3.1981,-3.252,-3.3173,-3.3765,-3.5021,-3.6254,-3.6694,-3.779,-3.8764,-3.8962,-4.0561,-4.2025,-4.2315,-4.3427,-4.4442,-4.4862,-4.5302,-4.5759,-4.6189,-4.6645,-4.7178,-4.7759,-4.7875,-4.8012,-4.8269,-4.8306,-4.8306,-4.8306,-4.8306,-4.8306,-4.8306,-4.8306,-4.8345,-4.8458,-4.8345,-4.842,-4.8676,-4.8259,-4.7618,-4.6749,-4.6189,-4.5788,-4.5594,-4.5594,-4.5594,-4.5594,-4.5594,-4.5114,-4.4239,-4.3431,-4.2585,-4.1712,-4.0835,-4.0496,-4.0496,-4.0496,-4.0496,-4.0504,-4.0557,-4.0579,-4.0566,-4.0596,-4.059,-4.059,-4.059,-4.0597,-4.0591,-4.0591,-4.063,-4.0674,-4.0706,-4.0692,-4.0715,-4.0801,-4.0773,-4.0382,-3.8972,-3.9104,-3.8901,-3.6922,-3.7444,-3.8019,-3.7439,-3.7825,-3.8096,-3.7812,-3.8276,-3.8644,-3.8644,-3.7154,-3.5994,-3.5723,-3.5704,-3.5704,-3.5704,-3.5704,-3.5704,-3.5704,-3.5704,-3.5704,-3.5704,-3.5704,-3.5695,-3.5692,-3.5697,-3.5702,-3.5723,-3.5723,-3.5723,-3.5723,-3.5723,-3.5723,-3.1487,-3.2417,-3.3515,-3.3615,-3.4759,-3.598,-3.6424,-3.7336,-3.8169,-3.856,-4.0468,-4.2123,-4.2342,-4.3535,-4.4552,-4.4835,-4.5275,-4.5657,-4.5868,-4.6694,-4.736,-4.7569,-4.8015,-4.8306,-4.8306,-4.8306,-4.8306,-4.8306,-4.8306,-4.8306,-4.8306,-4.8306,-4.8306,-4.8306,-4.8306,-4.8306,-4.8306,-4.772,-4.7016,-4.6177,-4.5438,-4.5282,-4.5594,-4.5594,-4.5594,-4.5594,-4.5594,-4.494,-4.3835,-4.3316,-4.2393,-4.1277,-4.0727,-4.0496,-4.0496,-4.0496,-4.0496,-4.0496,-4.0496,-4.0496,-4.0496,-4.0496,-4.0496,-4.0496,-4.0496,-4.0496,-4.0496,-4.0496,-4.0531,-4.0573,-4.058,-4.061,-4.0619,-4.0654,-4.0668,-4.0314,-3.8929,-3.9082,-3.8824,-3.6574,-3.7,-3.7464,-3.6613,-3.7174,-3.7651,-3.7406,-3.7574,-3.7632,-3.7348,-3.6361,-3.5704,-3.5704,-3.5704,-3.5704,-3.5704,-3.5704,-3.5704,-3.5704,-3.5704,-3.5704,-3.5704,-3.5704,-3.5704,-3.5704,-3.5704,-3.5704,-3.5704,-3.5704,-3.5704,-3.5704,-3.5704,-3.5704,-3.1498,-3.2593,-3.3704,-3.3704,-3.4869,-3.5997,-3.5997,-3.7103,-3.8116,-3.8016,-3.9917,-4.1792,-4.2397,-4.332,-4.4202,-4.4903,-4.5005,-4.5213,-4.5792,-4.6334,-4.6913,-4.7506,-4.7975,-4.8267,-4.8287,-4.8306,-4.8306,-4.8306,-4.8306,-4.8306,-4.8306,-4.8306,-4.8306,-4.8306,-4.8306,-4.8288,-4.8251,-4.7388,-4.6546,-4.5695,-4.5276,-4.5243,-4.5577,-4.5586,-4.5594,-4.5594,-4.5556,-4.4624,-4.3143,-4.3066,-4.2066,-4.0554,-4.0516,-4.0496,-4.0496,-4.0496,-4.0496,-4.0496,-4.0496,-4.0496,-4.0496,-4.0496,-4.0496,-4.0496,-4.0496,-4.0496,-4.0496,-4.0496,-4.0496,-4.0504,-4.0573,-4.0588,-4.0595,-4.06,-4.0654,-4.0462,-3.9599,-3.9451,-3.8972,-3.7232,-3.6864,-3.6593,-3.582,-3.6361,-3.7174,-3.7999,-3.7425,-3.6632,-3.5916,-3.5742,-3.5704,-3.5704,-3.5704,-3.5704,-3.5704,-3.5704,-3.5704,-3.5704,-3.5704,-3.5704,-3.5704,-3.5704,-3.5704,-3.5704,-3.5704,-3.5704,-3.5704,-3.5704,-3.5704,-3.5679,-3.5704,-3.5684,-3.1559,-3.2598,-3.3724,-3.3822,-3.5012,-3.6122,-3.6019,-3.6794,-3.7655,-3.8071,-4.0,-4.1809,-4.2518,-4.3878,-4.4944,-4.5133,-4.522,-4.5353,-4.5494,-4.597,-4.6513,-4.7004,-4.7485,-4.7935,-4.8267,-4.8306,-4.8306,-4.8306,-4.8306,-4.8306,-4.8306,-4.8306,-4.8306,-4.8306,-4.8306,-4.8012,-4.7406,-4.6012,-4.5023,-4.4464,-4.4648,-4.4908,-4.5232,-4.5495,-4.5594,-4.5556,-4.4913,-4.4393,-4.3893,-4.2643,-4.1873,-4.1393,-4.0746,-4.0496,-4.0496,-4.0496,-4.0496,-4.0496,-4.0496,-4.0496,-4.0496,-4.0496,-4.0496,-4.0496,-4.0496,-4.0496,-4.0496,-4.0496,-4.0496,-4.0496,-4.0523,-4.0531,-4.0539,-4.0595,-4.061,-4.04,-3.9586,-3.9412,-3.8923,-3.7226,-3.6419,-3.5936,-3.5742,-3.6361,-3.698,-3.7193,-3.7038,-3.7058,-3.7522,-3.6477,-3.5704,-3.5704,-3.5704,-3.5704,-3.5704,-3.5704,-3.5704,-3.5704,-3.5704,-3.5704,-3.5704,-3.5704,-3.5704,-3.5704,-3.5704,-3.5704,-3.5704,-3.5704,-3.5651,-3.5547,-3.5656,-3.559,-3.2704,-3.3507,-3.438,-3.4458,-3.5356,-3.6337,-3.6599,-3.7291,-3.8047,-3.8648,-4.0641,-4.238,-4.2663,-4.4111,-4.535,-4.5569,-4.5444,-4.5421,-4.5748,-4.5952,-4.6273,-4.684,-4.7313,-4.7795,-4.8249,-4.8306,-4.8306,-4.8306,-4.8306,-4.8306,-4.8306,-4.8306,-4.8306,-4.8306,-4.7957,-4.7223,-4.6049,-4.515,-4.4474,-4.3998,-4.4299,-4.4663,-4.5107,-4.5322,-4.5495,-4.5556,0.0,-4.4105,-4.3662,-4.2354,-4.1566,-4.1181,-4.0689,-4.0496,-4.0496,-4.0496,-4.0496,-4.0496,-4.0496,-4.0496,-4.0496,-4.0496,-4.0496,-4.0496,-4.0496,-4.0496,-4.0496,-4.0496,-4.0496,-4.0496,-4.0496,-4.0496,-4.0504,-4.0558,-4.0573,-4.048,-4.0021,-3.9933,-3.9432,-3.7782,-3.6499,-3.5673,-3.5684,-3.6361,-3.7038,-3.74,-3.7135,-3.7212,-3.8096,-3.6748,-3.5704,-3.5704,-3.5704,-3.5704,-3.5704,-3.5704,-3.5704,-3.5704,-3.5704,-3.5704,-3.5704,-3.5704,-3.5668,-3.5608,-3.5608,-3.5584,-3.5522,-3.5522,-3.5489,-3.5416,-3.5496,-3.5437,-3.4096,-3.4648,-3.5197,-3.5197,-3.5749,-3.6508,-3.7323,-3.7996,-3.8658,-3.9381,-4.1316,-4.2873,-4.2792,-4.4121,-4.543,-4.5925,-4.5664,-4.5574,-4.6096,-4.6074,-4.6214,-4.6817,-4.727,-4.7733,-4.8248,-4.8306,-4.8306,-4.8306,-4.8306,-4.8306,-4.8306,-4.8306,-4.8251,-4.8141,-4.7259,-4.6104,-4.4709,-4.4581,-4.4329,-4.3943,-4.4099,-4.4479,-4.5041,-4.5129,-4.5332,-4.5556,-4.4566,0.0,-4.3028,-4.2027,-4.1181,-4.0496,-4.0496,-4.0496,-4.0496,-4.0496,-4.0496,-4.0496,-4.0496,-4.0496,-4.0496,-4.0496,-4.0496,-4.0496,-4.0496,-4.0496,-4.0496,-4.0496,-4.0496,-4.0496,-4.0496,-4.0496,-4.0496,-4.0496,-4.0539,-4.058,-4.0607,-4.0432,-3.981,-3.8318,-3.6702,-3.5612,-3.5684,-3.6361,-3.7154,-3.7903,-3.7386,-3.7174,-3.7922,-3.6671,-3.5704,-3.5704,-3.5704,-3.5704,-3.5704,-3.5704,-3.5704,-3.5704,-3.5673,-3.5668,-3.5668,-3.5656,-3.559,-3.5489,-3.547,-3.5416,-3.5308,-3.5308,-3.5281,-3.5266,-3.5281,-3.5274,-3.4194,-3.4648,-3.5197,-3.5197,-3.5749,-3.6508,-3.7323,-3.7599,-3.806,-3.9399,-4.0543,-4.1664,-4.2873,-4.3863,-4.4734,-4.5413,-4.6008,-4.6163,-4.5629,-4.6088,-4.6568,-4.6865,-4.6976,-4.7356,-4.8229,-4.8306,-4.8306,-4.8306,-4.8306,-4.8306,-4.8306,-4.8306,-4.8012,-4.7333,-4.5883,-4.4966,-4.4691,-4.4048,-4.3678,-4.3597,-4.3881,-4.4247,-4.4714,-4.4996,-4.5283,-4.5518,-4.397,0.0,-4.2989,-4.1373,-4.065,-4.0496,-4.0496,-4.0496,-4.0496,-4.0496,-4.0496,-4.0496,-4.0496,-4.0496,-4.0496,-4.0496,-4.0496,-4.0496,-4.0496,-4.0496,-4.0496,-4.0496,-4.0496,-4.0496,-4.0496,-4.0496,-4.0496,-4.0496,-4.0504,-4.0531,-4.058,-3.9499,-3.8247,-3.7314,-3.6296,-3.5612,-3.5684,-3.6361,-3.6961,-3.7096,-3.7,-3.6961,-3.7116,-3.6284,-3.5704,-3.5704,-3.5704,-3.5704,-3.5704,-3.5704,-3.5704,-3.5704,-3.5596,-3.5534,-3.5534,-3.5423,-3.536,-3.5345,-3.5326,-3.5311,-3.5308,-3.5308,-3.5235,-3.5138,-3.5243,-3.5179,-3.5656,-3.5817,-3.6018,-3.5828,-3.6042,-3.6611,-3.7806,-3.8082,-3.8513,-4.0008,-4.0946,-4.1826,-4.2982,-4.3793,-4.4691,-4.5855,-4.5983,-4.5983,-4.6017,-4.623,-4.6508,-4.687,-4.7133,-4.7545,-4.823,-4.8306,-4.8306,-4.8306,-4.7901,-4.7681,-4.7681,-4.7278,-4.6691,-4.5883,-4.5095,-4.4507,-4.4085,-4.3681,-4.3515,-4.3496,-4.3712,-4.4008,-4.4397,-4.4739,-4.4827,-4.4652,-4.3562,0.0,-4.2316,-4.1035,-4.0496,-4.0496,-4.0496,-4.0496,-4.0496,-4.0496,-4.0496,-4.0496,-4.0496,-4.0496,-4.0496,-4.0496,-4.0496,-4.0496,-4.0496,-4.0496,-4.0496,-4.0496,-4.0496,-4.0496,-4.0496,-4.0496,-4.0496,-4.0496,-4.0189,-3.9996,-4.0442,-3.8878,-3.7397,-3.745,-3.644,-3.5571,-3.5637,-3.6339,-3.6905,-3.6897,-3.6903,-3.6903,-3.6903,-3.6147,-3.5614,-3.5684,-3.5704,-3.5704,-3.5704,-3.5704,-3.5668,-3.5602,-3.5534,-3.5463,-3.5402,-3.5319,-3.5278,-3.5195,-3.5195,-3.5163,-3.5096,-3.5096,-3.5062,-3.5,-3.5062,-3.5018,-3.7152,-3.7055,-3.6958,-3.6638,-3.6492,-3.6828,-3.8386,-3.8644,-3.9048,-4.0584,-4.136,-4.2068,-4.3017,-4.3672,-4.457,-4.6096,-4.5949,-4.5864,-4.6428,-4.6471,-4.6588,-4.6999,-4.7378,-4.7795,-4.8249,-4.8306,-4.8306,-4.8306,-4.7388,-4.6837,-4.6837,-4.6085,-4.5351,-4.4709,-4.4544,-4.414,-4.3515,-4.3515,-4.3515,-4.3515,-4.3548,-4.3777,-4.4158,-4.425,-4.4144,-4.3843,-4.3061,0.0,0.0,-4.0846,-4.0473,-4.0449,-4.0481,-4.0496,-4.0496,-4.0496,-4.0496,-4.0496,-4.0496,-4.0496,-4.0496,-4.0496,-4.0496,-4.0496,-4.0496,-4.0496,-4.0496,-4.0496,-4.0496,-4.0496,-4.0496,-4.0496,-4.0496,-4.0496,-4.0015,-3.9688,-4.015,-3.8661,-3.7341,-3.7685,-3.6677,-3.5798,-3.5853,-3.6445,-3.6895,-3.6862,-3.6868,-3.681,-3.6574,-3.5907,-3.5502,-3.5602,-3.5608,-3.5608,-3.5608,-3.5608,-3.5578,-3.5457,-3.543,-3.5374,-3.5258,-3.5227,-3.5163,-3.5062,-3.5062,-3.5,-3.4908,-3.4908,-3.4908,-3.4908,-3.4908,-3.4908,-3.7632,-3.7487,-3.745,-3.7414,-3.7132,-3.7261,-3.88,-3.8868,-3.9048,-4.0584,-4.0963,-4.1447,-4.293,-4.3258,-4.3793,-4.5259,-4.6052,-4.6411,-4.6273,-4.6793,-4.7291,-4.7493,-4.7569,-4.7795,-4.8249,-4.8306,-4.8306,-4.8306,-4.6874,-4.6012,-4.6012,-4.5259,-4.4764,-4.4691,-4.3993,-4.357,-4.3515,-4.3515,-4.3515,-4.3515,-4.3515,-4.3695,-4.3979,-4.3293,-4.3282,-4.3713,-4.2152,-4.1447,0.0,-4.0751,-4.0381,-4.0251,-4.0433,-4.0496,-4.0496,-4.0496,-4.0496,-4.0496,-4.0496,-4.0496,-4.0496,-4.0496,-4.0496,-4.0496,-4.0496,-4.0496,-4.0496,-4.0496,-4.0496,-4.0496,-4.0496,-4.0496,-4.0496,-4.0496,-4.0439,-4.0208,-3.9554,-3.9227,-3.8638,-3.7184,-3.6786,-3.6684,-3.6698,-3.6813,-3.6864,-3.6734,-3.6774,-3.6471,-3.5571,-3.5369,-3.5311,-3.5338,-3.5345,-3.5345,-3.5345,-3.5345,-3.5338,-3.533,-3.5203,-3.513,-3.5122,-3.5,-3.4926,-3.4927,-3.4927,-3.4898,-3.4908,-3.4908,-3.4908,-3.4908,-3.4908,-3.4908,-3.8064,-3.7946,-3.786,-3.7578,-3.7395,-3.7596,-3.8886,-3.9066,-3.9325,-4.0631,-4.1257,-4.1912,-4.3,-4.3552,-4.4207,-4.5225,-4.5656,-4.5821,-4.5727,-4.625,-4.6771,-4.7129,-4.7421,-4.7795,-4.8249,-4.8306,-4.8104,-4.7608,-4.6544,-4.5681,-4.5204,-4.4415,-4.3975,-4.3975,-4.3663,-4.3515,-4.3515,-4.3515,-4.3515,-4.3515,-4.3515,-4.358,-4.374,-4.3084,-4.2688,-4.2486,-4.1518,-4.084,0.0,-4.0166,-4.0033,-3.9983,-4.0223,-4.0321,-4.033,-4.0457,-4.0496,-4.0496,-4.0496,-4.0496,-4.0496,-4.0496,-4.0496,-4.0496,-4.0496,-4.0496,-4.0496,-4.0496,-4.0496,-4.0496,-4.0496,-4.0496,-4.0496,-4.0496,-4.0131,-3.9823,-3.9996,-3.9103,-3.8235,-3.8098,-3.7154,-3.6551,-3.7082,-3.6359,-3.5859,-3.6334,-3.6036,-3.5626,-3.5219,-3.5176,-3.5179,-3.5179,-3.5243,-3.5308,-3.5308,-3.5308,-3.5278,-3.5179,-3.513,-3.5062,-3.4982,-3.4917,-3.4908,-3.4908,-3.4908,-3.4908,-3.4908,-3.4908,-3.4908,-3.4908,-3.4908,-3.4908,-3.8797,-3.8574,-3.8279,-3.7929,-3.7935,-3.8275,-3.9164,-3.9576,-4.007,-4.1203,-4.1851,-4.2528,-4.3534,-4.4033,-4.4552,-4.5276,-4.5397,-4.545,-4.5615,-4.5955,-4.6363,-4.684,-4.716,-4.7527,-4.8035,-4.8229,-4.7884,-4.6819,-4.6214,-4.5443,-4.4397,-4.3809,-4.3515,-4.3515,-4.3515,-4.3515,-4.3515,-4.3515,-4.3515,-4.3515,-4.3515,-4.3513,-4.3545,-4.2699,-4.2062,-4.1642,-4.0848,-4.016,0.0,-3.9742,-3.9765,-3.9739,-3.9973,-4.0072,-4.0101,-4.0339,-4.0397,-4.0425,-4.0481,-4.0496,-4.0496,-4.0496,-4.0496,-4.0496,-4.0496,-4.0496,-4.0496,-4.0496,-4.0496,-4.0496,-4.0496,-4.0457,-4.0397,-4.0397,-3.9915,-3.9604,-4.0168,-3.923,-3.8299,-3.8404,-3.7357,-3.6566,-3.6956,-3.6046,-3.5476,-3.6036,-3.5702,-3.5271,-3.5044,-3.5018,-3.5009,-3.5035,-3.513,-3.5179,-3.5179,-3.5179,-3.5138,-3.5044,-3.5044,-3.5,-3.4889,-3.4908,-3.4908,-3.4908,-3.4908,-3.4908,-3.4908,-3.4908,-3.4908,-3.4908,-3.4908,-3.4908,-3.9871,-3.9441,-3.8777,-3.8723,-3.9002,-3.9372,-3.972,-4.0465,-4.1383,-4.2458,-4.2693,-4.3161,-4.4694,-4.4612,-4.4552,-4.5276,-4.5397,-4.5589,-4.6112,-4.6186,-4.6363,-4.684,-4.6776,-4.6959,-4.7548,-4.8035,-4.7645,-4.603,-4.5902,-4.5204,-4.3606,-4.3515,-4.3515,-4.3515,-4.3515,-4.3515,-4.3515,-4.3515,-4.3515,-4.3515,-4.3515,-4.3515,-4.346,-4.1846,-4.1298,-4.1524,-3.9981,-3.9337,0.0,-3.9694,-3.9683,-3.952,-3.9739,-3.9808,-3.9829,-4.0091,-4.0205,-4.0233,-4.0441,-4.0496,-4.0496,-4.0496,-4.0496,-4.0496,-4.0496,-4.0496,-4.0496,-4.0496,-4.0496,-4.0496,-4.0496,-4.0347,-4.0205,-4.0205,-3.9993,-3.9789,-3.9808,-3.9789,-3.9296,-3.7637,-3.7296,-3.703,-3.6254,-3.615,-3.6131,-3.602,-3.6003,-3.571,-3.4903,-3.4798,-3.4839,-3.4879,-3.4889,-3.4898,-3.4898,-3.4898,-3.4889,-3.4889,-3.4889,-3.4889,-3.4908,-3.4908,-3.4908,-3.4908,-3.4908,-3.4908,-3.4908,-3.4908,-3.4908,-3.4908,-3.4908,-3.4908,-4.0126,-4.0344,-4.0489,-4.0433,-4.0474,-4.0625,-4.0961,-4.1229,-4.1763,-4.2935,-4.3592,-4.4134,-4.4853,-4.5327,-4.5533,-4.5424,-4.5397,-4.5476,-4.5641,-4.598,-4.6259,-4.6411,-4.6959,-4.7381,-4.7591,-4.8015,-4.7865,-4.6801,-4.6214,-4.5443,-4.4378,-4.3791,-4.3515,-4.3515,-4.3515,-4.3515,-4.3515,-4.3515,-4.3515,-4.3515,-4.3515,-4.3221,-4.2635,-4.1572,-4.0864,-4.0379,-3.9398,-3.9007,0.0,-3.9205,-3.924,-3.9259,-3.9489,-3.9597,-3.9621,-3.9848,-3.9932,-3.9943,-4.0013,-4.0014,-4.0014,-4.0014,-4.0014,-4.0014,-4.0014,-4.0148,-4.0295,-4.0295,-4.0157,-4.0062,-4.0241,-4.011,-3.9932,-3.9932,-3.9861,-3.9808,-3.9808,-3.9271,-3.8629,-3.809,-3.6937,-3.6164,-3.6463,-3.5588,-3.5015,-3.5586,-3.5225,-3.4813,-3.4566,-3.4612,-3.4676,-3.4689,-3.478,-3.4849,-3.4898,-3.4908,-3.4908,-3.4908,-3.4908,-3.4908,-3.4908,-3.4908,-3.4908,-3.4908,-3.4908,-3.4908,-3.4908,-3.4908,-3.4908,-3.4908,-3.4908,-3.4908,-4.1197,-4.1255,-4.1345,-4.1235,-4.1395,-4.1577,-4.1597,-4.196,-4.2577,-4.3494,-4.3877,-4.4284,-4.5092,-4.5372,-4.5455,-4.5398,-4.5397,-4.5397,-4.5397,-4.5693,-4.5938,-4.6052,-4.6986,-4.7464,-4.7111,-4.7539,-4.7388,-4.6269,-4.5736,-4.5094,-4.4287,-4.3754,-4.3515,-4.3515,-4.3515,-4.3515,-4.3515,-4.3515,-4.3349,-4.3039,-4.3039,-4.2635,-4.1827,-4.102,-4.0377,-3.9861,-3.9111,0.0,0.0,-3.8964,-3.905,-3.9129,-3.9285,-3.935,-3.9389,-3.9602,-3.9683,-3.9705,-3.9775,-3.9808,-3.9808,-3.9808,-3.9808,-3.9786,-3.9717,-3.9859,-4.0052,-4.0052,-3.9932,-3.984,-4.0012,-3.987,-3.9683,-3.9683,-3.9614,-3.9543,-3.9543,-3.8801,-3.8053,-3.7754,-3.651,-3.5547,-3.572,-3.4884,-3.4383,-3.4934,-3.4623,-3.434,-3.4386,-3.4473,-3.4539,-3.4583,-3.4666,-3.4739,-3.4791,-3.486,-3.4908,-3.4908,-3.4908,-3.4908,-3.4908,-3.4908,-3.4908,-3.4908,-3.4908,-3.4908,-3.4908,-3.4908,-3.4908,-3.4908,-3.4908,-3.4908,0.0,-4.2245,-4.1628,-4.1435,-4.1938,-4.234,-4.1851,-4.2648,0.0,-4.4067,-4.3744,-4.3882,-4.5471,-4.4992,-4.4612,-4.5338,-4.5423,-4.538,-4.5328,-4.5276,-4.5364,-4.5711,-4.6722,-4.7036,-4.6149,-4.6602,-4.6323,-4.4765,-4.4637,-4.4271,-4.3499,-4.3463,-4.3462,-4.3515,-4.3515,-4.3515,-4.3515,-4.3441,-4.3039,-4.2304,-4.2249,-4.1791,-4.0985,-4.023,-3.9863,0.0,0.0,0.0,0.0,-3.8983,-3.9036,-3.9101,-3.9101,-3.9101,-3.9142,-3.9389,-3.9458,-3.9495,-3.9694,-3.9754,-3.9754,-3.9754,-3.9754,-3.9709,-3.9532,-3.9621,-3.9775,-3.9775,-3.9765,-3.9754,-3.9775,-3.9632,-3.9458,-3.9458,-3.9285,-3.9082,-3.9027,-3.8377,-3.7578,-3.6848,-3.6049,-3.525,-3.442,-3.429,-3.4271,-3.4197,-3.4197,-3.4245,-3.4363,-3.4393,-3.442,-3.455,-3.4572,-3.4591,-3.4591,-3.4771,-3.487,-3.4898,-3.4898,-3.4898,-3.4908,-3.4908,-3.4908,-3.4908,-3.4908,-3.4908,-3.4898,-3.4898,-3.4898,-3.4898,-3.4898,-3.4898,-4.3766,0.0,-4.3325,-4.3275,-4.3291,-4.327,0.0,-4.3315,-4.37,-4.44,-4.4455,-4.4761,-4.6021,-4.5757,-4.55,-4.594,-4.5667,-4.519,-4.463,-4.4087,-4.384,-4.4181,-4.4826,-4.5111,-4.4785,-4.5348,-4.5303,-4.4322,-4.3904,-4.3504,-4.305,-4.3032,-4.3178,-4.3479,-4.3515,-4.3515,-4.3515,-4.2892,-4.2488,-4.2286,-4.168,-4.0965,-4.0175,-3.9992,-3.9551,-3.8964,0.0,0.0,-3.891,-3.8925,-3.8993,-3.9101,-3.9101,-3.9101,-3.9115,-3.9165,-3.9192,-3.9192,-3.924,-3.9266,-3.9266,-3.9266,-3.9266,-3.9253,-3.9205,-3.937,-3.9561,-3.9561,-3.9414,-3.9318,-3.9532,-3.9383,-3.9192,-3.9192,-3.9156,-3.8934,-3.8302,-3.7541,-3.6928,-3.6736,-3.6049,-3.5436,-3.5231,-3.5194,-3.4971,-3.429,-3.4197,-3.4209,-3.4245,-3.4245,-3.4257,-3.4293,-3.4393,-3.445,-3.445,-3.4583,-3.4699,-3.4829,-3.481,-3.4849,-3.4908,-3.4908,-3.4908,-3.4908,-3.4908,-3.487,-3.481,-3.481,-3.481,-3.481,-3.481,-3.4849,-4.3439,-4.3974,-4.452,-4.4469,-4.4338,-4.422,-4.4205,-4.3842,-4.3608,-4.4066,-4.3998,-4.4214,-4.5335,-4.5134,-4.5047,-4.5713,-4.5589,-4.5139,-4.4311,-4.3764,-4.3482,-4.3598,-4.412,-4.4292,-4.3831,-4.419,-4.409,-4.3296,-4.2985,-4.2767,-4.2593,-4.2595,-4.2769,-4.3214,-4.2831,-4.2737,-4.2947,-4.2525,-4.1937,-4.1185,-4.0763,-4.0139,-3.935,-3.935,-3.9111,-3.8707,0.0,0.0,-3.8866,-3.8896,-3.8964,-3.9064,-3.9087,-3.9101,-3.9101,-3.9101,-3.9101,-3.9101,-3.9101,-3.9101,-3.9101,-3.9101,-3.9101,-3.9101,-3.9101,-3.9192,-3.9324,-3.9324,-3.9205,-3.9124,-3.9285,-3.9205,-3.9101,-3.9101,-3.8822,-3.8432,-3.7986,-3.7262,-3.6699,-3.6699,-3.6346,-3.5937,-3.5566,-3.551,-3.5213,-3.4327,-3.4197,-3.4197,-3.4197,-3.4197,-3.4197,-3.4197,-3.4257,-3.4305,-3.4305,-3.4363,-3.4495,-3.4706,-3.4716,-3.4728,-3.4761,-3.4811,-3.486,-3.4908,-3.486,-3.483,-3.4798,-3.4747,-3.4655,-3.4561,-3.4561,-3.4513,-4.27,-4.4023,-4.5233,-4.4985,-4.4977,-4.4967,-4.4773,-4.4098,-4.3496,-4.3496,-4.3196,-4.3255,-4.4392,-4.4155,-4.4152,-4.5174,-4.507,-4.4613,-4.3872,-4.3499,-4.3219,-4.3082,-4.359,-4.3681,-4.2981,-4.3035,-4.2828,-4.2148,-4.2032,-4.2032,-4.2095,-4.1988,-4.2139,-4.2606,-4.1849,-4.156,-4.1835,-4.1886,-4.124,-3.99,-3.9772,-3.935,-3.8707,-3.8707,-3.8707,-3.8707,0.0,0.0,-3.8807,-3.8862,-3.8935,-3.9007,-3.9073,-3.9101,-3.9101,-3.9101,-3.9101,-3.9101,-3.9101,-3.9101,-3.9101,-3.9101,-3.9101,-3.9101,-3.9101,-3.9101,-3.9101,-3.9101,-3.9101,-3.9064,-3.8952,-3.8915,-3.8915,-3.8915,-3.8302,-3.7708,-3.7708,-3.7076,-3.6532,-3.6532,-3.6532,-3.6309,-3.5621,-3.551,-3.5213,-3.4327,-3.4197,-3.4197,-3.4197,-3.4197,-3.4197,-3.4197,-3.4197,-3.4197,-3.4197,-3.4197,-3.4293,-3.4517,-3.455,-3.4591,-3.4602,-3.4716,-3.479,-3.4841,-3.48,-3.4747,-3.4687,-3.4612,-3.445,-3.4203,-3.4257,-3.4136,-4.27,-4.4023,-4.5119,-4.4361,-4.4615,-4.4885,-4.4136,-4.3778,-4.3565,-4.3496,-4.3196,-4.3352,-4.4807,-4.4378,-4.4079,-4.4931,-4.3642,-4.2475,-4.2329,-4.1747,-4.1287,-4.1144,-4.1614,-4.1842,-4.1612,-4.1697,-4.1728,-4.1622,-4.1283,-4.1255,-4.1583,-4.1028,-4.0887,-4.1354,-4.0906,-4.0382,-3.978,-4.0101,-4.0139,-3.9882,-3.9203,-3.8817,-3.8707,-3.8707,-3.8707,-3.8707,0.0,-3.8735,-3.8807,-3.8862,-3.8935,-3.9007,-3.9073,-3.9101,-3.9101,-3.9101,-3.9101,-3.9101,-3.9101,-3.9101,-3.9101,-3.9101,-3.9101,-3.9101,-3.9101,-3.9101,-3.9101,-3.9101,-3.9101,-3.8934,-3.8265,-3.8079,-3.8079,-3.8079,-3.7466,-3.6885,-3.6885,-3.6253,-3.5677,-3.5677,-3.5677,-3.564,-3.5529,-3.551,-3.5213,-3.4327,-3.4197,-3.4197,-3.4197,-3.4197,-3.4197,-3.4197,-3.4197,-3.4197,-3.4197,-3.4197,-3.4221,-3.4257,-3.4381,-3.4484,-3.4602,-3.4623,-3.4645,-3.4655,-3.4645,-3.4495,-3.4209,-3.4351,-3.4215,-3.3795,-3.4012,-3.4049,-4.1531,-4.2768,-4.3949,-4.3986,-4.524,-4.6231,-4.5347,-4.4712,-4.4169,-4.3658,-4.3214,-4.3294,-4.4581,-4.393,-4.3384,-4.3931,-4.2871,-4.1967,-4.1894,-4.1257,-4.0721,-4.0502,-4.0782,-4.0913,-4.0754,-4.089,-4.096,-4.096,-4.0806,-4.0586,-4.0389,-4.0094,-3.994,-4.0029,-3.9491,-3.9245,-3.9296,-3.9049,-3.9047,-3.9239,-3.8891,-3.8707,-3.8707,-3.8707,-3.8707,-3.8707,0.0,-3.8723,-3.875,-3.8822,-3.8896,-3.895,-3.9021,-3.9059,-3.9101,-3.9101,-3.9101,-3.9101,-3.9101,-3.9101,-3.9101,-3.9101,-3.9101,-3.9101,-3.9101,-3.9101,-3.9101,-3.9101,-3.9101,-3.9008,-3.8637,-3.8544,-3.8432,-3.7986,-3.7281,-3.6588,-3.616,-3.577,-3.551,-3.551,-3.5863,-3.6012,-3.5566,-3.551,-3.5213,-3.4327,-3.4197,-3.4364,-3.4829,-3.4494,-3.4383,-3.486,-3.4476,-3.4197,-3.4197,-3.4197,-3.4197,-3.4197,-3.4257,-3.4351,-3.4484,-3.4495,-3.4528,-3.4602,-3.4528,-3.4351,-3.4099,-3.4124,-3.3902,-3.3429,-3.3564,-3.3518,-4.0541,-4.1595,-4.2705,-4.3522,-4.5257,-4.6691,-4.636,-4.5463,-4.4514,-4.4021,-4.3452,-4.3284,-4.4075,-4.3301,-4.262,-4.2884,-4.2258,-4.1709,-4.1611,-4.1106,-4.0673,-4.0461,-4.051,-4.051,-4.0404,-4.0307,-4.0253,-4.0253,-4.0082,-3.9741,-3.9183,-3.9054,-3.8905,-3.8715,-3.8152,-3.8111,-3.8726,-3.822,-3.8219,-3.8707,-3.8707,-3.8707,-3.8707,-3.8707,-3.8707,-3.8707,-3.8707,-3.8707,-3.8707,-3.8762,-3.8851,-3.891,-3.8964,-3.9036,-3.9073,-3.9101,-3.9087,-3.9073,-3.9101,-3.9101,-3.9101,-3.9101,-3.9101,-3.9101,-3.9101,-3.9101,-3.9101,-3.9101,-3.9101,-3.9064,-3.8859,-3.8822,-3.8655,-3.8042,-3.7132,-3.6309,-3.5882,-3.5473,-3.5213,-3.5213,-3.5863,-3.6216,-3.5621,-3.5659,-3.5547,-3.4884,-3.4791,-3.5027,-3.5696,-3.5213,-3.5033,-3.5714,-3.5182,-3.4791,-3.4791,-3.4606,-3.4494,-3.4494,-3.4309,-3.4245,-3.434,-3.4351,-3.4386,-3.4506,-3.4416,-3.4233,-3.3985,-3.3921,-3.362,-3.3129,-3.3175,-3.3083,-4.0541,-4.1185,-4.1869,-4.2686,-4.3578,-4.4623,-4.5988,-4.5084,-4.4128,-4.4699,-4.4086,-4.3455,-4.3411,-4.2642,-4.2058,-4.2085,-4.1464,-4.0981,-4.0957,-4.0922,-4.0888,-4.0864,-4.0769,-4.0673,-4.0673,-3.9942,-3.9484,-3.9484,-3.8852,-3.8471,-3.8465,-3.7835,-3.7507,-3.7603,-3.7205,-3.7007,-3.7068,-3.7376,-3.793,-3.8707,-3.8707,-3.8707,-3.8707,-3.8707,-3.8707,-3.8707,-3.8707,-3.8707,-3.8707,-3.8762,-3.8851,-3.891,-3.8964,-3.8993,-3.9007,-3.9073,-3.9045,-3.9007,-3.9073,-3.9101,-3.9101,-3.9101,-3.9101,-3.9101,-3.9101,-3.9101,-3.9101,-3.9101,-3.9101,-3.8934,-3.8172,-3.7986,-3.7968,-3.7912,-3.6705,-3.5789,-3.6458,-3.5386,-3.429,-3.429,-3.4977,-3.5566,-3.551,-3.6123,-3.6588,-3.6519,-3.6532,-3.6551,-3.6606,-3.6569,-3.6551,-3.6606,-3.6569,-3.6532,-3.6532,-3.5844,-3.5417,-3.5417,-3.4643,-3.4209,-3.4209,-3.4209,-3.4221,-3.4233,-3.4221,-3.4023,-3.3647,-3.3802,-3.355,-3.2932,-3.3114,-3.3083,-4.0083,-4.0495,-4.1163,-4.2463,-4.2277,-4.2463,-4.5087,-4.5134,-4.4716,-4.4915,-4.3777,-4.257,-4.1911,-4.1129,-4.056,-4.056,-3.9939,-3.9479,-3.9479,-3.9479,-3.9411,-3.9232,-3.9179,-3.9084,-3.8976,-3.8649,-3.8455,-3.8455,-3.8201,-3.7851,-3.7427,-3.7274,-3.6987,-3.6573,-3.6544,-3.6638,-3.69,-3.7055,-3.7414,-3.7948,-3.8219,-3.8467,-3.8707,-3.8707,-3.8707,-3.8707,-3.8707,-3.8707,-3.8707,-3.8719,-3.878,-3.8833,-3.8925,-3.895,-3.8993,-3.8979,-3.8979,-3.8993,-3.9036,-3.9078,-3.9101,-3.9101,-3.9101,-3.9101,-3.9101,-3.9101,-3.9101,-3.9101,-3.9101,-3.9027,-3.8729,-3.8284,-3.7764,-3.7262,-3.6309,-3.5436,-3.52,-3.4643,-3.4364,-3.4903,-3.5268,-3.5659,-3.616,-3.6513,-3.6699,-3.6699,-3.6699,-3.6885,-3.7373,-3.7015,-3.6904,-3.7392,-3.7002,-3.6699,-3.6699,-3.642,-3.5948,-3.528,-3.46,-3.4197,-3.4197,-3.4086,-3.4011,-3.4011,-3.3881,-3.3666,-3.3339,-3.3441,-3.328,-3.29,-3.2977,-3.2961,-4.0214,-4.0303,-4.0661,-4.1757,-4.12,-4.1066,-4.3559,-4.4255,-4.4432,-4.4609,-4.3214,-4.1706,-4.0889,-3.9986,-3.9353,-3.9353,-3.8922,-3.8594,-3.8594,-3.8594,-3.8532,-3.8351,-3.8259,-3.8161,-3.8007,-3.7733,-3.755,-3.755,-3.733,-3.6958,-3.6519,-3.665,-3.6544,-3.6075,-3.6233,-3.643,-3.6719,-3.6719,-3.6919,-3.7303,-3.7596,-3.8,-3.8515,-3.8643,-3.8707,-3.8707,-3.8707,-3.8707,-3.8707,-3.8707,-3.8735,-3.8807,-3.8862,-3.8925,-3.8921,-3.8925,-3.8925,-3.8935,-3.8997,-3.9036,-3.9073,-3.9087,-3.9101,-3.9101,-3.9073,-3.9073,-3.9101,-3.9073,-3.9073,-3.9045,-3.8785,-3.8302,-3.7689,-3.6904,-3.6086,-3.5417,-3.5064,-3.4791,-3.4847,-3.5714,-3.6086,-3.6439,-3.6978,-3.7281,-3.7448,-3.7448,-3.7448,-3.7652,-3.8209,-3.7747,-3.7549,-3.8001,-3.7576,-3.7244,-3.7244,-3.6985,-3.651,-3.5785,-3.486,-3.4238,-3.4011,-3.3868,-3.382,-3.382,-3.3671,-3.3473,-3.3205,-3.3205,-3.3101,-3.29,-3.29,-3.29,-4.1094,-4.0754,-4.0397,-4.0416,-4.0383,-4.0587,-4.1404,-4.2203,-4.299,-4.3728,-4.2431,-4.1024,-4.0482,-3.9395,-3.8599,-3.8599,-3.8577,-3.8577,-3.8577,-3.8577,-3.8577,-3.8577,-3.8334,-3.8196,-3.8196,-3.7341,-3.6795,-3.6795,-3.6045,-3.5667,-3.5795,-3.5927,-3.6058,-3.6187,-3.6255,-3.6301,-3.6301,-3.6301,-3.6512,-3.69,-3.69,-3.7321,-3.8118,-3.8515,-3.8692,-3.8707,-3.8707,-3.8707,-3.8707,-3.8707,-3.8735,-3.8807,-3.8862,-3.8866,-3.8807,-3.8862,-3.8866,-3.8822,-3.895,-3.8993,-3.9007,-3.9073,-3.9101,-3.9087,-3.9021,-3.905,-3.9087,-3.9021,-3.9031,-3.8897,-3.8098,-3.7894,-3.7689,-3.6904,-3.6086,-3.5714,-3.6532,-3.6067,-3.5751,-3.6569,-3.7336,-3.7894,-3.7912,-3.8562,-3.9101,-3.9101,-3.9101,-3.9101,-3.9101,-3.8921,-3.8698,-3.843,-3.8399,-3.8399,-3.8399,-3.7617,-3.7109,-3.7109,-3.5581,-3.4393,-3.3642,-3.3605,-3.3605,-3.3605,-3.3587,-3.3459,-3.3205,-3.3205,-3.3083,-3.29,-3.29,-3.29,-4.039,-3.9986,-3.9861,-4.0291,-3.9937,-3.9714,-4.055,-4.1367,-4.1908,-4.1746,-4.0772,-3.9878,-3.9673,-3.8397,-3.7488,-3.778,-3.7335,-3.6973,-3.6973,-3.6973,-3.6969,-3.6922,-3.6835,-3.6769,-3.6664,-3.641,-3.6185,-3.6112,-3.5886,-3.5728,-3.5667,-3.5795,-3.5883,-3.5927,-3.6122,-3.6229,-3.6229,-3.6276,-3.6364,-3.6492,-3.6761,-3.7321,-3.8101,-3.8219,-3.8417,-3.8707,-3.8707,-3.8707,-3.8707,-3.8707,-3.8735,-3.8807,-3.878,-3.878,-3.8792,-3.878,-3.878,-3.8807,-3.8851,-3.8925,-3.8993,-3.9021,-3.9059,-3.9087,-3.9021,-3.9007,-3.9021,-3.8935,-3.8571,-3.7998,-3.7201,-3.7018,-3.7002,-3.6773,-3.6086,-3.5714,-3.6532,-3.6513,-3.6588,-3.7392,-3.7745,-3.8079,-3.8655,-3.8934,-3.9101,-3.9101,-3.9101,-3.9045,-3.8906,-3.8664,-3.8496,-3.8399,-3.8399,-3.8399,-3.8399,-3.8145,-3.7699,-3.6942,-3.5912,-3.5048,-3.4397,-3.3687,-3.3309,-3.3309,-3.3178,-3.307,-3.2993,-3.2993,-3.2945,-3.29,-3.29,-3.29,-4.1407,-4.0894,-4.0558,-4.0803,-3.9974,-3.9231,-3.9751,-4.0531,-4.1108,-4.1077,-4.0163,-3.93,-3.9119,-3.7862,-3.687,-3.7003,-3.6611,-3.6301,-3.6301,-3.6301,-3.628,-3.6233,-3.6208,-3.6182,-3.6101,-3.6019,-3.5954,-3.5883,-3.5883,-3.5839,-3.5706,-3.5817,-3.5861,-3.5795,-3.6058,-3.6204,-3.6204,-3.6276,-3.6301,-3.6301,-3.6553,-3.6997,-3.7632,-3.7948,-3.8236,-3.8467,-3.8627,-3.8707,-3.8707,-3.8707,-3.8719,-3.8765,-3.8723,-3.8719,-3.8765,-3.8704,-3.8738,-3.8762,-3.8792,-3.8848,-3.8921,-3.8935,-3.8993,-3.9021,-3.8935,-3.8935,-3.8954,-3.8881,-3.8588,-3.8012,-3.6901,-3.6893,-3.7021,-3.6383,-3.6105,-3.6197,-3.7002,-3.7169,-3.7411,-3.8209,-3.8377,-3.8525,-3.9027,-3.9101,-3.9101,-3.9101,-3.9031,-3.8859,-3.8525,-3.8334,-3.8203,-3.8086,-3.8086,-3.8086,-3.8086,-3.8086,-3.7819,-3.7162,-3.6066,-3.5287,-3.4909,-3.3738,-3.3086,-3.3086,-3.2945,-3.29,-3.29,-3.29,-3.29,-3.29,-3.29,-3.29,-4.3183,-4.256,-4.1755,-4.1572,-4.03,-3.9101,-3.9101,-3.9714,-4.0461,-4.1149,-4.0217,-3.9169,-3.8834,-3.7685,-3.6687,-3.6426,-3.6343,-3.6301,-3.6301,-3.6301,-3.6301,-3.6301,-3.6251,-3.6208,-3.6208,-3.6101,-3.6019,-3.6019,-3.6019,-3.5971,-3.5817,-3.5932,-3.5932,-3.5795,-3.6036,-3.6182,-3.6182,-3.6255,-3.6301,-3.6301,-3.6301,-3.6492,-3.686,-3.7632,-3.8034,-3.8118,-3.8515,-3.8707,-3.8707,-3.8707,-3.8707,-3.8707,-3.8707,-3.8707,-3.8707,-3.8707,-3.8707,-3.8707,-3.8762,-3.8792,-3.8822,-3.8881,-3.891,-3.8896,-3.8822,-3.8833,-3.8881,-3.8807,-3.884,-3.8553,-3.7059,-3.7288,-3.7522,-3.6055,-3.6278,-3.7021,-3.7838,-3.8005,-3.8228,-3.8952,-3.9101,-3.9101,-3.9101,-3.9087,-3.9059,-3.9045,-3.8859,-3.8559,-3.8069,-3.7984,-3.7862,-3.7631,-3.7595,-3.7595,-3.7595,-3.7595,-3.7595,-3.7595,-3.6167,-3.5311,-3.5311,-3.3758,-3.29,-3.29,-3.29,-3.29,-3.29,-3.29,-3.29,-3.29,-3.29,-3.29,-4.1876,-4.1081,-4.0393,-4.0848,-4.0018,-3.9101,-3.9101,-3.925,-3.9417,-3.9588,-3.932,-3.8949,-3.8563,-3.7898,-3.7284,-3.6921,-3.6536,-3.6301,-3.6301,-3.6301,-3.6301,-3.6301,-3.628,-3.628,-3.628,-3.6259,-3.6195,-3.6165,-3.6144,-3.6101,-3.5954,-3.5975,-3.5932,-3.5795,-3.5971,-3.6041,-3.6041,-3.6165,-3.6251,0.0,-3.6301,-3.6364,-3.6451,-3.6939,-3.7505,-3.8118,-3.8515,-3.8707,-3.8707,-3.8707,-3.8707,-3.8707,-3.8707,-3.8707,-3.8707,-3.8707,-3.8707,-3.8707,-3.8723,-3.8765,-3.8807,-3.8822,-3.8866,-3.8896,-3.8822,-3.8822,-3.8807,-3.8735,-3.832,-3.7819,-3.7473,-3.759,-3.7724,-3.7391,-3.7482,-3.7856,-3.8674,-3.8841,-3.8897,-3.9064,-3.9101,-3.9101,-3.9101,-3.8979,-3.8803,-3.8588,-3.8316,-3.8136,-3.8018,-3.7828,-3.7667,-3.7613,-3.7595,-3.7595,-3.7595,-3.7595,-3.7595,-3.7595,-3.6684,-3.6131,-3.6131,-3.406,-3.29,-3.29,-3.29,-3.29,-3.29,-3.29,-3.29,-3.29,-3.29,-3.29,-4.1982,-4.1321,-4.049,-4.0244,-3.9629,-3.9008,-3.8599,-3.8525,-3.8414,-3.8024,-3.8123,-3.8081,-3.7372,-3.7131,-3.6916,-3.6624,-3.6531,-3.6502,-3.6502,-3.6381,-3.6301,-3.6301,-3.6301,-3.6301,-3.6301,-3.6301,-3.628,-3.6255,-3.6251,-3.6191,-3.6101,-3.6101,-3.6019,-3.5905,-3.5954,-3.5997,-3.5997,-3.6122,-3.6208,-3.6255,-3.628,-3.6301,-3.6322,-3.6719,-3.7339,-3.8118,-3.8318,-3.8515,-3.8707,-3.8707,-3.8707,-3.8707,-3.8707,-3.8707,-3.8707,-3.8707,-3.8707,-3.8707,-3.8707,-3.8719,-3.875,-3.875,-3.878,-3.881,-3.8765,-3.875,-3.875,-3.8723,-3.8456,-3.8088,-3.7687,-3.7958,-3.8229,-3.7826,-3.8127,-3.8581,-3.9008,-3.9101,-3.9073,-3.8979,-3.8964,-3.8935,-3.88,-3.868,-3.8528,-3.8252,-3.8086,-3.7949,-3.7828,-3.7685,-3.7595,-3.7595,-3.7595,-3.7595,-3.7595,-3.7595,-3.7595,-3.7595,-3.6827,-3.6399,-3.6399,-3.4508,-3.3473,-3.3473,-3.3096,-3.29,-3.29,-3.29,-3.29,-3.29,-3.29,-3.29,-4.2374,-4.1992,-4.1091,-3.9823,-3.9337,-3.8984,-3.826,-3.7986,-3.7671,-3.6872,-3.704,-3.7112,-3.6274,-3.634,-3.6467,-3.6257,-3.6522,-3.6745,-3.6684,-3.6482,-3.6301,-3.6301,-3.6301,-3.6301,-3.6301,-3.6301,-3.6301,-3.6301,-3.6301,-3.6276,-3.6208,-3.6208,-3.6165,-3.6041,-3.6019,-3.6019,-3.6019,-3.6122,-3.6165,-3.6208,-3.6259,-3.6301,-3.6322,-3.6638,-3.7208,-3.7896,-3.8051,-3.8285,-3.8611,-3.8658,-3.8707,-3.8707,-3.8707,-3.8707,-3.8707,-3.8707,-3.8707,-3.8707,-3.8707,-3.8707,-3.8707,-3.8707,-3.8707,-3.8707,-3.8707,-3.8707,-3.867,-3.8524,-3.8624,-3.8593,-3.7783,-3.8228,-3.8696,-3.7956,-3.8389,-3.897,-3.9017,-3.9003,-3.8931,-3.8728,-3.8683,-3.8606,-3.8334,-3.8302,-3.8236,-3.7966,-3.7932,-3.7845,-3.7631,-3.7595,-3.7595,-3.7595,-3.7595,-3.7595,-3.7595,-3.7595,-3.7595,-3.7595,-3.6988,-3.6613,-3.6613,-3.5114,-3.4277,-3.4277,-3.3382,-3.29,-3.29,-3.29,-3.29,-3.29,-3.29,-3.29,-4.1687,-4.1663,-4.1091,-3.9823,-3.9458,-3.9351,-3.9007,-3.8395,-3.7671,-3.6872,-3.6766,-3.6777,-3.6621,-3.6879,-3.7012,-3.6736,-3.6844,-3.6898,-3.6725,-3.6482,-3.6301,-3.6301,-3.6301,-3.6301,-3.6301,-3.6301,-3.6301,-3.6301,-3.6301,-3.6301,-3.628,-3.628,-3.6255,-3.6182,-3.6058,-3.6058,-3.6165,-3.6079,-3.6127,-3.628,-3.6301,-3.6301,-3.6301,-3.6364,-3.6618,-3.7113,-3.7809,-3.8135,-3.8219,-3.8564,-3.8707,-3.8707,-3.8707,-3.8707,-3.8707,-3.8707,-3.8707,-3.8707,-3.8707,-3.8707,-3.8707,-3.8707,-3.8707,-3.8707,-3.8707,-3.8707,-3.856,-3.786,-3.8172,-3.8521,-3.7728,-3.8155,-3.8691,-3.8232,-3.8269,-3.8452,-3.8631,-3.8588,-3.8428,-3.8234,-3.8185,-3.8101,-3.7845,-3.7932,-3.7966,-3.7685,-3.7649,-3.7631,-3.7595,-3.7595,-3.7595,-3.7595,-3.7595,-3.7595,-3.7595,-3.7595,-3.7595,-3.7595,-3.7506,-3.7452,-3.7452,-3.5899,-3.5044,-3.5044,-3.365,-3.29,-3.29,-3.29,-3.29,-3.29,-3.29,-3.29,-4.0969,-4.0903,-4.0597,-4.0026,-3.9679,-3.9346,-3.8783,-3.7901,-3.7002,-3.6197,-3.5627,-3.5293,-3.5293,-3.5707,-3.6117,-3.6471,-3.6585,-3.6788,-3.7208,-3.6831,-3.6523,-3.6523,-3.6402,-3.6301,-3.6301,-3.6301,-3.6301,-3.6301,-3.6301,-3.6301,-3.6301,-3.6301,-3.628,-3.6255,-3.6165,-3.6144,-3.6204,-3.6144,-3.6187,-3.6301,-3.6301,-3.6301,-3.6301,-3.6301,-3.6533,-3.6939,-3.7523,-3.7896,-3.8135,-3.853,-3.8707,-3.8707,-3.8707,-3.8707,-3.8707,-3.8707,-3.8707,-3.8707,-3.8707,-3.8707,-3.8707,-3.8707,-3.8707,-3.8707,-3.8707,-3.8707,-3.8569,-3.8013,-3.8256,-3.8504,-3.77,-3.7945,-3.8316,-3.7894,-3.7755,-3.772,-3.779,-3.7929,-3.7946,-3.7756,-3.7595,-3.7485,-3.7485,-3.7558,-3.7613,-3.7595,-3.7595,-3.7595,-3.7595,-3.7595,-3.7595,-3.7595,-3.7595,-3.7595,-3.7595,-3.7595,-3.7595,-3.7595,-3.7595,-3.7595,-3.7595,-3.6488,-3.5882,-3.5882,-3.3917,-3.29,-3.29,-3.29,-3.29,-3.29,-3.29,-3.29,-4.0439,-4.0381,-4.0269,-4.0214,-3.995,-3.9482,-3.878,-3.7829,-3.6863,-3.5987,-3.5138,-3.4457,-3.4234,-3.4759,-3.544,-3.6177,-3.6424,-3.6789,-3.7596,-3.7164,-3.6763,-3.6702,-3.6523,-3.6364,-3.6301,-3.6301,-3.6301,-3.6301,-3.6301,-3.6301,-3.6301,-3.6301,-3.6301,-3.6301,-3.6229,-3.6225,-3.6229,-3.6229,-3.6255,-3.6301,-3.6301,-3.6301,-3.6301,-3.6301,-3.6471,-3.6761,-3.717,-3.7578,-3.7965,-3.8385,-3.8611,-3.8707,-3.8707,-3.8707,-3.8707,-3.8707,-3.8707,-3.8707,-3.8707,-3.8707,-3.8707,-3.8707,-3.8707,-3.8707,-3.8707,-3.8627,-3.8428,-3.7949,-3.8072,-3.8198,-3.7399,-3.7559,-3.7844,-3.7433,-3.7227,-3.7131,-3.7148,-3.7303,-3.7396,-3.7245,-3.7068,-3.6968,-3.7105,-3.722,-3.7353,-3.7503,-3.7576,-3.7595,-3.7595,-3.7595,-3.7595,-3.7595,-3.754,-3.7503,-3.7503,-3.7503,-3.7503,-3.7503,-3.7576,-3.7595,-3.7595,-3.6827,-3.6399,-3.6399,-3.4472,-3.34,-3.3203,-3.3203,-3.3096,-3.29,-3.29,-3.29,-4.0285,-4.0489,-4.0441,-4.0251,-4.0186,-4.0032,-3.9548,-3.8788,-3.7909,-3.6862,-3.5993,-3.5175,-3.4346,-3.4903,-3.5662,-3.6224,-3.6565,-3.6992,-3.7613,-3.7298,-3.6908,-3.6722,-3.6681,-3.6582,-3.6322,-3.6301,-3.6301,-3.6301,-3.6301,-3.6301,-3.6301,-3.6301,-3.6301,-3.6301,-3.6229,-3.6229,-3.6301,-3.6301,-3.6301,-3.6301,-3.6301,-3.6301,-3.6301,-3.6301,-3.6322,-3.6346,-3.6759,-3.717,-3.756,-3.7983,-3.8352,-3.8707,-3.8707,-3.8707,-3.8707,-3.8707,-3.8707,-3.8707,-3.8707,-3.8707,-3.8707,-3.8707,-3.8707,-3.8707,-3.8707,-3.8417,-3.7973,-3.7178,-3.725,-3.7381,-3.656,-3.6934,-3.7432,-3.7036,-3.6919,-3.6937,-3.7009,-3.6869,-3.6745,-3.6725,-3.6722,-3.6722,-3.6722,-3.7044,-3.7297,-3.7316,-3.7484,-3.7595,-3.7595,-3.7595,-3.7595,-3.7595,-3.7428,-3.7316,-3.7316,-3.7316,-3.7316,-3.7316,-3.7503,-3.7595,-3.7595,-3.6827,-3.6399,-3.6399,-3.5543,-3.4723,-3.4044,-3.4044,-3.3651,-3.29,-3.29,-3.29,-3.8969,-3.9688,-4.0365,-3.9764,-3.9912,-4.0167,-3.9991,-3.909,-3.8188,-3.781,-3.6547,-3.5398,-3.5101,-3.5287,-3.5726,-3.6433,-3.6959,-3.7463,-3.8059,-3.7757,-3.7354,-3.7105,-3.6968,-3.6788,-3.6564,-3.6544,-3.6502,-3.6322,-3.6301,-3.6301,-3.6301,-3.6301,-3.6301,-3.6301,-3.6276,-3.6276,-3.6301,-3.6301,-3.6301,-3.6301,-3.6301,-3.6301,-3.6301,-3.6301,-3.6301,-3.6322,-3.6451,-3.6741,-3.717,-3.7826,-3.8168,-3.8302,-3.8302,-3.8483,-3.8676,-3.8401,-3.8483,-3.8707,-3.8707,-3.8707,-3.8707,-3.8707,-3.8707,-3.8707,-3.8707,-3.8417,-3.7997,-3.7432,-3.7399,-3.7306,-3.6508,-3.6707,-3.7017,-3.6597,-3.6495,-3.6533,-3.655,-3.6506,-3.6444,-3.6444,-3.6444,-3.6502,-3.6664,-3.6806,-3.6965,-3.7085,-3.7182,-3.726,-3.7391,-3.741,-3.741,-3.741,-3.7334,-3.7239,-3.7124,-3.7105,-3.7163,-3.7278,-3.7372,-3.7466,-3.7595,-3.7327,-3.7184,-3.7184,-3.6381,-3.5346,-3.4115,-3.4115,-3.3687,-3.29,-3.29,-3.29,-3.8161,-3.9027,-3.9977,-3.9438,-3.9602,-3.9961,-4.0147,-3.9562,-3.8822,-3.8397,-3.7311,-3.6329,-3.5969,-3.6123,-3.6402,-3.6649,-3.7147,-3.7739,-3.8431,-3.8119,-3.7703,-3.7466,-3.7239,-3.7027,-3.6826,-3.6806,-3.6705,-3.6444,-3.6423,0.0,-3.6301,-3.6301,-3.6301,-3.6301,-3.6301,-3.6301,-3.6301,-3.6301,-3.6301,-3.6301,-3.6301,-3.6301,-3.6301,-3.6301,-3.6301,-3.6301,-3.6301,-3.6533,-3.6958,-3.7632,-3.7965,-3.8101,-3.8101,-3.8252,-3.8451,-3.8051,-3.8152,-3.8499,-3.8499,-3.8596,-3.8707,-3.8707,-3.8707,-3.8707,-3.8707,-3.8417,-3.8017,-3.7614,-3.7414,-3.7133,-3.6471,-3.6512,-3.6638,-3.6346,-3.6301,-3.6301,-3.6301,-3.6301,-3.6301,-3.6301,-3.6301,-3.636,-3.6523,-3.6643,-3.6763,-3.6869,-3.6968,-3.7085,-3.7278,-3.7239,-3.722,-3.7297,-3.7163,-3.7046,-3.6908,-3.6888,-3.6965,-3.7085,-3.7238,-3.7334,-3.7392,-3.7448,-3.7503,-3.7503,-3.6701,-3.5669,-3.4389,-3.4139,-3.3587,-3.2786,-3.2721,-3.2655,0.0,0.0,0.0,-3.9246,-3.9246,-3.9411,-4.0021,-4.0167,-3.9823,-3.861,-3.8324,-3.7977,-3.6937,-3.7355,-3.7634,-3.6866,-3.7198,-3.7834,-3.8678,-3.835,-3.7949,-3.7739,-3.7503,-3.7257,-3.7027,-3.7025,-3.6963,-3.6722,-3.6702,-3.6602,-3.6322,-3.6301,-3.6301,-3.6301,-3.6301,-3.6301,-3.6301,-3.6301,-3.6301,-3.6301,-3.6301,-3.6301,-3.6301,-3.6301,-3.6301,-3.6301,-3.6301,-3.6533,-3.6919,-3.7321,-3.7721,-3.8085,-3.8085,-3.8085,-3.8051,-3.765,-3.7738,-3.8101,-3.8085,-3.8352,-3.8692,-3.8692,-3.8658,-3.8676,-3.8692,-3.8385,-3.7982,-3.7596,-3.7189,-3.6781,-3.6388,-3.6301,-3.6301,-3.6301,-3.6301,-3.6301,-3.6301,-3.6301,-3.6301,-3.6301,-3.6301,-3.6301,-3.6301,-3.6523,-3.6681,-3.6681,-3.6849,-3.7066,-3.7259,-3.7105,-3.7066,-3.7259,-3.6926,-3.6702,-3.6681,-3.6681,-3.6702,-3.6702,-3.7064,-3.7201,-3.7007,-3.7182,-3.7278,-3.7278,-3.6517,-3.5738,-3.5013,-3.4199,-3.3384,-3.2589,-3.2386,-3.2144,-3.6519,0.0,0.0,0.0,0.0,0.0,-3.9376,-3.9395,-3.9281,-3.9378,-3.8799,-3.8146,-3.7662,-3.7745,-3.7819,-3.7596,-3.8173,-3.8701,-3.8785,-3.8667,-3.8415,-3.7966,-3.8384,-3.8293,-3.7312,-3.7733,-3.776,0.0,-3.6786,-3.6681,-3.6602,-3.6402,-3.6301,-3.6301,-3.6301,-3.6301,-3.6301,-3.6301,-3.6301,-3.6301,-3.6301,-3.6301,-3.6301,-3.6301,-3.6301,-3.6301,-3.6301,-3.6346,-3.6512,-3.69,-3.7302,-3.7667,-3.7667,-3.7844,-3.8051,-3.765,-3.7738,-3.8068,-3.7774,-3.793,-3.8269,-3.8269,-3.8068,-3.7896,-3.8186,-3.7773,-3.7208,-3.7113,-3.6779,-3.643,-3.6343,-3.6301,-3.6301,-3.6301,-3.6301,-3.6301,-3.6301,-3.6301,-3.6301,-3.6301,-3.6301,-3.6301,-3.6301,-3.6343,-3.6423,-3.6423,-3.6447,-3.6588,-3.6826,-3.6806,-3.6806,-3.6866,-3.6763,-3.6623,-3.6423,-3.6423,-3.6502,-3.6681,-3.6806,-3.6906,-3.7007,-3.7066,-3.7085,-3.7085,-3.6442,-3.593,-3.5588,-3.4376,-3.3316,-3.2386,-3.2318,-3.2003,-3.6911,-3.7892,-3.8977,-3.7584,0.0,0.0,-3.9111,-3.9188,-3.9209,-3.9701,-3.932,-3.8811,-3.8476,-3.8395,-3.8395,-3.8395,-3.8785,-3.9059,-3.895,-3.8848,-3.8811,-3.8822,-3.9043,-3.9032,-3.8632,-3.8606,-3.8346,-3.7692,-3.7121,-3.6745,-3.6544,-3.6364,-3.6301,-3.6301,-3.6301,-3.6301,-3.6301,-3.6301,-3.6301,-3.6301,-3.6301,-3.6301,-3.6301,-3.6301,-3.6301,-3.6301,-3.6301,-3.6301,-3.6322,-3.6536,-3.688,-3.7265,-3.7265,-3.7377,-3.756,-3.7151,-3.7247,-3.756,-3.7339,-3.7523,-3.7861,-3.7861,-3.7685,-3.7542,-3.7791,-3.7523,-3.7132,-3.6939,-3.6597,-3.6301,-3.6301,-3.6301,-3.6301,-3.6301,-3.6301,-3.6301,-3.6301,-3.6301,-3.6301,-3.6301,-3.6301,-3.6301,-3.6301,-3.6301,-3.6301,-3.6301,-3.6301,-3.6402,-3.6681,-3.6602,-3.6582,-3.6681,-3.6602,-3.6482,-3.6322,-3.6301,-3.6381,-3.6523,-3.6643,-3.6705,-3.671,-3.6829,-3.6869,-3.6869,-3.6194,-3.5633,-3.517,-3.4163,-3.3284,-3.2561,-3.2892,-3.2678,-3.8238,-3.8642,-3.9073,-3.8104,-3.793,0.0,-3.8854,-3.9092,-3.9229,-3.9505,-3.965,-3.9566,-3.9122,-3.9122,-3.9141,-3.9026,-3.91,-3.9124,-3.9101,-3.9024,-3.9224,-3.9927,-3.9752,-3.977,-4.0348,-3.9622,-3.8948,-3.8559,-3.7584,-3.6791,-3.6322,-3.6301,-3.6301,-3.6301,-3.6301,-3.6301,-3.6301,-3.6301,-3.6301,-3.6301,-3.6301,-3.6301,-3.6301,-3.6301,-3.6301,-3.6301,-3.6301,-3.6301,-3.6301,-3.6301,-3.6553,-3.69,-3.69,-3.69,-3.686,-3.6512,-3.6577,-3.69,-3.6841,-3.7113,-3.7414,-3.7414,-3.7414,-3.7377,-3.7432,-3.7414,-3.7284,-3.6939,-3.6577,-3.6301,-3.6301,-3.6301,-3.6301,-3.6301,-3.6301,-3.6301,-3.6301,-3.6301,-3.6301,-3.6301,-3.6301,-3.6301,-3.6301,-3.6301,-3.6301,-3.6301,-3.6301,-3.6402,-3.6623,-3.6444,-3.6402,-3.6623,-3.6444,-3.6301,-3.6301,-3.6301,-3.6301,-3.6301,-3.6523,-3.6544,-3.6301,-3.6523,-3.6661,-3.6661,-3.5922,-3.5159,-3.4382,-3.3803,-3.3308,-3.2984,-3.365,-3.3618,-3.8238,-3.8642,-3.8911,-3.7353,-3.7488,0.0,-3.7334,-3.7757,-3.8235,-3.8125,-3.8622,-3.9004,-3.8753,-3.9237,-3.9399,-3.8595,-3.9008,-3.935,-3.9142,-3.9667,-4.0067,-4.0016,-4.105,-4.1404,-4.0492,-4.0798,-4.0414,-3.8859,-3.7662,-3.6791,-3.6322,-3.6301,-3.6301,-3.6301,-3.6301,-3.6301,-3.6301,-3.6301,-3.6301,-3.6301,-3.6301,-3.6301,-3.6301,-3.6301,-3.6301,-3.6301,-3.6301,-3.6301,-3.6301,-3.6301,-3.6553,-3.69,-3.69,-3.69,-3.688,-3.6801,-3.6821,-3.6841,-3.6516,-3.6678,-3.7017,-3.7017,-3.6801,-3.6597,-3.6919,-3.6781,-3.6533,-3.643,-3.6364,-3.6301,-3.6301,-3.6301,-3.6301,-3.6301,-3.6301,-3.6301,-3.6301,-3.6301,-3.6301,-3.6301,-3.6301,-3.6301,-3.6301,-3.6301,-3.6301,-3.6301,-3.6301,-3.6322,-3.6364,-3.6322,-3.6322,-3.6364,-3.6322,-3.6301,-3.6301,-3.6301,-3.6301,-3.6301,-3.636,-3.6343,-3.6301,-3.6343,-3.6381,-3.6381,-3.5972,-3.5446,-3.4857,-3.3962,-3.3464,-3.3363,-3.3258,-3.2999,-3.9381,-3.9573,-3.9592,-3.8315,-3.8334,0.0,0.0,-3.8334,-3.8712,-3.8913,-3.8926,-3.8851,-3.8643,-3.8563,-3.8531,-3.8459,-3.8672,-3.8952,-3.9268,-3.9923,-4.0502,-4.0774,-4.1744,-4.2283,-4.2027,-4.1886,-4.0981,-3.901,-3.7702,-3.6851,-3.6523,-3.6364,-3.6301,-3.6301,-3.6301,-3.6301,-3.6301,-3.6301,-3.6301,-3.6301,-3.6301,-3.6301,-3.6301,-3.6301,-3.6301,-3.6301,-3.6301,-3.6301,-3.6266,-3.5904,-3.5876,-3.604,-3.604,-3.604,-3.604,-3.604,-3.6284,-3.6557,-3.6385,-3.643,-3.6597,-3.6597,-3.6471,-3.6343,-3.6536,-3.6471,-3.6301,-3.6301,-3.6301,-3.6301,-3.6301,-3.6301,-3.6301,-3.6301,-3.6301,-3.6301,-3.6301,-3.6301,-3.6301,-3.6301,-3.6301,-3.6301,-3.6301,-3.6301,-3.6301,-3.6301,-3.6301,-3.6301,-3.6301,-3.6301,-3.6301,-3.6301,-3.6301,-3.6301,-3.6301,-3.6301,-3.6301,-3.6301,-3.6301,-3.6301,-3.6301,-3.6301,-3.6301,-3.6301,-3.6131,-3.5818,-3.5395,-3.4684,-3.416,-3.3802,-3.4013,-3.3927,-4.0496,-4.0496,-4.0304,-3.9496,-3.9419,-3.9457,0.0,0.0,0.0,-3.9712,-3.9352,-3.8935,-3.8765,-3.8155,-3.7888,-3.8571,-3.8477,-3.8576,-3.923,-3.9986,-4.0751,-4.1512,-4.2257,-4.2945,-4.354,-4.2571,-4.1216,-3.9461,-3.8024,-3.7119,-3.6931,-3.653,-3.6301,-3.6301,-3.6301,-3.6301,-3.6301,-3.6301,-3.6232,-3.6094,-3.6094,-3.6094,-3.6094,-3.6094,-3.6163,-3.6301,-3.6301,-3.6215,-3.6042,-3.5439,-3.5025,-3.4766,-3.4921,-3.4993,-3.5028,-3.5145,-3.5576,-3.6111,-3.6249,-3.6301,-3.6301,-3.6301,-3.6301,-3.6301,-3.6301,-3.6301,-3.6301,-3.6301,-3.6301,-3.6301,-3.6301,-3.6301,-3.6301,-3.6301,-3.6301,-3.6301,-3.6301,-3.6301,-3.6301,-3.6301,-3.6301,-3.6301,-3.6301,-3.6301,-3.6301,-3.6301,-3.6301,-3.6301,-3.6301,-3.6301,-3.6301,-3.6301,-3.6301,-3.6301,-3.6301,-3.6301,-3.6301,-3.6301,-3.6301,-3.6301,-3.6301,-3.6301,-3.6301,-3.6301,-3.6237,-3.6028,-3.5677,-3.5293,-3.4801,-3.4212,-3.4748,-3.4759,-4.0496,-4.0496,-4.0304,-3.9496,-3.9842,-3.9977,-3.8488,0.0,-3.9104,-3.8408,0.0,-3.9246,-3.9231,0.0,0.0,-3.8981,-3.887,-3.8785,-3.8709,-3.983,-4.0897,-4.1526,-4.2897,-4.3767,-4.3612,-4.2413,-4.1447,-4.0967,-3.9084,-3.7907,-3.7701,-3.679,-3.6301,-3.6301,-3.6301,-3.6301,-3.6301,-3.6301,-3.5973,-3.5318,-3.5318,-3.5318,-3.5318,-3.5318,-3.568,-3.6301,-3.6301,-3.5921,-3.5318,-3.5232,-3.4387,-3.3231,-3.3938,-3.4234,-3.4303,-3.4956,-3.5249,-3.5421,-3.6077,-3.6301,-3.6301,-3.6301,-3.6301,-3.6301,-3.6301,-3.6301,-3.6301,-3.6301,-3.6301,-3.6301,-3.6301,-3.6301,-3.6301,-3.6301,-3.6301,-3.6301,-3.6301,-3.6301,-3.6301,-3.6301,-3.6301,-3.6301,-3.6301,-3.6301,-3.6301,-3.6301,-3.6301,-3.6301,-3.6301,-3.6301,-3.6301,-3.6301,-3.6301,-3.6301,-3.6301,-3.6301,-3.6301,-3.6301,-3.6301,-3.6301,-3.6301,-3.6301,-3.6301,-3.6301,-3.6023,-3.5655,-3.527,-3.4913,-3.4714,-3.4624,-3.435,-3.39,-4.0496,-4.0169,-3.9823,-3.9958,-3.99,-3.9746,-3.9496,-3.9727,-3.99,-3.9534,0.0,0.0,0.0,0.0,0.0,0.0,-3.8604,-3.8478,-3.9404,-3.99,-4.0578,-4.1651,0.0,0.0,-4.3103,-4.2485,-4.1956,-4.1669,-4.0043,-3.8732,-3.8006,-3.7359,-3.6766,-3.6318,-3.6301,-3.6301,-3.6301,-3.587,-3.5508,-3.518,-3.4786,-3.4562,-3.4562,-3.4562,-3.4956,-3.5628,-3.5197,-3.5076,-3.5128,-3.4231,-3.3473,-3.2886,-3.28,-3.3024,-3.3438,-3.3749,-3.4421,-3.5232,-3.5542,-3.5939,-3.6301,-3.6301,-3.6301,-3.6301,-3.6301,-3.6301,-3.6301,-3.6301,-3.6301,-3.6301,-3.6301,-3.6301,-3.6301,-3.6301,-3.6301,-3.6301,-3.6301,-3.6301,-3.6301,-3.6301,-3.6301,-3.6301,-3.6301,-3.6301,-3.6301,-3.6301,-3.6301,-3.6301,-3.6301,-3.6301,-3.6301,-3.6301,-3.6301,-3.6301,-3.6301,-3.6301,-3.6301,-3.6301,-3.6301,-3.6301,-3.6301,-3.6301,-3.6301,-3.6301,-3.6174,-3.5788,-3.5201,-3.5062,-3.4771,-3.4349,-3.4176,-3.3939,-4.0397,-3.9983,-3.9703,-4.0346,-4.0054,-3.9785,-4.0362,-4.0496,-4.0496,-4.0496,-4.0035,0.0,0.0,0.0,-3.8642,-3.9496,0.0,-3.8584,-4.0076,-4.0071,-4.0321,-4.1443,0.0,0.0,0.0,-4.2245,-4.2009,-4.1885,0.0,-3.9297,-3.84,-3.7814,-3.7129,-3.6335,-3.6301,-3.6301,-3.6301,-3.5766,-3.5387,-3.518,-3.4665,-3.4303,-3.4113,-3.4113,-3.4407,-3.4869,-3.4318,-3.4286,-3.4473,-3.3369,-3.2904,-3.2852,-3.2317,-3.2421,-3.2904,-3.2904,-3.3749,-3.4921,-3.5128,-3.568,-3.6301,-3.6301,-3.6301,-3.6301,-3.6301,-3.6301,-3.6301,-3.6301,-3.6301,-3.6301,-3.6301,-3.6301,-3.6301,-3.6301,-3.6301,-3.6301,-3.6301,-3.6301,-3.6301,-3.6301,-3.6301,-3.6301,-3.6301,-3.6301,-3.6301,-3.6301,-3.6301,-3.6301,-3.6301,-3.6301,-3.6301,-3.6301,-3.6301,-3.6301,-3.6301,-3.6301,-3.6301,-3.6301,-3.6301,-3.6301,-3.6301,-3.6301,-3.6259,-3.6156,-3.6174,-3.581,-3.5062,-3.5062,-3.473,-3.4101,-3.4101,-3.4003,0.0,0.0,0.0,-4.0438,-4.0477,-4.0477,-4.0496,-4.0496,-4.0496,-4.0496,-4.0477,-4.0458,-4.0458,-3.9804,-3.9515,-4.0323,-3.9777,0.0,0.0,-4.0313,-4.0316,-4.0679,-4.1255,-4.1609,0.0,-4.14,-4.1339,0.0,-4.0423,0.0,-3.8994,-3.804,-3.7129,-3.6335,-3.6301,-3.6301,-3.6301,-3.6284,-3.5904,-3.5197,-3.518,-3.4783,-3.4113,-3.4113,-3.4113,-3.413,-3.4113,-3.3662,-3.2972,-3.2921,-3.2904,-3.2904,-3.2869,-3.2886,-3.2904,-3.2904,-3.3421,-3.4251,-3.4938,-3.568,-3.6301,-3.6301,-3.6301,-3.6301,-3.6301,-3.6301,-3.6301,-3.6301,-3.6301,-3.6301,-3.6301,-3.6301,-3.6301,-3.6301,-3.6301,-3.6301,-3.6301,-3.6301,-3.6301,-3.6301,-3.6301,-3.6301,-3.6301,-3.6301,-3.6301,-3.6301,-3.6301,-3.6301,-3.6301,-3.6301,-3.6301,-3.6301,-3.6301,-3.6301,-3.6301,-3.6301,-3.6301,-3.6301,-3.6301,-3.6301,-3.6301,-3.6301,-3.6152,-3.581,-3.5827,-3.5453,-3.4715,-3.4715,-3.4497,-3.4101,-3.4101,-3.3744,0.0,0.0,-3.7804,-3.9167,0.0,0.0,0.0,-4.0496,-4.0496,-4.0496,-4.0496,-4.0496,-4.0496,-4.0285,-4.0189,-4.0458,-3.9823,-3.9573,0.0,-3.9823,-3.9328,-3.932,-4.0315,-4.0938,-4.082,0.0,0.0,0.0,-4.0745,0.0,0.0,-3.8177,-3.7129,-3.6335,-3.6301,-3.6301,-3.6301,-3.5818,-3.5197,-3.4476,-3.4476,-3.382,-3.2576,-3.3076,-3.33,-3.3283,-3.2783,-3.2697,-3.2869,-3.2369,-3.2455,-3.2904,-3.2904,-3.3231,-3.3628,-3.3093,-3.3404,-3.4286,-3.549,-3.6094,-3.6301,-3.6301,-3.6301,-3.6301,-3.6301,-3.6301,-3.6301,-3.6301,-3.6301,-3.6301,-3.6301,-3.6301,-3.6301,-3.6301,-3.6301,-3.6301,-3.6301,-3.6301,-3.6301,-3.6301,-3.6301,-3.6301,-3.6301,-3.6301,-3.6301,-3.6301,-3.6301,-3.6301,-3.6301,-3.6301,-3.6301,-3.6301,-3.6301,-3.6301,-3.6301,-3.6301,-3.6301,-3.6301,-3.6301,-3.6301,-3.6301,-3.6088,-3.5915,-3.5805,-3.5543,-3.5155,-3.4691,-3.4691,-3.4497,-3.4101,-3.4101,-3.3971,-3.7381,-3.6854,0.0,-3.8099,-3.8012,0.0,-3.9588,0.0,-4.0052,-4.0332,-4.0457,-4.0481,-4.0417,-4.0457,-4.0496,-4.0496,-4.0054,-3.9804,0.0,-3.9471,-3.8935,-3.8643,-3.9322,-3.9836,-3.9928,-4.0401,-4.0851,-4.1212,-4.0398,-3.9641,0.0,0.0,-3.7282,-3.6318,-3.6301,-3.6301,-3.6301,-3.5559,-3.4956,-3.4493,-3.4234,-3.344,-3.2214,-3.2679,-3.2766,-3.2472,-3.2007,-3.2076,-3.2472,-3.199,-3.2403,-3.3317,-3.3317,-3.38,-3.4352,-3.3283,-3.3404,-3.43,-3.5783,-3.6301,-3.6301,-3.6301,-3.6301,-3.6301,-3.6301,-3.6301,-3.6301,-3.6301,-3.6301,-3.6301,-3.6301,-3.6301,-3.6301,-3.6301,-3.6301,-3.6301,-3.6301,-3.6301,-3.6301,-3.6301,-3.6301,-3.6301,-3.6301,-3.6301,-3.6301,-3.6301,-3.6301,-3.6301,-3.6301,-3.6301,-3.6301,-3.6301,-3.6301,-3.6301,-3.6301,-3.6301,-3.6301,-3.6301,-3.6301,-3.6301,-3.6301,-3.598,-3.5722,-3.5588,-3.5201,-3.4842,-3.4497,-3.4497,-3.4349,-3.4101,-3.4101,-3.4101]},{"header":{"parameterUnit":"m.s-1","parameterCategory":1,"la1":30.6,"la2":29.2853,"lo1":-89.7004,"lo2":-87.6739,"dy":0.0162,"dx":0.0183,"nx":112,"ny":82,"refTime":"2024-05-30T12:00:00:Z","depth":0,"parameterNumber":3,"parameterNumberName":"V-component_of_WINDS"},"data":[0.0,0.0,0.0,0.0,0.0,0.0,0.0,0.0,0.0,0.0,0.0,0.0,0.0,0.0,0.0,0.0,0.0,0.0,0.0,0.0,0.0,0.0,0.0,0.0,0.0,0.0,0.0,0.0,0.0,0.0,0.0,0.0,0.0,0.0,0.0,0.0,0.0,0.0,0.0,0.0,0.0,0.0,0.0,0.0,0.0,0.0,0.0,0.0,0.0,0.0,0.0,0.0,0.0,0.0,0.0,0.0,0.0,0.0,0.0,0.0,0.0,0.0,0.0,0.0,0.0,0.0,0.0,0.0,0.0,0.0,0.0,0.0,0.0,0.0,0.0,0.0,0.0,0.0,0.0,0.0,0.0,0.0,0.0,0.0,0.0,0.0,0.0,0.0,0.0,0.0,-0.1707,-0.1807,-0.178,-0.1795,-0.1795,-0.1988,-0.2404,-0.3184,0.0,0.0,0.0,0.0,0.0,0.0,0.0,0.0,0.0,0.0,0.0,0.0,0.0,0.0,0.0,0.0,0.0,0.0,0.0,0.0,0.0,0.0,0.0,0.0,0.0,0.0,0.0,0.0,0.0,0.0,0.0,0.0,0.0,0.0,0.0,0.0,0.0,0.0,0.0,0.0,0.0,0.0,0.0,0.0,0.0,0.0,0.0,0.0,0.0,0.0,0.0,0.0,0.0,0.0,0.0,0.0,0.0,0.0,0.0,0.0,0.0,0.0,0.0,0.0,0.0,0.0,0.0,0.0,0.0,0.0,0.0,0.0,0.0,0.0,0.0,0.0,0.0,0.0,0.0,0.0,0.0,0.0,0.0,0.0,0.0,0.0,0.0,0.0,0.0,0.0,0.0,0.0,0.0,0.0,0.0,0.0,0.0,0.0,0.0,0.0,0.0,0.0,0.0,0.0,-0.1671,-0.1777,-0.1792,-0.1795,-0.1795,-0.2702,-0.3521,-0.4243,0.0,0.0,0.0,0.0,0.0,0.0,0.0,0.0,0.0,0.0,0.0,0.0,0.0,0.0,0.0,0.0,0.0,0.0,0.0,0.0,0.0,0.0,0.0,0.0,0.0,0.0,0.0,0.0,0.0,0.0,0.0,0.0,0.0,0.0,0.0,0.0,0.0,0.0,0.0,0.0,0.0,0.0,0.0,0.0,0.0,0.0,0.0,0.0,0.0,0.0,0.0,0.0,0.0,0.0,0.0,0.0,0.0,0.0,0.0,0.0,0.0,0.0,0.0,0.0,0.0,0.0,0.0,0.0,0.0,0.0,0.0,0.0,0.0,0.0,0.0,0.0,0.0,0.0,0.0,0.0,0.0,0.0,0.0,0.0,0.0,0.0,0.0,0.0,0.0,0.0,0.0,0.0,0.0,0.0,0.0,0.0,0.0,0.0,0.0,0.0,0.0,0.0,0.0,-0.1656,-0.1698,-0.1785,-0.1795,-0.2074,-0.2744,-0.317,-0.4013,-0.5397,-0.5431,0.0,0.0,0.0,0.0,0.0,0.0,0.0,0.0,0.0,0.0,0.0,0.0,0.0,0.0,0.0,0.0,0.0,0.0,0.0,0.0,0.0,0.0,0.0,0.0,0.0,0.0,0.0,0.0,0.0,0.0,0.0,0.0,0.0,0.0,0.0,0.0,0.0,0.0,0.0,0.0,0.0,0.0,0.0,0.0,0.0,0.0,0.0,0.0,0.0,0.0,0.0,0.0,0.0,0.0,0.0,0.0,0.0,0.0,0.0,0.0,0.0,0.0,0.0,0.0,0.0,0.0,0.0,0.0,0.0,0.0,0.0,0.0,0.0,0.0,0.0,0.0,0.0,0.0,0.0,0.0,0.0,0.0,0.0,0.0,0.0,0.0,0.0,0.0,0.0,0.0,0.0,0.0,0.0,0.0,0.0,0.0,0.0,0.0,0.0,0.0,0.0,0.0,-0.1708,-0.1743,-0.179,-0.1795,-0.2295,-0.345,-0.3627,-0.444,-0.6205,-0.6528,0.0,0.0,0.0,0.0,0.0,0.0,0.0,0.0,0.0,0.0,0.0,0.0,0.0,0.0,0.0,0.0,0.0,0.0,0.0,0.0,0.0,0.0,0.0,0.0,0.0,0.0,0.0,0.0,0.0,0.0,0.0,0.0,0.0,0.0,0.0,0.0,0.0,0.0,0.0,0.0,0.0,0.0,0.0,0.0,0.0,0.0,0.0,0.0,0.0,0.0,0.0,0.0,0.0,0.0,0.0,0.0,0.0,0.0,0.0,0.0,0.0,0.0,0.0,0.0,0.0,0.0,0.0,0.0,0.0,0.0,0.0,0.0,0.0,0.0,0.0,0.0,0.0,0.0,0.0,0.0,0.0,0.0,0.0,0.0,0.0,0.0,0.0,0.0,0.0,0.0,0.0,0.0,0.0,0.0,0.0,0.0,0.0,0.0,0.0,0.0,0.0,0.0,-0.172,-0.179,-0.1795,-0.1795,-0.2229,-0.3343,-0.4243,-0.524,-0.6328,-0.7289,0.0,0.0,0.0,0.0,0.0,0.0,0.0,0.0,0.0,0.0,0.0,0.0,0.0,0.0,0.0,0.0,0.0,0.0,0.0,0.0,0.0,0.0,0.0,0.0,0.0,0.0,0.0,0.0,0.0,0.0,0.0,0.0,0.0,0.0,0.0,0.0,0.0,0.0,0.0,0.0,0.0,0.0,0.0,0.0,0.0,0.0,0.0,0.0,0.0,0.0,0.0,0.0,0.0,0.0,0.0,0.0,0.0,0.0,0.0,0.0,0.0,0.0,0.0,0.0,0.0,0.0,0.0,0.0,0.0,0.0,0.0,0.0,0.0,0.0,0.0,0.0,0.0,0.0,0.0,0.0,0.0,0.0,0.0,0.0,0.0,0.0,0.0,0.0,0.0,0.0,0.0,0.0,0.0,0.0,0.0,0.0,0.0,0.0,0.0,0.0,0.0,0.0,-0.1673,-0.178,-0.1818,-0.1822,-0.252,-0.43,-0.475,-0.5606,-0.7216,0.0,0.0,0.0,0.0,0.0,0.0,0.0,0.0,0.0,0.0,0.0,0.0,0.0,0.0,0.0,0.0,0.0,0.0,0.0,0.0,0.0,0.0,0.0,0.0,0.0,0.0,0.0,0.0,0.0,0.0,0.0,0.0,0.0,0.0,0.0,0.0,0.0,0.0,0.0,0.0,0.0,0.0,0.0,0.0,0.0,0.0,0.0,0.0,0.0,0.0,0.0,0.0,0.0,0.0,0.0,0.0,0.0,0.0,0.0,0.0,0.0,0.0,0.0,0.0,0.0,0.0,0.0,0.0,0.0,0.0,0.0,0.0,0.0,0.0,0.0,0.0,0.0,0.0,0.0,0.0,0.0,0.0,0.0,0.0,0.0,0.0,0.0,0.0,0.0,0.0,0.0,0.0,0.0,0.0,0.0,0.0,0.0,0.0,0.0,0.0,0.0,0.0,-0.1577,-0.1639,-0.1744,-0.1785,-0.179,-0.2528,-0.4379,-0.4637,-0.5466,-0.7213,0.0,0.0,0.0,0.0,0.0,0.0,0.0,0.0,0.0,0.0,0.0,0.0,0.0,0.0,0.0,0.0,0.0,0.0,0.0,0.0,0.0,0.0,0.0,0.0,0.0,0.0,0.0,0.0,0.0,0.0,0.0,0.0,0.0,0.0,0.0,0.0,0.0,0.0,0.0,0.0,0.0,0.0,0.0,0.0,0.0,0.0,0.0,0.0,0.0,0.0,0.0,0.0,0.0,0.0,0.0,0.0,0.0,0.0,0.0,0.0,0.0,0.0,0.0,0.0,0.0,0.0,0.0,0.0,0.0,0.0,0.0,0.0,0.0,0.0,0.0,0.0,0.0,0.0,0.0,0.0,0.0,0.0,0.0,0.0,0.0,0.0,0.0,0.0,0.0,0.0,0.0,0.0,0.0,0.0,0.0,0.0,0.0,0.0,0.0,0.0,0.0,0.0,-0.1478,-0.163,-0.1703,-0.1704,-0.1703,-0.2113,-0.3214,-0.4002,-0.4903,0.0,0.0,0.0,0.0,0.0,0.0,0.0,0.0,0.0,0.0,0.0,0.0,0.0,0.0,0.0,0.0,0.0,0.0,0.0,0.0,0.0,0.0,0.0,0.0,0.0,0.0,0.0,0.0,0.0,0.0,0.0,0.0,0.0,0.0,0.0,0.0,0.0,0.0,0.0,0.0,0.0,0.0,0.0,0.0,0.0,0.0,0.0,0.0,0.0,0.0,0.0,0.0,0.0,0.0,0.0,0.0,0.0,0.0,0.0,0.0,0.0,0.0,0.0,0.0,0.0,0.0,0.0,0.0,0.0,0.0,0.0,0.0,0.0,0.0,0.0,0.0,0.0,0.0,0.0,0.0,0.0,0.0,0.0,0.0,0.0,0.0,0.0,0.0,0.0,0.0,0.0,0.0,0.0,0.0,0.0,0.0,0.0,0.0,0.0,0.0,0.0,0.0,0.0,-0.1473,-0.1594,-0.1651,-0.1673,-0.1655,-0.2047,-0.3151,-0.4021,-0.4925,-0.5827,0.0,0.0,0.0,0.0,0.0,0.0,0.0,0.0,0.0,0.0,0.0,0.0,0.0,0.0,0.0,0.0,0.0,0.0,0.0,0.0,0.0,0.0,0.0,0.0,0.0,0.0,0.0,0.0,0.0,0.0,0.0,0.0,0.0,0.0,0.0,0.0,0.0,0.0,0.0,0.0,0.0,0.0,0.0,0.0,0.0,0.0,0.0,0.0,0.0,0.0,0.0,0.0,0.0,0.0,0.0,0.0,0.0,0.0,0.0,0.0,0.0,0.0,0.0,0.0,0.0,0.0,0.0,0.0,0.0,0.0,0.0,0.0,0.0,0.0,0.0,0.0,0.0,0.0,0.0,0.0,0.0,0.0,0.0,0.0,0.0,0.0,0.0,0.0,0.0,0.0,0.0,0.0,0.0,0.0,0.0,0.0,0.0,0.0,0.0,0.0,0.0,0.0,-0.1437,-0.1553,-0.1611,-0.1641,-0.1628,-0.1863,-0.2495,-0.3427,-0.4103,-0.4515,0.0,0.0,0.0,0.0,0.0,0.0,0.0,0.0,0.0,0.0,0.0,0.0,0.0,0.0,0.0,0.0,0.0,0.0,0.0,0.0,0.0,0.0,0.0,0.0,0.0,0.0,0.0,0.0,0.0,0.0,0.0,0.0,0.0,0.0,0.0,0.0,0.0,0.0,0.0,0.0,0.0,0.0,0.0,0.0,0.0,0.0,0.0,0.0,0.0,0.0,0.0,0.0,0.0,0.0,0.0,0.0,0.0,0.0,0.0,0.0,0.0,0.0,0.0,0.0,0.0,0.0,0.0,0.0,0.0,0.0,0.0,0.0,0.0,0.0,0.0,0.0,0.0,0.0,0.0,0.0,0.0,0.0,0.0,0.0,0.0,0.0,0.0,0.0,0.0,0.0,0.0,0.0,0.0,0.0,0.0,0.0,0.0,0.0,0.0,0.0,0.0,0.0,-0.1383,-0.1508,-0.1575,-0.1605,-0.1606,-0.1594,-0.1569,-0.2451,-0.2872,-0.2612,0.0,0.0,0.0,0.0,0.0,0.0,0.0,0.0,0.0,0.0,0.0,0.0,0.0,0.0,0.0,0.0,0.0,0.0,0.0,0.0,0.0,0.0,0.0,0.0,0.0,0.0,0.0,0.0,0.0,0.0,0.0,0.0,0.0,0.0,0.0,0.0,0.0,0.0,0.0,0.0,0.0,0.0,0.0,0.0,0.0,0.0,0.0,0.0,0.0,0.0,0.0,0.0,0.0,0.0,0.0,0.0,0.0,0.0,0.0,0.0,0.0841,0.0,0.0,0.0,0.0,0.0,0.0,0.0,0.0,0.0,0.0,0.0,0.0,0.0,0.0,0.0,0.0,0.0,0.0,0.0,0.0,0.0,0.0,0.0,0.0,0.0,0.0,0.0,0.0,0.0,0.0,0.0,0.0,0.0,0.0,0.0,0.0,0.0,0.0,0.0,0.0,0.0,-0.1399,-0.1458,-0.1512,-0.1542,-0.1524,-0.1517,-0.1534,-0.2401,-0.2829,-0.261,-0.365,0.0,0.0,0.0,0.0,0.0,0.0,0.0,0.0,0.0,0.0,0.0,0.0,0.0,0.0,0.0,0.0,0.0,0.0,0.0,0.0,0.0,0.0,0.0,0.0,0.0,0.0,0.0,0.0,0.0,0.0,0.0,0.0,0.0,0.0,0.0,0.0,0.0,0.0,0.0,0.0,0.0,0.0,0.0,0.0,0.0,0.0,0.0,0.0,0.0,0.0,0.0,0.0,0.0,0.0,0.0,0.0,0.0,0.0,0.0,0.0,0.0802,0.0,0.0,0.0,0.0,0.0,0.0,0.0,0.0,0.0,0.0,0.0,0.0,0.0,0.0,0.0,0.0,0.0,0.0,0.0,0.0,0.0,0.0,0.0,0.0,0.0,0.0,0.0,0.0,0.0,0.0,0.0,0.0,0.0,0.0,0.0,0.0,0.0,0.0,0.0,0.0,-0.1388,-0.1443,-0.1492,-0.1523,-0.1512,-0.1503,-0.1504,-0.1937,-0.2157,-0.2044,-0.2859,0.0,0.0,0.0,0.0,0.0,0.0,0.0,0.0,0.0,0.0,0.0,0.0,0.0,0.0,0.0,0.0,0.0,0.0,0.0,0.0,0.0,0.0,0.0,0.0,0.0,0.0,0.0,0.0,0.0,0.0,0.0,0.0,0.0,0.0,0.0,0.0,0.0,0.0,0.0,0.0,0.0,0.0,0.0,0.0,0.0,0.0,0.0,0.0,0.0,0.0,0.0,0.0,0.0,0.5289,0.4812,0.3726,0.3475,0.2823,0.1865,0.1221,0.1019,0.1175,0.0711,0.0,0.0,0.0,0.0,0.0,0.0,0.0,0.0,0.0,0.0,0.0,0.0,0.0,0.0,0.0,0.0,0.0,0.0,0.0,0.0,0.0,0.0,0.0,0.0,-0.013,-0.0305,-0.0471,0.0,0.0,0.0,0.0,0.0,0.0,0.0,0.0,0.0,0.0,0.0,-0.138,-0.1436,-0.1483,-0.1461,-0.1463,-0.1498,-0.1468,-0.1442,-0.1412,-0.1377,-0.1989,-0.243,0.0,0.0,0.0,0.0,0.0,0.0,0.0,0.0,0.0,0.0,0.0,0.0,0.0,0.0,0.0,0.0,0.0,0.0,0.0,0.0,0.0,0.0,0.0,0.0,0.0,0.0,0.0,0.0,0.0,0.0,0.0,0.0,1.1295,1.1404,0.0,0.0,0.0,0.0,0.0,0.0,0.0,0.0,0.0,0.0,0.0,0.0,0.0,0.7434,0.6661,0.7565,0.7404,0.6213,0.639,0.6291,0.5934,0.4076,0.3123,0.2922,0.1908,0.0,0.1178,0.1123,0.0,0.0,0.0,0.0,0.0,0.0,0.0,0.0,0.0,0.0,0.0,0.0,0.0,0.0,0.0,0.0,0.0,0.0,0.0,0.0,0.0,0.0,0.0,0.0,0.0,-0.0045,0.0,-0.0347,-0.068,-0.0947,-0.0979,0.0,0.0,0.0,0.0,0.0,0.0,0.0,-0.1311,-0.1361,-0.1398,-0.1401,-0.1402,-0.1435,-0.1405,-0.1398,-0.1372,-0.1318,-0.1429,-0.1773,-0.2484,-0.2631,0.0,0.0,0.0,0.0,0.0,0.0,0.0,0.0,0.0,0.0,0.0,0.0,0.0,0.0,0.0,0.0,0.0,0.0,0.0,0.0,0.0,0.0,0.0,0.0,0.0,0.0,0.0,0.0,0.0,1.3013,1.2899,1.2643,1.1744,1.0711,0.0,0.0,0.0,0.0,0.0,0.0,0.0,0.0,0.0,0.7982,0.7988,0.7894,0.7699,0.8236,0.8166,0.7459,0.764,0.727,0.6385,0.4955,0.3885,0.317,0.2079,0.1509,0.1396,0.1282,0.107,0.0812,0.0,0.0,0.0,0.0,0.0,0.0,0.0,0.0,0.0,0.0,0.0,0.0,0.0,0.0,0.0,0.0,0.0,0.0,0.0,0.0,0.0,0.0,0.0,0.0,0.0,-0.0134,-0.0393,0.0,-0.0915,-0.1076,-0.1272,0.0,0.0,0.0,0.0,-0.1371,-0.1371,-0.1365,-0.1391,-0.1391,-0.1391,-0.1379,-0.1393,-0.1376,-0.1313,-0.1288,-0.1296,-0.1438,-0.1802,-0.1819,-0.1846,0.0,0.0,0.0,0.0,0.0,0.0,0.0,0.0,0.0,0.0,0.0,0.0,0.0,0.0,0.0,0.0,0.0,0.0,0.0,0.0,0.0,0.0,0.0,0.0,0.0,0.0,0.0,0.0,1.4673,1.4479,1.3927,1.3376,1.2453,0.0,0.0,0.0,0.0,0.0,0.0,0.7719,0.7851,0.7997,0.8147,0.814,0.8316,0.8537,0.8577,0.8506,0.8378,0.8431,0.7936,0.6924,0.5916,0.4775,0.3646,0.2487,0.1869,0.1564,0.1393,0.1282,0.1177,0.0773,0.0575,0.0477,0.0191,0.0095,0.0095,0.0047,0.0,0.0,0.0,0.0,0.0,0.0,0.0,0.0,0.0,0.0,0.0,0.0,0.0,0.0,0.0,0.0,0.0,0.0,-0.0045,-0.0224,0.0,-0.0802,-0.1015,-0.1296,0.0,0.0,-0.1318,-0.1357,-0.139,-0.139,-0.1416,-0.1391,-0.1391,-0.1391,-0.1375,-0.1382,-0.1317,-0.13,-0.1284,-0.1282,-0.1307,-0.129,-0.1309,-0.1296,-0.1296,0.0,0.0,0.0,0.0,0.0,0.0,0.0,0.0,0.0,0.0,0.0,0.0,0.0,0.0,0.0,0.0,0.0,0.0,0.0,0.0,0.0,0.0,0.0,0.0,0.0,0.0,0.0,0.0,0.0,1.569,1.4922,0.0,0.0,0.0,0.0,1.0107,0.9,0.8269,0.8018,0.8163,0.8313,0.8455,0.8601,0.8682,0.8699,0.879,0.8767,0.8472,0.8479,0.8408,0.8163,0.6903,0.5739,0.468,0.3575,0.2521,0.1617,0.1564,0.1448,0.1178,0.1177,0.1018,0.0763,0.0477,0.0381,0.0333,0.0093,0.0,0.0,0.0,0.0,0.0,0.0,0.0,0.0,0.0,0.0,0.0,0.0,0.0,0.0,0.0,0.0,0.0,0.0,-0.018,-0.0451,0.0,-0.0727,-0.0846,-0.1304,0.0,-0.1378,-0.1308,-0.1371,-0.139,-0.139,-0.1416,-0.1391,-0.1391,-0.1391,-0.1368,-0.1313,-0.1306,-0.1282,-0.1305,-0.1298,-0.1297,-0.1298,-0.1297,-0.1296,-0.1296,-0.1296,0.0,0.0,0.0,0.0,0.0,0.0,0.0,0.0,0.0,0.0,0.0,0.0,0.0,0.0,0.0,0.0,0.0,0.0,0.0,0.0,0.0,0.0,0.0,0.0,0.0,0.0,0.0,0.0,1.6092,1.5859,0.0,1.41,1.2571,1.1312,1.0386,0.9326,0.8648,0.8444,0.8522,0.8577,0.8628,0.8682,0.8757,0.8801,0.8854,0.8835,0.8628,0.853,0.8408,0.8265,0.6997,0.6184,0.5782,0.4676,0.3624,0.2622,0.2622,0.2161,0.145,0.125,0.1046,0.0791,0.0683,0.0535,0.0388,0.0285,0.0236,0.0235,0.0046,0.0,0.0,0.0,0.0,0.0,0.0,0.0,0.0,0.0,0.0,0.0,0.0,0.0,0.0,0.0,-0.009,-0.0225,-0.0453,-0.0766,-0.098,-0.1135,-0.1275,-0.1409,-0.138,-0.14,-0.1419,-0.1419,-0.1384,-0.1391,-0.1391,-0.1391,-0.1368,-0.1311,-0.1305,-0.1281,-0.13,-0.1296,-0.1296,-0.1296,-0.1296,-0.1296,-0.1296,-0.1296,-0.1286,0.0,0.0,0.0,0.0,0.0,0.0,0.0,0.0,0.0,0.0,0.0,0.0,0.0,0.0,0.0,0.0,0.0,0.0,0.0,0.0,0.0,0.0,0.0,0.0,0.0,1.5879,1.6126,1.6126,1.6299,1.5999,1.4818,1.3852,1.2717,1.1373,1.0215,0.9376,0.8807,0.8733,0.871,0.871,0.876,0.8835,0.8881,0.8885,0.8834,0.8784,0.8632,0.8482,0.8336,0.7471,0.6829,0.6334,0.5629,0.4726,0.3725,0.3374,0.2772,0.207,0.1566,0.1208,0.1049,0.0888,0.0733,0.063,0.0475,0.0423,0.0373,0.0092,0.0,0.0,0.0,0.0,0.0,0.0,0.0,0.0,0.0,0.0,0.0,0.0,0.0,0.0,0.0,0.0,-0.0045,-0.0224,-0.0583,-0.0893,-0.1014,-0.12,-0.1339,-0.1408,-0.1378,-0.1391,-0.1391,-0.1391,-0.1391,-0.1391,-0.1391,-0.1368,-0.1311,-0.1305,-0.1281,-0.13,-0.1296,-0.1296,-0.1296,-0.1296,-0.1296,-0.1296,-0.1296,-0.1281,-0.1212,0.0,0.0,0.0,0.0,0.0,0.0,0.0,0.0,0.0,0.0,0.0,0.0,0.0,0.0,0.0,0.0,0.0,0.0,0.0,0.0,0.0,0.0,0.0,1.5022,1.5972,1.646,1.5864,1.6346,1.6587,1.6348,1.5632,1.4615,1.316,1.1789,1.0408,0.9059,0.8792,0.8716,0.8716,0.8807,0.8885,0.8885,0.8885,0.8885,0.8881,0.8777,0.8625,0.8476,0.833,0.762,0.6437,0.6437,0.5829,0.4774,0.3725,0.3274,0.3073,0.2019,0.1598,0.1522,0.103,0.092,0.1044,0.0558,0.0411,0.0359,0.009,0.0,0.0,0.0,0.0,0.0,0.0,0.0,0.0,0.0,0.0,0.0,0.0,0.0,0.0,0.0,0.0,0.0,0.0,-0.0224,-0.0538,-0.0987,-0.1076,-0.1166,-0.1345,-0.1391,0.0,-0.1391,-0.1391,-0.1391,-0.1391,-0.1391,-0.1368,-0.1312,-0.1306,-0.1281,-0.1302,-0.1297,-0.1296,-0.1296,-0.1296,-0.1296,-0.1296,-0.1296,-0.1281,-0.1213,0.0,0.0,0.0,0.0,0.0,0.0,0.0,0.0,0.0,0.0,0.0,0.0,0.0,0.0,0.0,0.0,0.0,0.0,0.0,0.0,0.0,1.5304,1.5645,1.6159,1.5959,1.5858,1.6119,1.6293,1.6359,1.6328,1.5632,1.5032,1.4615,1.2665,1.1234,1.0697,0.9703,0.9095,0.8876,0.8861,0.8885,0.8885,0.8885,0.8885,0.8878,0.8672,0.8523,0.8472,0.8218,0.7879,0.7537,0.7537,0.6936,0.5932,0.5632,0.4628,0.3073,0.2019,0.1499,0.1323,0.1305,0.1223,0.1049,0.0725,0.0541,0.0403,0.0314,0.018,0.0,0.0,0.0,0.0,0.0,0.0,0.0,0.0,0.0,0.0,0.0,0.0,0.0,0.0,0.0,0.0,0.0,-0.0045,-0.0224,-0.0538,-0.0718,-0.0897,-0.1166,-0.1166,0.0,-0.1391,-0.1391,-0.1391,-0.1391,-0.1391,-0.1375,-0.1382,-0.1317,-0.129,-0.1292,-0.1309,-0.1296,-0.1296,-0.1296,-0.1296,-0.1296,-0.1296,-0.1292,0.0,0.0,0.0,0.0,0.0,0.0,0.0,0.0,0.0,0.0,0.0,0.0,0.0,0.0,0.0,0.0,0.0,0.0,0.0,0.0,0.0,0.0,1.5951,1.6312,1.6489,1.6086,1.5845,1.6066,1.6192,1.6321,1.6321,1.6147,1.5814,1.5297,1.3593,1.2287,1.1639,1.019,0.9323,0.9103,0.8995,0.8885,0.8885,0.8885,0.8885,0.8878,0.8693,0.8543,0.8476,0.8241,0.8102,0.7988,0.7988,0.7637,0.7036,0.6587,0.5682,0.0,0.0,0.0,0.0,0.0,0.1328,0.1076,0.0942,0.0807,0.0673,0.0448,0.0314,0.0135,0.0045,0.0,0.0,0.0,0.0,0.0,0.0,0.0,0.0,0.0,0.0,0.0,0.0,0.0,0.0,0.0,0.0,0.0,-0.0224,-0.0404,-0.0673,-0.0897,-0.0942,-0.1031,-0.1256,-0.1256,-0.13,-0.1391,-0.1391,-0.1379,-0.1393,-0.1321,0.0,0.0,0.0,-0.1296,-0.1296,-0.1296,0.0,0.0,0.0,0.0,0.0,0.0,0.0,0.0,-0.0746,-0.0554,0.0,0.0,0.0,0.0,0.0,0.0,0.0,0.0,0.0,0.0,0.0,0.0,0.0,0.0,0.0,0.0,1.6793,1.6807,1.6484,1.6323,1.6126,1.5858,1.6119,1.6375,1.6375,1.6904,1.6775,1.5719,1.4599,1.3431,1.225,1.0625,0.0,0.0,0.0,0.894,0.894,0.894,0.8875,0.8854,0.8757,0.8604,0.8455,0.8309,0.817,0.7988,0.7988,0.7988,0.7939,0.6986,0.6478,0.6163,0.4004,0.2549,0.1656,0.1456,0.1256,0.1121,0.1121,0.0,0.0,0.0628,0.0448,0.0359,0.0135,0.0045,0.0,0.0,0.0,0.0,0.0,0.0,0.0,0.0,0.0,0.0,0.0,0.0,0.0,0.0,0.0,0.0,0.0,-0.018,-0.0404,-0.0628,-0.0673,-0.0762,-0.1031,-0.1076,-0.1121,-0.1345,0.0,0.0,-0.1397,-0.1323,-0.1295,-0.1309,-0.1236,-0.1139,-0.11,-0.11,-0.11,-0.11,-0.11,-0.0786,-0.0196,-0.0196,0.0118,0.0707,0.0079,0.0118,0.0,0.0,0.0,0.0,0.0,0.0,0.0,0.0,0.0,0.0,0.0,0.0,0.0,0.0,0.0,1.8596,1.7809,1.7181,1.7124,1.6388,1.5892,1.5791,1.6299,1.662,1.662,1.7154,1.7443,1.7174,1.6097,1.4835,1.3431,1.2195,1.0954,0.9761,0.9434,0.9323,0.9323,0.9047,0.8821,0.8754,0.0,0.0,0.8357,0.8153,0.8019,0.7988,0.7988,0.7988,0.7988,0.7789,0.7122,0.6033,0.3916,0.2941,0.2503,0.1538,0.1256,0.13,0.1166,0.1121,0.1076,0.0987,0.0718,0.0403,0.0359,0.018,0.0,0.0,0.0,0.0,0.0,0.0,0.0,0.0,0.0,0.0,0.0,0.0,0.0,0.0,0.0,0.0,0.0,-0.0045,-0.018,-0.0404,-0.0448,-0.0538,-0.0762,-0.0762,-0.0897,-0.1121,-0.1166,-0.1209,-0.1382,-0.1335,-0.1304,-0.1298,-0.0804,-0.0275,0.0196,0.0236,0.0236,0.0236,0.0236,0.0314,0.0432,0.0432,0.0746,0.1372,0.0746,0.0785,0.0,0.0,0.0,0.0,0.0,0.0,0.0,0.0,0.0,0.0,0.0,1.9742,1.972,0.0,2.0201,1.9597,1.9368,1.8918,1.7836,1.7044,1.6339,1.5879,1.6346,1.6707,1.6707,1.7241,1.7582,1.7582,1.6558,1.5589,1.4835,1.3004,1.1655,1.0899,0.9923,0.9379,0.9379,0.9051,0.8807,0.871,0.8557,0.8408,0.8316,0.8109,0.7988,0.7988,0.7988,0.7988,0.7985,0.7907,0.7498,0.673,0.5136,0.3862,0.2812,0.2213,0.1749,0.1391,0.13,0.1256,0.1256,0.1121,0.0942,0.0718,0.0583,0.0404,0.018,0.018,0.009,0.0,0.0,0.0,0.0,0.0,0.0,0.0,0.0,0.0359,0.0584,0.009,0.0808,0.1301,0.0808,0.1122,0.1256,0.0583,0.0941,0.1164,0.0939,0.0895,0.0805,0.0537,0.0488,0.0397,0.0309,0.0254,0.0164,0.0,0.0318,0.0549,0.0589,0.0589,0.0589,0.0589,0.0589,0.0746,0.1099,0.1099,0.1412,0.2038,0.1726,0.1737,0.0,0.0,0.0,0.0,0.0,0.0,0.0,2.1423,2.1224,2.1215,2.0968,2.0837,2.0934,2.1606,2.1798,2.081,2.1057,2.0699,1.8692,1.7848,1.7065,1.6088,1.642,1.6727,1.6787,1.7275,1.7582,1.7582,1.6776,1.6127,1.5914,1.3922,1.2575,1.2091,1.0899,0.9978,0.9489,0.9375,0.9115,0.8665,0.854,0.8391,0.8221,0.8096,0.7988,0.7988,0.7988,0.7988,0.7978,0.7875,0.7729,0.749,0.6544,0.5055,0.3436,0.3244,0.2643,0.1927,0.1749,0.1704,0.1614,0.1256,0.1121,0.1076,0.0852,0.0583,0.0403,0.0403,0.0224,0.0,0.0,0.0,0.0,0.0,0.0135,0.0269,0.0269,0.1032,0.148,0.0718,0.1838,0.2644,0.1838,0.2509,0.2822,0.1838,0.2374,0.282,0.2593,0.2539,0.2443,0.2176,0.205,0.2021,0.1969,0.1862,0.1725,0.1608,0.1606,0.1489,0.1216,0.1216,0.1178,0.1099,0.1099,0.1295,0.1763,0.1763,0.2038,0.2511,0.2511,0.2544,1.888,1.9134,1.9382,2.0352,2.1192,2.1552,0.0,2.2044,2.3111,2.1872,2.2843,2.3792,2.3467,2.394,2.4117,2.3411,2.2465,2.1311,1.9805,1.856,1.7514,1.6722,1.6667,1.6807,1.7125,1.744,1.7582,1.7582,1.747,1.6988,1.5968,1.5642,1.4513,1.2413,1.2896,1.2082,0.9761,1.0515,1.0074,0.8506,0.8489,0.8336,0.8015,0.7995,0.7988,0.7988,0.7988,0.7988,0.7978,0.7875,0.7729,0.7584,0.7336,0.6469,0.529,0.4472,0.4067,0.3844,0.2999,0.2732,0.2598,0.1659,0.1256,0.1076,0.1076,0.0762,0.0403,0.0403,0.0224,0.0,0.0,0.0,0.0,0.0,0.0628,0.1256,0.1256,0.2017,0.2688,0.2598,0.2732,0.2867,0.2732,0.3539,0.3807,0.2867,0.2822,0.2867,0.2867,0.2731,0.2568,0.2306,0.2175,0.2003,0.184,0.1828,0.2045,0.2586,0.2621,0.2857,0.3409,0.3448,0.3255,0.2826,0.2826,0.2669,0.2392,0.2392,0.2431,0.2511,0.2511,0.2544,1.8704,1.9277,1.9736,2.0098,2.0654,2.1228,2.1558,2.2346,2.2795,2.1908,2.3121,2.4094,2.3114,2.4009,2.4733,2.4214,2.3145,2.1938,2.0688,1.9089,1.7874,1.7309,1.7068,1.7065,1.7192,1.7467,1.7582,1.7582,1.7582,1.7364,1.6935,1.6234,1.5429,1.446,1.397,1.3161,1.2087,1.1596,1.0812,0.9767,0.9052,0.8477,0.7988,0.7988,0.7988,0.7988,0.7988,0.7938,0.7896,0.7746,0.76,0.7451,0.7295,0.693,0.6384,0.545,0.4781,0.4245,0.3844,0.3712,0.3667,0.3221,0.3041,0.2952,0.2952,0.2727,0.2458,0.2458,0.2148,0.1881,0.1881,0.1792,0.1704,0.1704,0.1973,0.2233,0.2161,0.2975,0.3512,0.2819,0.3654,0.4326,0.3701,0.4442,0.4971,0.4567,0.4523,0.4503,0.4401,0.4359,0.4248,0.4014,0.3926,0.3826,0.3661,0.3653,0.3677,0.372,0.3717,0.3759,0.3802,0.3802,0.3724,0.353,0.3491,0.3411,0.3255,0.3255,0.3255,0.3255,0.3255,0.3297,1.8573,1.9143,1.9619,1.9853,2.0332,2.0996,2.1943,2.2441,2.2562,2.2039,2.314,2.3941,2.2953,2.4039,2.4953,2.4523,2.3781,2.2779,2.1163,1.974,1.852,1.7679,1.738,1.7233,1.7313,1.7514,1.7582,1.7582,1.7582,1.7582,1.7582,1.6829,1.6234,1.5914,1.5156,1.4454,1.3701,1.2945,1.1924,1.0694,0.9823,0.8885,0.7988,0.7988,0.7988,0.7988,0.7988,0.7904,0.7801,0.7658,0.7509,0.7402,0.72,0.7095,0.7007,0.634,0.5672,0.5045,0.4779,0.469,0.4645,0.4376,0.4289,0.4289,0.4289,0.4109,0.3883,0.3883,0.3618,0.3307,0.322,0.3087,0.2956,0.2911,0.3092,0.325,0.3093,0.3908,0.4345,0.3465,0.4563,0.5385,0.4608,0.5094,0.5643,0.5634,0.564,0.5607,0.5518,0.5448,0.5327,0.5162,0.514,0.5105,0.5023,0.5018,0.4859,0.4582,0.4582,0.4426,0.4155,0.4116,0.4075,0.3958,0.3958,0.3919,0.3802,0.3802,0.3802,0.3802,0.3802,0.3839,1.9043,1.8984,1.8841,1.9707,2.0527,2.1181,2.122,2.2246,2.3071,2.2565,2.3169,2.3835,2.3948,2.4568,2.4957,2.4583,2.4707,2.3899,2.1269,2.0559,1.9666,1.7804,1.738,1.7313,1.7542,1.7582,1.7582,1.7582,1.7582,1.7582,1.7582,1.7582,1.7041,1.5914,1.6935,1.6287,1.3701,1.477,1.372,1.0694,1.0642,0.9689,0.7988,0.7988,0.7988,0.7988,0.7988,0.7904,0.7801,0.7658,0.7509,0.7402,0.72,0.7095,0.7095,0.7051,0.7051,0.6874,0.5985,0.5675,0.5494,0.4601,0.4289,0.4289,0.4289,0.4109,0.3883,0.3883,0.3749,0.3527,0.3263,0.3173,0.313,0.2956,0.3583,0.4229,0.4094,0.4815,0.5432,0.5351,0.5377,0.5379,0.5377,0.5377,0.542,0.5494,0.5513,0.551,0.5508,0.5344,0.5151,0.5034,0.5023,0.5021,0.5018,0.5018,0.4979,0.4979,0.4979,0.4979,0.4976,0.4976,0.4779,0.4384,0.4384,0.419,0.3802,0.3802,0.3802,0.3802,0.3802,0.3804,1.8279,1.8634,1.9104,1.925,1.9965,2.0721,2.1132,2.1654,2.2155,2.2438,2.3418,2.4202,2.4246,2.482,2.5208,2.506,2.4214,2.3253,2.2341,2.0707,1.9361,1.8753,1.7959,1.7475,1.7569,1.7582,1.7582,1.7582,1.7582,1.7582,1.7582,1.7582,1.7417,1.7041,1.7417,1.7206,1.6287,1.568,1.4729,1.3405,1.1249,0.9472,0.7988,0.7988,0.7988,0.7988,0.7988,0.7904,0.7801,0.7658,0.7509,0.7402,0.72,0.7095,0.7095,0.7095,0.7095,0.7051,0.6741,0.6609,0.6561,0.6248,0.6157,0.6157,0.6157,0.6113,0.6021,0.6021,0.5891,0.5716,0.563,0.5447,0.527,0.5055,0.5277,0.5406,0.5044,0.5235,0.5424,0.5189,0.5262,0.5385,0.5303,0.5358,0.5396,0.5314,0.5379,0.5431,0.5431,0.5222,0.5059,0.5021,0.5018,0.5018,0.5018,0.5018,0.5018,0.5018,0.5018,0.5018,0.5018,0.5018,0.4937,0.4818,0.4779,0.474,0.4584,0.4584,0.4584,0.4584,0.4584,0.4584,1.7724,1.8341,1.9058,1.8922,1.9516,2.0253,2.066,2.107,2.154,2.2039,2.3071,2.3953,2.42,2.4631,2.5014,2.5109,2.4264,2.3452,2.2994,2.1218,1.9738,1.928,1.8251,1.7582,1.7582,1.7582,1.7582,1.7582,1.7582,1.7582,1.7582,1.7582,1.7582,1.7582,1.7582,1.7582,1.7582,1.6548,1.5333,1.3898,1.1276,0.9316,0.7988,0.7988,0.7988,0.7988,0.7988,0.7874,0.7729,0.7638,0.7475,0.7278,0.7136,0.7095,0.7095,0.7095,0.7095,0.7095,0.7095,0.7095,0.7095,0.7095,0.7095,0.7095,0.7095,0.7095,0.7095,0.7095,0.701,0.6881,0.6836,0.6659,0.6479,0.6257,0.6169,0.6025,0.5644,0.5536,0.5413,0.514,0.52,0.5265,0.5146,0.5224,0.5333,0.5257,0.5322,0.5331,0.5249,0.511,0.5018,0.5018,0.5018,0.5018,0.5018,0.5018,0.5018,0.5018,0.5018,0.5018,0.5018,0.5018,0.5018,0.5018,0.5018,0.5018,0.5018,0.5018,0.5018,0.5018,0.5018,0.5018,1.7505,1.8067,1.8682,1.8682,1.9279,1.9902,1.9902,2.0566,2.1237,2.1454,2.2297,2.3226,2.3865,2.4136,2.4438,2.4826,2.4883,2.4421,2.3144,2.2038,2.0826,1.9435,1.8356,1.7687,1.7635,1.7582,1.7582,1.7582,1.7582,1.7582,1.7582,1.7582,1.7582,1.7582,1.7582,1.7575,1.7562,1.7306,1.5574,1.2458,1.087,0.941,0.8088,0.8038,0.7988,0.7988,0.7982,0.7868,0.7607,0.7594,0.7417,0.7105,0.7098,0.7095,0.7095,0.7095,0.7095,0.7095,0.7095,0.7095,0.7095,0.7095,0.7095,0.7095,0.7095,0.7095,0.7095,0.7095,0.7095,0.7051,0.6881,0.6792,0.6748,0.6476,0.6257,0.6092,0.5918,0.572,0.5477,0.5233,0.5181,0.5143,0.5034,0.511,0.5224,0.5383,0.526,0.5148,0.5048,0.5023,0.5018,0.5018,0.5018,0.5018,0.5018,0.5018,0.5018,0.5018,0.5018,0.5018,0.5018,0.5018,0.5018,0.5018,0.5018,0.5018,0.5018,0.5018,0.5018,0.5054,0.5018,0.5015,1.7314,1.7977,1.8645,1.8507,1.9059,1.9715,1.9863,2.0238,2.0658,2.1157,2.2229,2.3235,2.3689,2.4135,2.4466,2.4569,2.4489,2.4242,2.3935,2.292,2.1751,2.0621,1.9487,1.8461,1.7687,1.7582,1.7582,1.7582,1.7582,1.7582,1.7582,1.7582,1.7582,1.7582,1.7582,1.7475,1.7313,1.6804,1.5503,1.3488,1.2068,1.073,0.946,0.8432,0.7988,0.7982,0.7919,0.7828,0.774,0.7519,0.7383,0.7299,0.7139,0.7095,0.7095,0.7095,0.7095,0.7095,0.7095,0.7095,0.7095,0.7095,0.7095,0.7095,0.7095,0.7095,0.7095,0.7095,0.7095,0.7095,0.7054,0.701,0.6966,0.6748,0.6659,0.6489,0.6005,0.5846,0.5687,0.5273,0.5118,0.505,0.5023,0.511,0.5197,0.5227,0.5205,0.5208,0.5273,0.5127,0.5018,0.5018,0.5018,0.5018,0.5018,0.5018,0.5018,0.5018,0.5018,0.5018,0.5018,0.5018,0.5018,0.5018,0.5018,0.5018,0.5018,0.5018,0.5249,0.567,0.521,0.5518,1.7619,1.8146,1.8667,1.8564,1.8997,1.9524,1.982,2.0142,2.055,2.1203,2.2239,2.313,2.3588,2.4075,2.4495,2.4871,2.461,2.4405,2.4581,2.3477,2.2257,2.1038,1.9901,1.8767,1.7681,1.7582,1.7582,1.7582,1.7582,1.7582,1.7582,1.7582,1.7582,1.7582,1.7514,1.7246,1.6817,1.6489,1.5477,1.3872,1.3017,1.1707,0.9948,0.9118,0.8432,0.7982,0.0,0.7777,0.7699,0.7468,0.7329,0.7261,0.7129,0.7095,0.7095,0.7095,0.7095,0.7095,0.7095,0.7095,0.7095,0.7095,0.7095,0.7095,0.7095,0.7095,0.7095,0.7095,0.7095,0.7095,0.7095,0.7095,0.7051,0.6969,0.6881,0.6729,0.6384,0.6191,0.5981,0.552,0.5251,0.5093,0.5015,0.511,0.5205,0.5298,0.5219,0.523,0.5396,0.5165,0.5018,0.5018,0.5018,0.5018,0.5018,0.5018,0.5018,0.5018,0.5018,0.5018,0.5018,0.5018,0.5132,0.5401,0.5401,0.5556,0.5825,0.5825,0.6018,0.6325,0.598,0.6209,1.8081,1.8374,1.8715,1.8715,1.9008,1.9412,1.9793,2.0149,2.0609,2.1327,2.2142,2.2916,2.3476,2.3894,2.4347,2.5195,2.4858,2.4616,2.4963,2.3921,2.2603,2.1089,2.0004,1.8923,1.774,1.7582,1.7582,1.7582,1.7582,1.7582,1.7582,1.7582,1.7562,1.7522,1.7259,1.6837,1.6328,1.6281,1.5535,1.4172,1.3746,1.2387,1.0243,0.985,0.9069,0.7982,0.7858,0.0,0.7587,0.7411,0.7261,0.7095,0.7095,0.7095,0.7095,0.7095,0.7095,0.7095,0.7095,0.7095,0.7095,0.7095,0.7095,0.7095,0.7095,0.7095,0.7095,0.7095,0.7095,0.7095,0.7095,0.7095,0.7095,0.7095,0.6966,0.6836,0.6795,0.6539,0.6216,0.5769,0.5485,0.5243,0.5015,0.511,0.5222,0.5369,0.5254,0.5224,0.5372,0.5154,0.5018,0.5018,0.5018,0.5018,0.5018,0.5018,0.5018,0.5018,0.5093,0.5132,0.5132,0.521,0.5518,0.6018,0.6015,0.6325,0.6903,0.6903,0.6938,0.7015,0.6938,0.6976,1.7895,1.8374,1.8715,1.8715,1.9008,1.9412,1.9793,1.9939,2.0237,2.1004,2.1557,2.2153,2.2916,2.3384,2.3785,2.4337,2.4592,2.4675,2.4389,2.4441,2.36,2.1173,2.0731,1.9797,1.7793,1.7582,1.7582,1.7582,1.7582,1.7582,1.7582,1.7582,1.7475,1.7286,1.6757,1.6422,1.6321,1.6032,1.5736,1.5439,1.4364,1.3054,1.1512,1.044,0.9213,0.7975,0.7753,0.0,0.758,0.7295,0.7122,0.7095,0.7095,0.7095,0.7095,0.7095,0.7095,0.7095,0.7095,0.7095,0.7095,0.7095,0.7095,0.7095,0.7095,0.7095,0.7095,0.7095,0.7095,0.7095,0.7095,0.7095,0.7095,0.7095,0.7051,0.701,0.6836,0.6433,0.5972,0.5618,0.5424,0.5243,0.5015,0.511,0.5195,0.5214,0.52,0.5195,0.5216,0.5099,0.5018,0.5018,0.5018,0.5018,0.5018,0.5018,0.5018,0.5018,0.5479,0.5747,0.5747,0.6286,0.6633,0.671,0.6707,0.6784,0.6903,0.6903,0.7169,0.7629,0.713,0.7437,1.7826,1.82,1.8451,1.89,1.9164,1.9467,2.0049,2.0195,2.0424,2.1273,2.1714,2.2181,2.2794,2.3224,2.37,2.4381,2.4514,2.4514,2.4532,2.4002,2.2935,2.1113,2.0372,1.9391,1.7733,1.7582,1.7582,1.7582,1.7494,1.7414,1.7414,1.7208,1.6994,1.6757,1.6469,1.6199,1.6046,1.5899,1.5784,1.5778,1.5051,1.4034,1.2678,1.1414,1.004,0.868,0.7926,0.0,0.7461,0.7189,0.7095,0.7095,0.7095,0.7095,0.7095,0.7095,0.7095,0.7095,0.7095,0.7095,0.7095,0.7095,0.7095,0.7095,0.7095,0.7095,0.7095,0.7095,0.7095,0.7095,0.7095,0.7095,0.7095,0.7095,0.7041,0.7007,0.6949,0.6593,0.6216,0.6015,0.5772,0.5515,0.5207,0.5269,0.531,0.5227,0.5186,0.5186,0.5186,0.5362,0.5362,0.5015,0.5018,0.5018,0.5018,0.5018,0.5132,0.544,0.5747,0.6054,0.6402,0.6745,0.7057,0.7361,0.7361,0.7514,0.7821,0.7821,0.7974,0.8241,0.7974,0.8165,1.7423,1.7674,1.7876,1.8567,1.8895,1.9223,2.0036,2.0385,2.0708,2.1522,2.1934,2.2309,2.2812,2.316,2.3636,2.451,2.4496,2.4322,2.4298,2.336,2.2097,2.068,1.9746,1.8767,1.7681,1.7582,1.7582,1.7582,1.7306,1.7105,1.7105,1.6774,1.6506,1.6328,1.6213,1.6066,1.5784,1.5784,1.5784,1.5784,1.5635,1.486,1.3553,1.248,1.1057,0.9419,0.837,0.0,0.0,0.7248,0.7228,0.736,0.7183,0.7095,0.7095,0.7095,0.7095,0.7095,0.7095,0.7095,0.7095,0.7095,0.7095,0.7095,0.7095,0.7095,0.7095,0.7095,0.7095,0.7095,0.7095,0.7095,0.7095,0.7095,0.7011,0.6953,0.7034,0.6817,0.6542,0.6391,0.6138,0.583,0.5478,0.5487,0.5514,0.5468,0.5428,0.5419,0.5548,0.5888,0.5941,0.544,0.5401,0.5401,0.5401,0.5401,0.5595,0.6093,0.6247,0.6556,0.7053,0.7207,0.7514,0.7974,0.7974,0.8241,0.8703,0.8703,0.8703,0.8703,0.8703,0.8703,1.6363,1.669,1.6821,1.6903,1.7513,1.8325,1.9134,1.9911,2.0708,2.1522,2.1723,2.198,2.2767,2.294,2.3224,2.4128,2.4551,2.4289,2.2882,2.2886,2.2115,1.9672,1.928,1.8767,1.7681,1.7582,1.7582,1.7582,1.7061,1.6747,1.6747,1.6473,1.6348,1.6321,1.6012,1.5804,1.5784,1.5784,1.5784,1.5784,1.5784,1.5099,1.3866,1.3443,1.1952,0.9741,0.92,0.8857,0.0,0.7553,0.7621,0.8281,0.7448,0.7095,0.7095,0.7095,0.7095,0.7095,0.7095,0.7095,0.7095,0.7095,0.7095,0.7095,0.7095,0.7095,0.7095,0.7095,0.7095,0.7095,0.7095,0.7095,0.7095,0.7095,0.7085,0.7045,0.693,0.6873,0.6726,0.6306,0.6197,0.6098,0.5894,0.5666,0.5715,0.6271,0.6154,0.6185,0.6673,0.6795,0.6784,0.6749,0.671,0.671,0.671,0.671,0.6749,0.6788,0.7322,0.7668,0.7706,0.8241,0.8546,0.8627,0.8627,0.8661,0.8703,0.8703,0.8703,0.8703,0.8703,0.8703,1.533,1.5621,1.5827,1.6535,1.6944,1.7581,1.8914,1.9478,2.0091,2.1433,2.1879,2.2227,2.2803,2.3096,2.3444,2.411,2.4339,2.4236,2.3614,2.3059,2.2121,2.0431,1.9642,1.8767,1.7681,1.7582,1.7508,1.7387,1.6941,1.6627,1.6453,1.6166,1.6005,1.6005,1.5892,1.5784,1.5784,1.5784,1.5784,1.5784,1.5784,1.5486,1.4848,1.3843,1.2746,1.1533,1.0448,0.9852,0.0,0.9043,0.9013,0.9231,0.8321,0.7929,0.7885,0.7316,0.7095,0.7095,0.7095,0.7095,0.7095,0.7095,0.7095,0.7095,0.7095,0.7095,0.7095,0.7095,0.7095,0.7095,0.7095,0.7095,0.7095,0.7095,0.7031,0.6977,0.7007,0.7336,0.7605,0.7492,0.7728,0.7936,0.7882,0.7521,0.7336,0.764,0.725,0.7006,0.7246,0.7357,0.7437,0.7437,0.713,0.6903,0.6903,0.6903,0.7057,0.7437,0.7668,0.7974,0.8318,0.8585,0.8703,0.8703,0.8703,0.8703,0.8703,0.8703,0.8703,0.8703,0.8703,0.8703,1.4409,1.4614,1.4838,1.5711,1.62,1.6841,1.8471,1.8877,1.9382,2.1051,2.167,2.2021,2.2542,2.3105,2.3627,2.4137,2.4202,2.4102,2.3746,2.3038,2.2114,2.1038,2.0261,1.9383,1.8199,1.7793,1.7428,1.7099,1.682,1.654,1.6159,1.5945,1.5784,1.5784,1.5784,1.5784,1.5784,1.5784,1.5784,1.5784,1.5784,1.573,1.5527,1.439,1.3515,1.2831,1.152,1.0855,0.0,1.0139,1.0053,1.0231,0.9274,0.893,0.8798,0.7841,0.7533,0.7492,0.7183,0.7095,0.7095,0.7095,0.7095,0.7095,0.7095,0.7095,0.7095,0.7095,0.7095,0.7095,0.7095,0.7316,0.7533,0.7533,0.7668,0.7833,0.7899,0.8294,0.8622,0.8602,0.8882,0.9159,0.9128,0.8737,0.8517,0.8776,0.8325,0.8022,0.805,0.8165,0.8203,0.8089,0.7668,0.7437,0.7437,0.7437,0.7629,0.805,0.805,0.8241,0.8699,0.8703,0.8703,0.8703,0.8703,0.8703,0.8703,0.8703,0.8703,0.8703,0.8703,0.8703,1.3729,1.3774,1.3779,1.4046,1.4972,1.6158,1.7581,1.8069,1.8696,2.0365,2.0823,2.1109,2.1799,2.2792,2.3627,2.4137,2.4202,2.3795,2.2677,2.2526,2.2114,2.1038,2.1132,2.0723,1.9332,1.8199,1.7341,1.6754,1.6707,1.6453,1.5818,1.5784,1.5784,1.5784,1.5784,1.5784,1.5784,1.5784,1.5784,1.5784,1.5784,1.5784,1.5764,1.5231,1.4321,1.3142,1.2319,1.1886,0.0,1.0404,1.0448,1.1192,1.0231,0.9879,0.9792,0.8842,0.85,0.8368,0.7404,0.7095,0.7095,0.7095,0.7095,0.7095,0.7095,0.7095,0.7095,0.7095,0.7095,0.7095,0.7095,0.7797,0.85,0.85,0.9187,0.9874,0.9879,0.9874,0.9752,0.9384,0.9299,0.9233,0.8955,0.8721,0.88,0.9399,0.9311,0.9194,0.9271,0.9284,0.9132,0.8737,0.8699,0.8661,0.8661,0.8661,0.8699,0.8699,0.8699,0.8699,0.8703,0.8703,0.8703,0.8703,0.8703,0.8703,0.8703,0.8703,0.8703,0.8703,0.8703,0.8703,1.3523,1.3793,1.409,1.4368,1.4831,1.5595,1.6914,1.7289,1.7781,1.9341,1.9924,2.0521,2.1695,2.2414,2.3138,2.4026,2.4202,2.4053,2.3696,2.2987,2.2375,2.2013,2.0723,1.9687,1.9228,1.8251,1.7422,1.7092,1.682,1.654,1.6152,1.5939,1.5784,1.5784,1.5784,1.5784,1.5784,1.5784,1.5784,1.5784,1.5784,1.5678,1.5518,1.5182,1.4672,1.4051,1.3422,1.3052,0.0,1.2314,1.2137,1.2143,1.123,1.0842,1.0755,0.9797,0.9449,0.9405,0.91,0.9008,0.9008,0.9008,0.9008,0.9008,0.9008,0.858,0.8061,0.8061,0.8536,0.8882,0.8233,0.8755,0.9449,0.9449,0.9662,0.9879,0.9879,1.0248,1.0531,1.0429,1.0635,1.0841,1.0931,1.0584,1.0455,1.0795,1.0434,1.0106,1.0116,0.9884,0.9657,0.9539,0.9279,0.9013,0.8742,0.8703,0.8703,0.8703,0.8703,0.8703,0.8703,0.8703,0.8703,0.8703,0.8703,0.8703,0.8703,0.8703,0.8703,0.8703,0.8703,0.8703,1.3585,1.3904,1.4186,1.4501,1.4811,1.5339,1.6595,1.6687,1.6879,1.835,1.9192,2.0007,2.1147,2.2191,2.3161,2.4075,2.4202,2.4202,2.4202,2.3596,2.3029,2.271,2.0613,1.9177,1.9214,1.813,1.7306,1.6898,1.6647,1.6413,1.6119,1.5925,1.5784,1.5784,1.5784,1.5784,1.5784,1.5784,1.5724,1.5665,1.5665,1.5518,1.5224,1.493,1.4696,1.4459,1.3946,0.0,0.0,1.3179,1.2924,1.2619,1.2057,1.1843,1.1714,1.075,1.0448,1.0361,1.0009,0.9879,0.9879,0.9879,0.9879,0.9966,1.0318,0.9753,0.9017,0.9017,0.9449,0.9749,0.9192,0.971,1.0448,1.0448,1.0707,1.0966,1.0966,1.1218,1.1408,1.1318,1.138,1.1507,1.1606,1.1335,1.1172,1.1309,1.1,1.0663,1.0513,1.0293,1.0067,0.9916,0.9695,0.943,0.916,0.8894,0.8703,0.8703,0.8703,0.8703,0.8703,0.8703,0.8703,0.8703,0.8703,0.8703,0.8703,0.8703,0.8703,0.8703,0.8703,0.8703,0.0,1.4084,1.408,1.4521,1.48,1.5358,1.6538,1.6264,0.0,1.7414,1.8512,1.9423,2.0126,2.1944,2.3472,2.398,2.4152,2.4192,2.4165,2.4137,2.3804,2.2915,2.068,1.9243,1.9293,1.8064,1.7032,1.6459,1.6468,1.6332,1.594,1.5927,1.5872,1.5784,1.5784,1.5784,1.5784,1.5758,1.5665,1.5398,1.5378,1.5211,1.4968,1.4643,1.4509,0.0,0.0,0.0,0.0,1.3185,1.2966,1.2705,1.2705,1.2705,1.2577,1.1714,1.1408,1.1278,1.0404,1.0096,1.0096,1.0096,1.0096,1.0269,1.1149,1.0755,1.0009,1.0009,1.0053,1.0096,1.0009,1.0712,1.1408,1.1408,1.2057,1.2699,1.2681,1.2469,1.221,1.1928,1.167,1.1411,1.1184,1.1141,1.1135,1.1111,1.1111,1.0962,1.0588,1.0556,1.04,1.003,0.9954,0.996,0.996,0.9236,0.8775,0.8742,0.8742,0.8742,0.8703,0.8703,0.8703,0.8703,0.8703,0.8703,0.8742,0.8742,0.8742,0.8742,0.8742,0.8742,1.3957,0.0,1.4549,1.4637,1.5012,1.5482,0.0,1.5819,1.596,1.6545,1.6843,1.7463,1.8886,2.0253,2.152,2.2717,2.3646,2.4091,2.373,2.338,2.2883,2.2088,2.0606,1.9732,1.994,1.8726,1.7845,1.7459,1.813,1.8075,1.7012,1.6951,1.6574,1.5825,1.5784,1.5784,1.5784,1.5611,1.5464,1.5391,1.517,1.491,1.4623,1.4556,1.4396,1.4182,0.0,0.0,1.3398,1.3355,1.3094,1.2705,1.2705,1.2705,1.2662,1.2443,1.2357,1.2357,1.2137,1.2052,1.2052,1.2052,1.2052,1.2095,1.2314,1.1709,1.0971,1.0971,1.1488,1.188,1.1149,1.1666,1.2357,1.2357,1.2534,1.265,1.2445,1.2198,1.1999,1.1892,1.167,1.1471,1.1405,1.1393,1.1321,1.1141,1.1111,1.1074,1.0962,1.0962,1.0925,1.0812,1.0556,1.0368,1.0368,0.9916,0.9501,0.917,0.9165,0.9013,0.8703,0.8703,0.8703,0.8703,0.8703,0.8856,0.9165,0.9165,0.9165,0.9165,0.9165,0.9013,1.3696,1.4394,1.4734,1.4825,1.5213,1.5551,1.5654,1.5741,1.5872,1.6039,1.645,1.7305,1.9011,2.0213,2.1426,2.3041,2.3795,2.4064,2.3747,2.2903,2.2215,2.1856,2.0691,1.9894,1.9917,1.9157,1.8545,1.8267,1.8746,1.8707,1.8025,1.7971,1.7552,1.6534,1.6388,1.6085,1.5631,1.5478,1.5264,1.499,1.4836,1.4609,1.4322,1.4322,1.4235,1.4088,0.0,0.0,1.3525,1.344,1.3179,1.2881,1.2747,1.2705,1.2705,1.2705,1.2705,1.2705,1.2705,1.2705,1.2705,1.2705,1.2705,1.2705,1.2705,1.2357,1.1929,1.1929,1.2314,1.2571,1.2057,1.2314,1.2705,1.2705,1.2614,1.2487,1.2343,1.2107,1.188,1.188,1.1766,1.1633,1.1513,1.1495,1.1399,1.1154,1.1111,1.1111,1.1111,1.1111,1.1111,1.1111,1.0925,1.0775,1.0775,1.0588,1.0218,0.9625,0.9587,0.9468,0.9273,0.9084,0.8894,0.8703,0.8894,0.9089,0.9284,0.9473,0.9733,0.9992,0.9992,1.0019,1.331,1.4304,1.4752,1.4943,1.5213,1.5484,1.5745,1.5779,1.5778,1.5778,1.6581,1.7807,1.9475,2.0707,2.2014,2.3579,2.3901,2.3846,2.3697,2.2524,2.1784,2.2011,2.085,1.9964,1.9758,1.9499,1.9293,1.9042,1.9155,1.9155,1.9018,1.8969,1.8487,1.7485,1.7014,1.6371,1.5486,1.5349,1.501,1.4522,1.4476,1.4322,1.4088,1.4088,1.4088,1.4088,0.0,0.0,1.3695,1.3476,1.3264,1.3052,1.279,1.2705,1.2705,1.2705,1.2705,1.2705,1.2705,1.2705,1.2705,1.2705,1.2705,1.2705,1.2705,1.2705,1.2705,1.2705,1.2705,1.2693,1.2656,1.2644,1.2644,1.2644,1.2445,1.2252,1.2252,1.2047,1.1826,1.1826,1.1826,1.1754,1.1531,1.1495,1.1399,1.1154,1.1111,1.1111,1.1111,1.1111,1.1111,1.1111,1.1111,1.1111,1.1111,1.1111,1.0812,1.0143,1.003,0.996,0.9922,0.9587,0.9241,0.8889,0.9203,0.9473,0.962,0.9884,1.0368,1.1031,1.0925,1.1174,1.331,1.4304,1.466,1.4467,1.482,1.5182,1.5197,1.5395,1.5588,1.5778,1.6581,1.757,1.8502,2.0224,2.1678,2.2158,2.2417,2.2584,2.2566,2.208,2.178,2.2049,2.0975,2.0295,2.0408,2.0281,2.0127,2.0076,2.0808,2.0907,2.0113,1.9734,1.912,1.8088,1.6996,1.6162,1.572,1.4993,1.4609,1.4516,1.4269,1.4128,1.4088,1.4088,1.4088,1.4088,0.0,1.3955,1.3695,1.3476,1.3264,1.3052,1.279,1.2705,1.2705,1.2705,1.2705,1.2705,1.2705,1.2705,1.2705,1.2705,1.2705,1.2705,1.2705,1.2705,1.2705,1.2705,1.2705,1.265,1.2433,1.2373,1.2373,1.2373,1.2174,1.194,1.194,1.1736,1.1549,1.1549,1.1549,1.1537,1.1501,1.1495,1.1399,1.1154,1.1111,1.1111,1.1111,1.1111,1.1111,1.1111,1.1111,1.1111,1.1111,1.1111,1.1037,1.0925,1.0594,1.0255,0.9922,0.9846,0.9771,0.9733,0.9771,1.0218,1.1074,1.0625,1.0993,1.205,1.1545,1.1434,1.2253,1.3485,1.428,1.4292,1.4918,1.5469,1.5338,1.5505,1.5695,1.5675,1.6534,1.7712,1.9039,2.031,2.1453,2.2323,2.2377,2.2373,2.251,2.2168,2.2052,2.2451,2.1856,2.1526,2.1784,2.157,2.1436,2.1436,2.1811,2.1808,2.1137,2.0816,2.0131,1.8879,1.7997,1.6962,1.5827,1.5284,1.4745,1.4282,1.4155,1.4088,1.4088,1.4088,1.4088,1.4088,0.0,1.4046,1.3913,1.3652,1.344,1.3222,1.3009,1.2833,1.2705,1.2705,1.2705,1.2705,1.2705,1.2705,1.2705,1.2705,1.2705,1.2705,1.2705,1.2705,1.2705,1.2705,1.2705,1.2674,1.2554,1.2524,1.2487,1.2343,1.2113,1.1844,1.1706,1.1579,1.1495,1.1495,1.1609,1.1657,1.1513,1.1495,1.1399,1.1154,1.1111,1.1166,1.1317,1.1208,1.1172,1.1285,1.1202,1.1111,1.1111,1.1111,1.1111,1.1111,1.0925,1.0625,1.0255,1.0218,1.0105,0.9922,1.0105,1.0625,1.1409,1.1335,1.1922,1.3084,1.2842,1.2908,1.1386,1.2717,1.3876,1.4141,1.4869,1.5509,1.5512,1.5543,1.5599,1.5588,1.6679,1.8095,1.9566,2.0595,2.154,2.2562,2.241,2.2235,2.2417,2.2203,2.2141,2.2485,2.2397,2.2397,2.2627,2.24,2.2255,2.2255,2.2161,2.1972,2.1608,2.1315,2.0686,1.9567,1.8815,1.7771,1.6338,1.5929,1.5151,1.4088,1.4088,1.4088,1.4088,1.4088,1.4088,1.4088,1.4088,1.4088,1.4088,1.3822,1.3568,1.3398,1.3179,1.2966,1.279,1.2705,1.2747,1.279,1.2705,1.2705,1.2705,1.2705,1.2705,1.2705,1.2705,1.2705,1.2705,1.2705,1.2705,1.2693,1.2626,1.2614,1.256,1.2361,1.2065,1.1754,1.1615,1.1483,1.1399,1.1399,1.1609,1.1724,1.1531,1.1543,1.1507,1.1335,1.1304,1.1339,1.1555,1.1399,1.1383,1.1561,1.1431,1.1304,1.1304,1.1244,1.1208,1.1208,1.1148,1.0962,1.0663,1.0625,1.0513,1.018,1.0481,1.0999,1.1744,1.1929,1.2696,1.3977,1.3869,1.4086,1.1386,1.2591,1.3604,1.387,1.4159,1.4607,1.5332,1.514,1.498,1.5719,1.7366,1.8839,1.9328,2.0971,2.2245,2.2318,2.1989,2.1733,2.1777,2.1759,2.1741,2.1785,2.1963,2.2141,2.2141,2.197,2.183,2.183,2.148,2.116,2.0885,2.049,2.0153,1.9889,1.8702,1.8,1.7829,1.7033,1.576,1.4088,1.4088,1.4088,1.4088,1.4088,1.4088,1.4088,1.4088,1.4088,1.4088,1.3822,1.3568,1.3398,1.3179,1.3094,1.3052,1.279,1.2875,1.3052,1.279,1.2705,1.2705,1.2705,1.2705,1.2705,1.2705,1.2705,1.2705,1.2705,1.2705,1.265,1.2403,1.2343,1.2337,1.2318,1.1926,1.1585,1.1802,1.1498,1.1141,1.1141,1.1365,1.1513,1.1495,1.1694,1.1844,1.1866,1.1826,1.1832,1.185,1.1838,1.1832,1.185,1.1838,1.1826,1.1826,1.1603,1.1465,1.1465,1.1256,1.1074,1.1074,1.1074,1.1037,1.0999,1.1037,1.1632,1.279,1.2261,1.2879,1.4533,1.4013,1.4086,1.046,1.1899,1.3375,1.3797,1.3737,1.3797,1.4759,1.4992,1.507,1.5575,1.7189,1.9009,2.0554,2.1239,2.1566,2.1566,2.1236,2.0936,2.0936,2.0936,2.1065,2.1356,2.1494,2.1665,2.1939,2.1922,2.1868,2.1868,2.1723,2.1469,2.1068,2.0661,2.0292,1.9909,1.9176,1.8567,1.7997,1.7674,1.6903,1.5718,1.5151,1.4622,1.4088,1.4088,1.4088,1.4088,1.4088,1.4088,1.4088,1.3997,1.3828,1.3561,1.3355,1.3222,1.3094,1.3137,1.3137,1.3094,1.2966,1.2839,1.2705,1.2705,1.2705,1.2705,1.2705,1.2705,1.2705,1.2705,1.2705,1.2681,1.2584,1.2439,1.227,1.2107,1.1754,1.1471,1.1437,1.1256,1.1166,1.1341,1.1417,1.1543,1.1706,1.182,1.188,1.188,1.188,1.194,1.2143,1.1982,1.1946,1.2149,1.2023,1.188,1.188,1.179,1.1854,1.2062,1.1451,1.1111,1.1111,1.1446,1.1669,1.1669,1.204,1.2629,1.347,1.3215,1.3615,1.4605,1.4382,1.4418,1.0027,1.1509,1.3212,1.3568,1.3387,1.3294,1.4153,1.454,1.4813,1.5143,1.6805,1.8787,2.0722,2.0982,2.0924,2.0924,2.0695,2.0521,2.0521,2.0521,2.0596,2.0931,2.1099,2.1316,2.1668,2.1675,2.168,2.168,2.1553,2.1338,2.0925,2.0577,2.0205,1.9843,1.9469,1.9015,1.8407,1.8407,1.7957,1.7098,1.6494,1.5643,1.4496,1.4208,1.4088,1.4088,1.4088,1.4088,1.4088,1.4088,1.3955,1.3695,1.3476,1.3355,1.3307,1.3355,1.3355,1.3264,1.3143,1.2966,1.279,1.2747,1.2705,1.2705,1.279,1.279,1.2705,1.279,1.279,1.2687,1.2602,1.2445,1.2246,1.1946,1.1682,1.1465,1.1351,1.1304,1.1323,1.1561,1.1682,1.1796,1.197,1.2113,1.2168,1.2168,1.2168,1.2234,1.2415,1.2447,1.2609,1.3038,1.2893,1.2779,1.2779,1.269,1.275,1.298,1.2259,1.1789,1.1669,1.2077,1.2268,1.2268,1.2673,1.3185,1.3796,1.3796,1.4093,1.4605,1.4605,1.4605,1.0293,1.1638,1.3077,1.3083,1.3121,1.3188,1.3453,1.3713,1.4072,1.4578,1.6341,1.8158,1.9472,2.0127,2.047,2.047,2.0512,2.0512,2.0512,2.0512,2.0512,2.0512,2.0922,2.1172,2.1172,2.118,2.119,2.119,2.081,2.0489,2.0303,2.0069,1.9833,1.9597,1.9429,1.9301,1.9301,1.9301,1.8856,1.7997,1.7997,1.7107,1.5352,1.4496,1.413,1.4088,1.4088,1.4088,1.4088,1.4088,1.3955,1.3695,1.3476,1.3525,1.3695,1.3476,1.3525,1.3652,1.3222,1.3094,1.3052,1.279,1.2705,1.2747,1.3009,1.2924,1.2747,1.3009,1.2918,1.2638,1.2379,1.2312,1.2246,1.1946,1.1682,1.1561,1.1826,1.1676,1.1573,1.1838,1.2131,1.2312,1.2318,1.253,1.2705,1.2705,1.2705,1.2705,1.2705,1.3307,1.3942,1.4608,1.4692,1.4692,1.4692,1.444,1.4291,1.4291,1.3747,1.3245,1.2914,1.29,1.29,1.29,1.2893,1.3222,1.3796,1.3796,1.4086,1.4605,1.4605,1.4605,0.9883,1.0901,1.2044,1.2897,1.2976,1.2904,1.3175,1.3441,1.3921,1.4988,1.5702,1.6773,1.8764,1.8935,1.905,1.993,1.9852,1.9659,1.9659,1.9659,1.9709,1.9839,2.0,2.012,2.0271,2.0286,2.0368,2.0536,2.0459,2.042,2.0489,2.0303,2.0147,2.0069,1.9715,1.9518,1.9518,1.939,1.9183,1.8895,1.8278,1.7107,1.5394,1.5151,1.4699,1.4088,1.4088,1.4088,1.4088,1.4088,1.3955,1.3695,1.3828,1.3828,1.3737,1.3828,1.3828,1.3695,1.3568,1.3355,1.3094,1.3009,1.2833,1.2747,1.3009,1.3052,1.3009,1.3264,1.2999,1.2622,1.2357,1.2162,1.2023,1.1904,1.1682,1.1561,1.1826,1.182,1.1844,1.2149,1.2264,1.2373,1.256,1.265,1.2705,1.2705,1.2705,1.2875,1.3349,1.3977,1.4489,1.4692,1.4692,1.4692,1.4692,1.4643,1.466,1.4926,1.4555,1.3983,1.329,1.344,1.3542,1.3542,1.3912,1.4165,1.4346,1.4346,1.4453,1.4605,1.4605,1.4605,1.0084,1.091,1.1822,1.2963,1.2988,1.2747,1.2916,1.3169,1.3605,1.4597,1.5216,1.6128,1.7776,1.8161,1.8584,1.952,1.9467,1.9301,1.9301,1.9301,1.9341,1.9469,1.9557,1.9645,1.9754,1.9863,1.9981,2.0147,2.0147,2.0225,2.0459,2.0264,2.0186,2.0303,1.9833,1.9606,1.9606,1.939,1.9301,1.9301,1.8776,1.7796,1.6412,1.5718,1.511,1.4622,1.425,1.4088,1.4088,1.4088,1.3997,1.387,1.4046,1.3997,1.387,1.4039,1.4004,1.3822,1.3737,1.3519,1.3307,1.3264,1.3094,1.3009,1.3264,1.3264,1.327,1.3483,1.3193,1.2765,1.2392,1.2166,1.2029,1.1778,1.1688,1.1718,1.2023,1.2077,1.2155,1.2415,1.2469,1.2518,1.2681,1.2705,1.2705,1.2705,1.2918,1.3428,1.4356,1.4859,1.5193,1.5484,1.5484,1.5484,1.5484,1.5484,1.5569,1.5774,1.5356,1.4842,1.4326,1.4191,1.4129,1.4129,1.4453,1.4605,1.4605,1.4605,1.4605,1.4605,1.4605,1.4605,1.0467,1.1255,1.1973,1.3058,1.2997,1.2705,1.2705,1.2904,1.3195,1.3668,1.4737,1.5776,1.6434,1.7623,1.8643,1.9063,1.9222,1.9301,1.9301,1.9301,1.9301,1.9301,1.9478,1.9557,1.9557,1.9754,1.9863,1.9863,1.9863,1.999,2.0264,2.002,2.002,2.0303,1.9872,1.9645,1.9645,1.9429,1.9301,1.9301,1.9301,1.8895,1.8078,1.6412,1.556,1.5352,1.4496,1.4088,1.4088,1.4088,1.4088,1.4088,1.4088,1.4088,1.4088,1.4088,1.4088,1.4088,1.3822,1.3737,1.3652,1.3483,1.3398,1.344,1.3652,1.3561,1.3483,1.3695,1.3421,1.2993,1.2535,1.2341,1.2192,1.1715,1.1787,1.2029,1.2294,1.2349,1.2421,1.2656,1.2705,1.2705,1.2705,1.2747,1.2833,1.2875,1.3428,1.4321,1.5526,1.5733,1.6023,1.6607,1.6689,1.6689,1.6689,1.6689,1.6689,1.6689,1.6103,1.5768,1.5768,1.503,1.4605,1.4605,1.4605,1.4605,1.4605,1.4605,1.4605,1.4605,1.4605,1.4605,0.8997,0.9768,1.0588,1.1665,1.233,1.2705,1.2705,1.2753,1.2807,1.2911,1.3347,1.3936,1.4755,1.5989,1.7139,1.7908,1.8767,1.9301,1.9301,1.9301,1.9301,1.9301,1.9341,1.9341,1.9341,1.9381,1.9499,1.9636,1.9676,1.9754,1.9981,1.9942,2.002,2.0303,1.999,1.9824,1.9824,1.9636,1.9478,0.0,1.9301,1.9183,1.8975,1.7917,1.6698,1.5352,1.4496,1.4088,1.4088,1.4088,1.4088,1.4088,1.4088,1.4088,1.4088,1.4088,1.4088,1.4088,1.4046,1.387,1.3695,1.3652,1.3525,1.344,1.3652,1.3652,1.3695,1.3955,1.3664,1.3207,1.3132,1.2852,1.2577,1.2465,1.2314,1.23,1.2566,1.262,1.2638,1.2693,1.2705,1.2705,1.2705,1.3137,1.3646,1.4188,1.4852,1.536,1.565,1.6154,1.6525,1.6697,1.6689,1.6689,1.6689,1.6689,1.6689,1.6689,1.6333,1.6087,1.6087,1.512,1.4605,1.4605,1.4605,1.4605,1.4605,1.4605,1.4605,1.4605,1.4605,1.4605,0.8685,0.9161,0.9721,1.1066,1.2068,1.2674,1.2542,1.2518,1.2481,1.2355,1.2802,1.3345,1.3926,1.5238,1.6436,1.7078,1.8214,1.9002,1.9002,1.9192,1.9301,1.9301,1.9301,1.9301,1.9301,1.9301,1.9341,1.9429,1.9478,1.9548,1.9754,1.9754,1.9863,2.0108,1.9981,1.9902,1.9902,1.9715,1.9557,1.9429,1.9341,1.9301,1.9262,1.8407,1.7066,1.5352,1.4901,1.4496,1.4088,1.4088,1.4088,1.4088,1.4088,1.4088,1.4088,1.4088,1.4088,1.4088,1.4088,1.3997,1.3913,1.3913,1.3828,1.3743,1.387,1.3913,1.3913,1.4046,1.3807,1.3441,1.3346,1.3163,1.2977,1.2886,1.2665,1.2536,1.2674,1.2705,1.279,1.3137,1.3179,1.3264,1.3597,1.3935,1.4405,1.5068,1.5484,1.5816,1.6154,1.6484,1.6689,1.6689,1.6689,1.6689,1.6689,1.6689,1.6689,1.6689,1.6397,1.6206,1.6206,1.5364,1.4903,1.4903,1.4692,1.4605,1.4605,1.4605,1.4605,1.4605,1.4605,1.4605,0.8621,0.883,0.9204,1.0904,1.1886,1.2432,1.2385,1.2343,1.224,1.198,1.2528,1.3097,1.3292,1.459,1.5809,1.6237,1.7567,1.8571,1.8692,1.9042,1.9301,1.9301,1.9301,1.9301,1.9301,1.9301,1.9301,1.9301,1.9301,1.939,1.9557,1.9557,1.9636,1.9824,1.9863,1.9863,1.9863,1.9715,1.9636,1.9557,1.9381,1.9301,1.9262,1.8567,1.735,1.5842,1.5519,1.4985,1.4292,1.4166,1.4088,1.4088,1.4088,1.4088,1.4088,1.4088,1.4088,1.4088,1.4088,1.4088,1.4088,1.4088,1.4088,1.4088,1.4088,1.4088,1.4075,1.4021,1.3915,1.3714,1.3426,1.3397,1.3419,1.3348,1.3172,1.3039,1.296,1.3003,1.3215,1.3857,1.3984,1.4195,1.4859,1.4943,1.511,1.5775,1.5858,1.6064,1.6607,1.6689,1.6689,1.6689,1.6689,1.6689,1.6689,1.6689,1.6689,1.6689,1.642,1.6301,1.6301,1.5634,1.5306,1.5306,1.4819,1.4605,1.4605,1.4605,1.4605,1.4605,1.4605,1.4605,0.7538,0.8193,0.9204,1.0904,1.1408,1.1703,1.2486,1.2475,1.224,1.198,1.199,1.2083,1.212,1.3286,1.4486,1.5123,1.6694,1.8046,1.8612,1.9042,1.9301,1.9301,1.9301,1.9301,1.9301,1.9301,1.9301,1.9301,1.9301,1.9301,1.9341,1.9341,1.9429,1.9645,1.9833,1.9833,1.9636,1.9794,1.9666,1.9341,1.9301,1.9301,1.9301,1.9183,1.8607,1.7553,1.6049,1.5311,1.5151,1.4419,1.4088,1.4088,1.4088,1.4088,1.4088,1.4088,1.4088,1.4088,1.4088,1.4088,1.4088,1.4088,1.4088,1.4088,1.4088,1.4088,1.4035,1.3733,1.3846,1.3973,1.3639,1.3605,1.3844,1.458,1.4594,1.4329,1.4013,1.4188,1.4559,1.5061,1.5186,1.5394,1.6064,1.5858,1.5775,1.6484,1.6566,1.6607,1.6689,1.6689,1.6689,1.6689,1.6689,1.6689,1.6689,1.6689,1.6689,1.6689,1.665,1.6626,1.6626,1.5983,1.5648,1.5648,1.4938,1.4605,1.4605,1.4605,1.4605,1.4605,1.4605,1.4605,0.7224,0.7905,0.8814,0.9563,1.0539,1.1375,1.1626,1.1905,1.2023,1.1718,1.1576,1.1467,1.1467,1.2382,1.3324,1.3772,1.5482,1.6911,1.735,1.8313,1.8962,1.8962,1.9152,1.9301,1.9301,1.9301,1.9301,1.9301,1.9301,1.9301,1.9301,1.9301,1.9341,1.9429,1.9636,1.9676,1.9606,1.9676,1.9597,1.9301,1.9301,1.9301,1.9301,1.9301,1.8816,1.7917,1.6657,1.5842,1.5311,1.4454,1.4088,1.4088,1.4088,1.4088,1.4088,1.4088,1.4088,1.4088,1.4088,1.4088,1.4088,1.4088,1.4088,1.4088,1.4088,1.4088,1.4181,1.4497,1.4351,1.43,1.5136,1.4995,1.4852,1.5745,1.6075,1.6157,1.5992,1.5662,1.5621,1.6173,1.6591,1.6886,1.6935,1.6771,1.6648,1.6689,1.6689,1.6689,1.6689,1.6689,1.6689,1.6689,1.6689,1.6689,1.6689,1.6689,1.6689,1.6689,1.6689,1.6689,1.6689,1.6246,1.5975,1.5975,1.5057,1.4605,1.4605,1.4605,1.4605,1.4605,1.4605,1.4605,0.7085,0.7621,0.8193,0.8456,0.9545,1.0671,1.0937,1.134,1.1623,1.1606,1.1375,1.1196,1.1123,1.1714,1.2376,1.2811,1.4486,1.5901,1.6347,1.7627,1.858,1.87,1.8962,1.9183,1.9301,1.9301,1.9301,1.9301,1.9301,1.9301,1.9301,1.9301,1.9301,1.9301,1.9518,1.9566,1.9518,1.9518,1.9429,1.9301,1.9301,1.9301,1.9301,1.9301,1.8935,1.8278,1.7432,1.6535,1.5677,1.4783,1.4292,1.4088,1.4088,1.4088,1.4088,1.4088,1.4088,1.4088,1.4088,1.4088,1.4088,1.4088,1.4088,1.4088,1.4088,1.425,1.4559,1.5092,1.5045,1.5047,1.6261,1.6185,1.5966,1.6813,1.731,1.7561,1.757,1.7098,1.6846,1.7318,1.7829,1.808,1.7797,1.7554,1.727,1.6943,1.6779,1.6689,1.6689,1.6689,1.6689,1.6689,1.6812,1.6894,1.6894,1.6894,1.6894,1.6894,1.6779,1.6689,1.6689,1.6397,1.6206,1.6206,1.5348,1.4827,1.474,1.474,1.4692,1.4605,1.4605,1.4605,0.7058,0.7139,0.7404,0.8281,0.8588,0.9104,1.0875,1.1122,1.1139,1.1755,1.1651,1.1387,1.116,1.1341,1.1846,1.2739,1.4128,1.537,1.6257,1.7343,1.8201,1.866,1.874,1.8891,1.9262,1.9301,1.9301,1.9301,1.9301,1.9301,1.9301,1.9301,1.9301,1.9301,1.9518,1.9518,1.9301,1.9301,1.9301,1.9301,1.9301,1.9301,1.9301,1.9301,1.9262,1.9173,1.8327,1.7432,1.6576,1.5684,1.4866,1.4088,1.4088,1.4088,1.4088,1.4088,1.4088,1.4088,1.4088,1.4088,1.4088,1.4088,1.4088,1.4088,1.4088,1.4699,1.5294,1.5021,1.5716,1.6545,1.6373,1.6492,1.6862,1.7715,1.7957,1.7965,1.7951,1.8282,1.8571,1.8612,1.866,1.866,1.866,1.7968,1.7392,1.7351,1.6984,1.6689,1.6689,1.6689,1.6689,1.6689,1.7106,1.7351,1.7351,1.7351,1.7351,1.7351,1.6943,1.6689,1.6689,1.6397,1.6206,1.6206,1.5825,1.5505,1.5157,1.5157,1.4982,1.4605,1.4605,1.4605,0.6871,0.6953,0.7163,0.7415,0.7984,0.8675,0.9371,1.0246,1.095,1.12,1.1392,1.1459,1.1363,1.1423,1.1651,1.219,1.3179,1.424,1.5184,1.627,1.7221,1.7797,1.808,1.8442,1.8882,1.8922,1.9002,1.9262,1.9301,1.9301,1.9301,1.9301,1.9301,1.9301,1.939,1.939,1.9301,1.9301,1.9301,1.9301,1.9301,1.9301,1.9301,1.9301,1.9301,1.9262,1.8975,1.8318,1.7432,1.6008,1.5228,1.4943,1.4943,1.458,1.4173,1.4741,1.458,1.4088,1.4088,1.4088,1.4088,1.4088,1.4088,1.4088,1.4088,1.4699,1.5496,1.5937,1.6359,1.6952,1.7954,1.7903,1.7755,1.8647,1.8847,1.8816,1.8825,1.8953,1.9073,1.9073,1.9073,1.9002,1.8732,1.8451,1.8129,1.7838,1.7635,1.7424,1.7188,1.7147,1.7147,1.7147,1.731,1.7514,1.7757,1.7797,1.7676,1.7432,1.7229,1.7025,1.6689,1.657,1.6507,1.6507,1.6198,1.5737,1.5189,1.5189,1.4998,1.4605,1.4605,1.4605,0.6729,0.6881,0.7004,0.691,0.7429,0.8039,0.8396,0.9316,1.0266,1.0784,1.1096,1.1368,1.16,1.1694,1.1784,1.1908,1.27,1.355,1.4273,1.5401,1.6394,1.6976,1.7514,1.7959,1.8411,1.8451,1.8652,1.9073,1.9112,0.0,1.9301,1.9301,1.9301,1.9301,1.9301,1.9301,1.9301,1.9301,1.9301,1.9301,1.9301,1.9301,1.9301,1.9301,1.9301,1.9301,1.9301,1.8816,1.7876,1.6412,1.5677,1.5394,1.5394,1.5068,1.4664,1.5519,1.5269,1.4538,1.4538,1.4334,1.4088,1.4088,1.4088,1.4088,1.4088,1.4699,1.5602,1.6453,1.6903,1.7464,1.8935,1.8856,1.8567,1.9173,1.9301,1.9301,1.9301,1.9301,1.9301,1.9301,1.9301,1.9231,1.8962,1.8772,1.858,1.8282,1.808,1.7838,1.7432,1.7514,1.7554,1.7392,1.7676,1.7919,1.8201,1.8241,1.8129,1.7838,1.7563,1.731,1.7139,1.7017,1.6943,1.6943,1.6629,1.6162,1.5581,1.5423,1.5174,1.4812,1.4955,1.5098,0.0,0.0,0.0,0.6876,0.6876,0.7171,0.8233,0.8492,0.8965,1.0526,1.0899,1.1114,1.1779,1.2137,1.2228,1.1934,1.2672,1.3398,1.3649,1.4817,1.5816,1.6312,1.6943,1.7522,1.7959,1.8008,1.8178,1.866,1.87,1.8851,1.9262,1.9301,1.9301,1.9301,1.9301,1.9301,1.9301,1.9301,1.9301,1.9301,1.9301,1.9301,1.9301,1.9301,1.9301,1.9301,1.9301,1.8816,1.7957,1.7107,1.6206,1.5436,1.5436,1.5436,1.5519,1.637,1.6165,1.5394,1.5436,1.4866,1.413,1.413,1.4166,1.4173,1.413,1.4783,1.5636,1.6494,1.7391,1.8238,1.9094,1.9301,1.9301,1.9301,1.9301,1.9301,1.9301,1.9301,1.9301,1.9301,1.9301,1.9301,1.9301,1.8962,1.874,1.874,1.8322,1.7878,1.7473,1.7797,1.7878,1.7473,1.821,1.87,1.874,1.874,1.87,1.87,1.7927,1.7595,1.8,1.7635,1.7432,1.7432,1.7077,1.6713,1.6327,1.5902,1.5523,1.524,1.5621,1.6114,0.648,0.0,0.0,0.0,0.0,0.0,0.7254,0.7881,0.8708,0.9909,1.0578,1.1164,1.2011,1.2264,1.2288,1.2216,1.2588,1.3043,1.3639,1.4026,1.465,1.5775,1.6293,1.6849,1.7498,1.7796,1.8011,0.0,1.8491,1.874,1.8851,1.9152,1.9301,1.9301,1.9301,1.9301,1.9301,1.9301,1.9301,1.9301,1.9301,1.9301,1.9301,1.9301,1.9301,1.9301,1.9301,1.9173,1.8856,1.7997,1.7147,1.6329,1.6329,1.5966,1.5519,1.637,1.6165,1.5477,1.6131,1.576,1.5026,1.5026,1.5477,1.5842,1.5235,1.6083,1.735,1.7553,1.8287,1.9015,1.9222,1.9301,1.9301,1.9301,1.9301,1.9301,1.9301,1.9301,1.9301,1.9301,1.9301,1.9301,1.9301,1.9222,1.9112,1.9112,1.9024,1.8794,1.8411,1.8451,1.8451,1.8331,1.858,1.8812,1.9112,1.9112,1.9002,1.874,1.8451,1.825,1.8,1.7878,1.7838,1.7838,1.7236,1.6994,1.7166,1.6167,1.5668,1.5621,1.5762,1.635,0.6508,0.6681,0.6829,0.6627,0.0,0.0,0.6852,0.7307,0.8111,0.9577,1.0215,1.09,1.2224,1.2475,1.2475,1.2475,1.2602,1.2833,1.3222,1.3519,1.403,1.4951,1.5774,1.6518,1.7049,1.7441,1.7729,1.7928,1.8256,1.8571,1.8922,1.9183,1.9301,1.9301,1.9301,1.9301,1.9301,1.9301,1.9301,1.9301,1.9301,1.9301,1.9301,1.9301,1.9301,1.9301,1.9301,1.9301,1.9262,1.8767,1.8037,1.7229,1.7229,1.6935,1.6576,1.7472,1.722,1.6576,1.7066,1.6657,1.5925,1.5925,1.6288,1.6617,1.609,1.6657,1.7513,1.7917,1.8647,1.9301,1.9301,1.9301,1.9301,1.9301,1.9301,1.9301,1.9301,1.9301,1.9301,1.9301,1.9301,1.9301,1.9301,1.9301,1.9301,1.9301,1.9301,1.9152,1.874,1.8851,1.8891,1.874,1.8851,1.9042,1.9262,1.9301,1.9192,1.8962,1.8772,1.8652,1.8554,1.8362,1.8282,1.8282,1.7751,1.7476,1.7487,1.6478,1.6144,1.6501,1.6669,1.7421,0.6742,0.6814,0.6846,0.6719,0.6688,0.0,0.6851,0.6849,0.7404,0.9302,0.9702,1.0278,1.2054,1.2382,1.2388,1.2492,1.2516,1.2571,1.2705,1.3247,1.3746,1.4041,1.5309,1.6321,1.6661,1.7074,1.7443,1.7827,1.7927,1.8393,1.9262,1.9301,1.9301,1.9301,1.9301,1.9301,1.9301,1.9301,1.9301,1.9301,1.9301,1.9301,1.9301,1.9301,1.9301,1.9301,1.9301,1.9301,1.9301,1.9301,1.8776,1.7997,1.7997,1.7997,1.8078,1.8856,1.8687,1.7997,1.8118,1.7553,1.6854,1.6854,1.6903,1.6984,1.6862,1.6903,1.7139,1.7917,1.8687,1.9301,1.9301,1.9301,1.9301,1.9301,1.9301,1.9301,1.9301,1.9301,1.9301,1.9301,1.9301,1.9301,1.9301,1.9301,1.9301,1.9301,1.9301,1.9152,1.8812,1.9073,1.9152,1.8812,1.9073,1.9301,1.9301,1.9301,1.9301,1.9301,1.8962,1.8922,1.9301,1.8962,1.878,1.878,1.8551,1.8157,1.766,1.6946,1.6971,1.7676,1.8128,1.8875,0.6742,0.6814,0.6861,0.6586,0.661,0.0,0.6583,0.6658,0.7087,0.8234,0.8518,0.896,1.0067,1.0376,1.0603,1.1158,1.1416,1.1843,1.2577,1.2984,1.3455,1.4023,1.4789,1.5635,1.6617,1.7003,1.7259,1.7403,1.7763,1.8393,1.9262,1.9301,1.9301,1.9301,1.9301,1.9301,1.9301,1.9301,1.9301,1.9301,1.9301,1.9301,1.9301,1.9301,1.9301,1.9301,1.9301,1.9301,1.9301,1.9301,1.8776,1.7997,1.7997,1.7997,1.8037,1.8198,1.8158,1.8118,1.8807,1.8487,1.7755,1.7755,1.8198,1.8647,1.7957,1.8238,1.8816,1.9015,1.9183,1.9301,1.9301,1.9301,1.9301,1.9301,1.9301,1.9301,1.9301,1.9301,1.9301,1.9301,1.9301,1.9301,1.9301,1.9301,1.9301,1.9301,1.9301,1.9262,1.9183,1.9262,1.9262,1.9183,1.9262,1.9301,1.9301,1.9301,1.9301,1.9301,1.9231,1.9222,1.9301,1.9222,1.9192,1.9192,1.9582,1.9446,1.8729,1.8536,1.855,1.8732,1.9347,1.9975,0.69,0.6933,0.6937,0.6756,0.6759,0.0,0.0,0.6759,0.7088,0.8094,0.8318,0.8569,0.9545,0.9704,0.983,1.026,1.0816,1.14,1.1912,1.2636,1.3258,1.3742,1.4527,1.5285,1.5975,1.6394,1.6713,1.7013,1.7631,1.8273,1.8962,1.9183,1.9301,1.9301,1.9301,1.9301,1.9301,1.9301,1.9301,1.9301,1.9301,1.9301,1.9301,1.9301,1.9301,1.9301,1.9301,1.9301,1.9283,1.9091,1.8725,1.8364,1.8364,1.8364,1.8364,1.8364,1.8488,1.8727,1.9143,1.9015,1.8647,1.8647,1.8935,1.9222,1.8767,1.8935,1.9301,1.9301,1.9301,1.9301,1.9301,1.9301,1.9301,1.9301,1.9301,1.9301,1.9301,1.9301,1.9301,1.9301,1.9301,1.9301,1.9301,1.9301,1.9301,1.9301,1.9301,1.9301,1.9301,1.9301,1.9301,1.9301,1.9301,1.9301,1.9301,1.9301,1.9301,1.9301,1.9301,1.9301,1.9301,1.9301,1.9301,1.9301,1.9618,1.9701,1.962,1.9924,1.9972,1.9811,2.0336,2.0892,0.7095,0.7095,0.7061,0.692,0.6906,0.6913,0.0,0.0,0.0,0.7989,0.8096,0.8276,0.9039,0.9072,0.9096,0.9349,1.004,1.0653,1.0925,1.2034,1.2996,1.3438,1.4293,1.4997,1.5365,1.5917,1.6443,1.6954,1.768,1.8305,1.8767,1.9118,1.9301,1.9301,1.9301,1.9301,1.9301,1.9301,1.9265,1.9191,1.9191,1.9191,1.9191,1.9191,1.9228,1.9301,1.9301,1.9256,1.9164,1.8843,1.8623,1.8485,1.8568,1.8557,1.8576,1.8687,1.8916,1.9201,1.9274,1.9301,1.9301,1.9301,1.9301,1.9301,1.9301,1.9301,1.9301,1.9301,1.9301,1.9301,1.9301,1.9301,1.9301,1.9301,1.9301,1.9301,1.9301,1.9301,1.9301,1.9301,1.9301,1.9301,1.9301,1.9301,1.9301,1.9301,1.9301,1.9301,1.9301,1.9301,1.9301,1.9301,1.9301,1.9301,1.9301,1.9301,1.9301,1.9301,1.9301,1.9301,1.9301,1.9301,1.9301,1.9301,1.942,1.9766,2.0391,2.1049,2.1222,2.0914,2.1346,2.1773,0.7095,0.7095,0.7061,0.692,0.698,0.7004,0.6787,0.0,0.6895,0.6902,0.0,0.7097,0.7182,0.0,0.0,0.8152,0.8484,0.8865,0.9606,1.0952,1.226,1.3393,1.4042,1.4644,1.5337,1.6387,1.7221,1.7654,1.8225,1.8694,1.9106,1.9254,1.9301,1.9301,1.9301,1.9301,1.9301,1.9301,1.9127,1.8779,1.8779,1.8779,1.8779,1.8779,1.8971,1.9301,1.9301,1.91,1.8779,1.8733,1.8284,1.7669,1.8045,1.8155,1.8191,1.8586,1.8742,1.8834,1.9182,1.9301,1.9301,1.9301,1.9301,1.9301,1.9301,1.9301,1.9301,1.9301,1.9301,1.9301,1.9301,1.9301,1.9301,1.9301,1.9301,1.9301,1.9301,1.9301,1.9301,1.9301,1.9301,1.9301,1.9301,1.9301,1.9301,1.9301,1.9301,1.9301,1.9301,1.9301,1.9301,1.9301,1.9301,1.9301,1.9301,1.9301,1.9301,1.9301,1.9301,1.9301,1.9301,1.9301,1.9301,1.9301,1.9814,2.043,2.1088,2.1711,2.1956,2.1952,2.2521,2.2598,0.7095,0.7038,0.6977,0.7001,0.6991,0.6964,0.692,0.696,0.6991,0.6927,0.0,0.0,0.0,0.0,0.0,0.0,0.7854,0.8354,0.8871,0.9994,1.1253,1.2535,0.0,0.0,1.4474,1.5358,1.6106,1.673,1.7672,1.8423,1.8846,1.9344,1.9549,1.9311,1.9301,1.9301,1.9301,1.9072,1.888,1.8705,1.8447,1.8329,1.8329,1.8329,1.8586,1.8944,1.8715,1.865,1.8678,1.8201,1.7798,1.7486,1.744,1.7559,1.7779,1.7944,1.8302,1.8733,1.8898,1.9109,1.9301,1.9301,1.9301,1.9301,1.9301,1.9301,1.9301,1.9301,1.9301,1.9301,1.9301,1.9301,1.9301,1.9301,1.9301,1.9301,1.9301,1.9301,1.9301,1.9301,1.9301,1.9301,1.9301,1.9301,1.9301,1.9301,1.9301,1.9301,1.9301,1.9301,1.9301,1.9301,1.9301,1.9301,1.9301,1.9301,1.9301,1.9301,1.9301,1.9301,1.9301,1.9301,1.9301,1.9301,1.9539,2.0196,2.1203,2.1433,2.1939,2.2628,2.2889,2.2892,0.7533,0.741,0.7314,0.716,0.7018,0.697,0.7071,0.7095,0.7095,0.7095,0.7014,0.0,0.0,0.0,0.6814,0.692,0.0,0.785,0.8063,0.9021,1.024,1.1786,0.0,0.0,0.0,1.4392,1.5238,1.6183,0.0,1.8324,1.8885,1.9528,1.9742,1.932,1.9301,1.9301,1.9301,1.9017,1.8815,1.8705,1.8383,1.8191,1.8091,1.8091,1.8246,1.854,1.8247,1.8182,1.833,1.7743,1.7495,1.7468,1.7183,1.7238,1.7495,1.7495,1.7944,1.8568,1.8678,1.8971,1.9301,1.9301,1.9301,1.9301,1.9301,1.9301,1.9301,1.9301,1.9301,1.9301,1.9301,1.9301,1.9301,1.9301,1.9301,1.9301,1.9301,1.9301,1.9301,1.9301,1.9301,1.9301,1.9301,1.9301,1.9301,1.9301,1.9301,1.9301,1.9301,1.9301,1.9301,1.9301,1.9301,1.9301,1.9301,1.9301,1.9301,1.9301,1.9301,1.9301,1.9301,1.9301,1.9381,1.9529,1.9539,2.0157,2.1433,2.1433,2.1966,2.3001,2.3001,2.2936,0.0,0.0,0.0,0.7312,0.7092,0.7092,0.7095,0.7095,0.7095,0.7095,0.7092,0.7088,0.7088,0.6974,0.6923,0.7065,0.7014,0.0,0.0,0.7973,0.9354,1.1473,1.2761,1.3519,0.0,1.4205,1.5251,0.0,1.7681,0.0,1.9708,1.9855,1.9742,1.932,1.9301,1.9301,1.9301,1.9292,1.9091,1.8715,1.8705,1.8495,1.8091,1.8091,1.8091,1.81,1.8091,1.7899,1.7532,1.7504,1.7495,1.7495,1.7477,1.7486,1.7495,1.7495,1.777,1.8164,1.8577,1.8971,1.9301,1.9301,1.9301,1.9301,1.9301,1.9301,1.9301,1.9301,1.9301,1.9301,1.9301,1.9301,1.9301,1.9301,1.9301,1.9301,1.9301,1.9301,1.9301,1.9301,1.9301,1.9301,1.9301,1.9301,1.9301,1.9301,1.9301,1.9301,1.9301,1.9301,1.9301,1.9301,1.9301,1.9301,1.9301,1.9301,1.9301,1.9301,1.9301,1.9301,1.9301,1.9301,1.9578,2.0157,2.0167,2.0779,2.2063,2.2063,2.2402,2.3001,2.3001,2.2761,0.0,0.0,0.8598,0.7924,0.0,0.0,0.0,0.7095,0.7095,0.7095,0.7095,0.7095,0.7095,0.7058,0.7041,0.7088,0.6977,0.6933,0.0,0.7831,0.8854,1.0215,1.1608,1.2663,1.3165,0.0,0.0,0.0,1.6825,0.0,0.0,1.9505,1.9742,1.932,1.9301,1.9301,1.9301,1.9045,1.8715,1.8283,1.8283,1.7935,1.7321,1.7587,1.7706,1.7697,1.7431,1.7385,1.7477,1.7211,1.7257,1.7495,1.7495,1.7669,1.788,1.7596,1.7761,1.8182,1.8871,1.9191,1.9301,1.9301,1.9301,1.9301,1.9301,1.9301,1.9301,1.9301,1.9301,1.9301,1.9301,1.9301,1.9301,1.9301,1.9301,1.9301,1.9301,1.9301,1.9301,1.9301,1.9301,1.9301,1.9301,1.9301,1.9301,1.9301,1.9301,1.9301,1.9301,1.9301,1.9301,1.9301,1.9301,1.9301,1.9301,1.9301,1.9301,1.9301,1.9301,1.9301,1.9301,1.9696,2.001,2.0206,2.0624,2.128,2.2101,2.2101,2.2402,2.3001,2.3001,2.2914,0.9754,0.9531,0.0,0.8621,0.8384,0.0,0.7606,0.0,0.7468,0.7566,0.7316,0.7183,0.7536,0.7316,0.7095,0.7095,0.7018,0.6974,0.0,0.7494,0.8276,0.9545,1.0813,1.1989,1.2877,1.3127,1.3817,1.5255,1.6015,1.698,0.0,0.0,1.9408,1.9311,1.9301,1.9301,1.9301,1.8907,1.8586,1.8292,1.8155,1.7734,1.7128,1.7376,1.7422,1.7266,1.7018,1.7055,1.7266,1.7009,1.7229,1.7715,1.7715,1.7972,1.8265,1.7697,1.7761,1.8238,1.9026,1.9301,1.9301,1.9301,1.9301,1.9301,1.9301,1.9301,1.9301,1.9301,1.9301,1.9301,1.9301,1.9301,1.9301,1.9301,1.9301,1.9301,1.9301,1.9301,1.9301,1.9301,1.9301,1.9301,1.9301,1.9301,1.9301,1.9301,1.9301,1.9301,1.9301,1.9301,1.9301,1.9301,1.9301,1.9301,1.9301,1.9301,1.9301,1.9301,1.9301,1.9301,1.9301,1.9893,2.0313,2.0547,2.1203,2.1825,2.2402,2.2402,2.2628,2.3001,2.3001,2.3001]}]]